Wetterdaten: Samstag, 07.01.2017
Datum Zeit Temp. A. Feuchte A. Luftdruck Regen Wind Richtung Richtung Sonnenschein ET UV Solar Taupunkt Windchill Windben Empfang
07.01.2017 00:00 -11,1 C 85 % 1039,5 hPa 0,0 l/m 8,5 km/h (2 Bft) SW 227 0 min 0,000 mm 0,0 UV-I 0 W/m -13,1 C -13,9 C 14,5 km/h (3 Bft) 100,00 %
07.01.2017 00:02 -11,1 C 85 % 1039,5 hPa 0,0 l/m 8,1 km/h (2 Bft) SW 226 0 min 0,000 mm 0,0 UV-I 0 W/m -13,1 C -13,4 C 11,3 km/h (2 Bft) 100,00 %
07.01.2017 00:04 -11,1 C 85 % 1039,5 hPa 0,0 l/m 7,8 km/h (2 Bft) W-SW 243 0 min 0,000 mm 0,0 UV-I 0 W/m -13,1 C -13,0 C 11,3 km/h (2 Bft) 100,00 %
07.01.2017 00:06 -11,1 C 85 % 1039,5 hPa 0,0 l/m 7,8 km/h (2 Bft) W-SW 241 0 min 0,000 mm 0,0 UV-I 0 W/m -13,1 C -13,0 C 11,3 km/h (2 Bft) 100,00 %
07.01.2017 00:08 -11,1 C 85 % 1039,5 hPa 0,0 l/m 6,9 km/h (2 Bft) SW 236 0 min 0,000 mm 0,0 UV-I 0 W/m -13,1 C -11,8 C 9,7 km/h (2 Bft) 100,00 %
07.01.2017 00:10 -11,2 C 85 % 1039,4 hPa 0,0 l/m 7,5 km/h (2 Bft) W 259 0 min 0,000 mm 0,0 UV-I 0 W/m -13,2 C -12,7 C 12,9 km/h (3 Bft) 100,00 %
07.01.2017 00:12 -11,2 C 85 % 1039,4 hPa 0,0 l/m 6,4 km/h (2 Bft) W-SW 246 0 min 0,000 mm 0,0 UV-I 0 W/m -13,2 C -11,1 C 12,9 km/h (3 Bft) 100,00 %
07.01.2017 00:14 -11,2 C 85 % 1039,4 hPa 0,0 l/m 7,2 km/h (2 Bft) W-SW 256 0 min 0,000 mm 0,0 UV-I 0 W/m -13,2 C -12,3 C 12,9 km/h (3 Bft) 97,22 %
07.01.2017 00:16 -11,2 C 85 % 1039,4 hPa 0,0 l/m 6,9 km/h (2 Bft) SW 230 0 min 0,000 mm 0,0 UV-I 0 W/m -13,2 C -11,9 C 9,7 km/h (2 Bft) 100,00 %
07.01.2017 00:18 -11,2 C 85 % 1039,3 hPa 0,0 l/m 7,3 km/h (2 Bft) W-SW 240 0 min 0,000 mm 0,0 UV-I 0 W/m -13,2 C -12,5 C 11,3 km/h (2 Bft) 100,00 %
07.01.2017 00:20 -11,2 C 85 % 1039,3 hPa 0,0 l/m 8,4 km/h (2 Bft) W-SW 244 0 min 0,000 mm 0,0 UV-I 0 W/m -13,2 C -13,9 C 12,9 km/h (3 Bft) 100,00 %
07.01.2017 00:22 -11,2 C 85 % 1039,3 hPa 0,0 l/m 8,4 km/h (2 Bft) W-SW 244 0 min 0,000 mm 0,0 UV-I 0 W/m -13,2 C -13,9 C 14,5 km/h (3 Bft) 100,00 %
07.01.2017 00:24 -11,2 C 85 % 1039,3 hPa 0,0 l/m 7,0 km/h (2 Bft) S-SW 199 0 min 0,000 mm 0,0 UV-I 0 W/m -13,2 C -12,0 C 11,3 km/h (2 Bft) 100,00 %
07.01.2017 00:26 -11,2 C 85 % 1039,3 hPa 0,0 l/m 9,3 km/h (2 Bft) SW 221 0 min 0,000 mm 0,0 UV-I 0 W/m -13,2 C -15,0 C 12,9 km/h (3 Bft) 100,00 %
07.01.2017 00:28 -11,2 C 85 % 1039,3 hPa 0,0 l/m 8,8 km/h (2 Bft) W-SW 245 0 min 0,000 mm 0,0 UV-I 0 W/m -13,2 C -14,4 C 14,5 km/h (3 Bft) 100,00 %
07.01.2017 00:30 -11,2 C 85 % 1039,3 hPa 0,0 l/m 7,8 km/h (2 Bft) W-SW 244 0 min 0,000 mm 0,0 UV-I 0 W/m -13,2 C -13,1 C 11,3 km/h (2 Bft) 100,00 %
07.01.2017 00:32 -11,2 C 85 % 1039,3 hPa 0,0 l/m 8,6 km/h (2 Bft) SW 230 0 min 0,000 mm 0,0 UV-I 0 W/m -13,2 C -14,2 C 11,3 km/h (2 Bft) 100,00 %
07.01.2017 00:34 -11,3 C 85 % 1039,2 hPa 0,0 l/m 8,7 km/h (2 Bft) W-SW 251 0 min 0,000 mm 0,0 UV-I 0 W/m -13,3 C -14,4 C 12,9 km/h (3 Bft) 100,00 %
07.01.2017 00:36 -11,3 C 86 % 1039,2 hPa 0,0 l/m 9,4 km/h (2 Bft) SW 235 0 min 0,000 mm 0,0 UV-I 0 W/m -13,2 C -15,2 C 14,5 km/h (3 Bft) 100,00 %
07.01.2017 00:38 -11,3 C 86 % 1039,3 hPa 0,0 l/m 9,5 km/h (2 Bft) SW 229 0 min 0,000 mm 0,0 UV-I 0 W/m -13,2 C -15,4 C 14,5 km/h (3 Bft) 100,00 %
07.01.2017 00:40 -11,4 C 86 % 1039,2 hPa 0,0 l/m 10,0 km/h (2 Bft) SW 232 0 min 0,000 mm 0,0 UV-I 0 W/m -13,3 C -16,0 C 16,1 km/h (3 Bft) 100,00 %
07.01.2017 00:42 -11,4 C 86 % 1039,2 hPa 0,0 l/m 8,1 km/h (2 Bft) S-SW 200 0 min 0,000 mm 0,0 UV-I 0 W/m -13,3 C -13,7 C 14,5 km/h (3 Bft) 98,21 %
07.01.2017 00:44 -11,4 C 86 % 1039,2 hPa 0,0 l/m 9,3 km/h (2 Bft) W-SW 238 0 min 0,000 mm 0,0 UV-I 0 W/m -13,3 C -15,2 C 14,5 km/h (3 Bft) 94,34 %
07.01.2017 00:46 -11,4 C 86 % 1039,2 hPa 0,0 l/m 10,8 km/h (2 Bft) SW 227 0 min 0,000 mm 0,0 UV-I 0 W/m -13,3 C -16,9 C 16,1 km/h (3 Bft) 100,00 %
07.01.2017 00:48 -11,5 C 86 % 1039,2 hPa 0,0 l/m 10,3 km/h (2 Bft) SW 229 0 min 0,000 mm 0,0 UV-I 0 W/m -13,4 C -16,5 C 14,5 km/h (3 Bft) 98,00 %
07.01.2017 00:50 -11,5 C 86 % 1039,2 hPa 0,0 l/m 6,8 km/h (2 Bft) SW 232 0 min 0,000 mm 0,0 UV-I 0 W/m -13,4 C -12,0 C 9,7 km/h (2 Bft) 100,00 %
07.01.2017 00:52 -11,5 C 86 % 1039,2 hPa 0,0 l/m 7,3 km/h (2 Bft) W-SW 246 0 min 0,000 mm 0,0 UV-I 0 W/m -13,4 C -12,8 C 11,3 km/h (2 Bft) 100,00 %
07.01.2017 00:54 -11,5 C 86 % 1039,2 hPa 0,0 l/m 7,0 km/h (2 Bft) W-SW 238 0 min 0,000 mm 0,0 UV-I 0 W/m -13,4 C -12,3 C 11,3 km/h (2 Bft) 100,00 %
07.01.2017 00:56 -11,5 C 86 % 1039,2 hPa 0,0 l/m 5,9 km/h (2 Bft) SW 221 0 min 0,000 mm 0,0 UV-I 0 W/m -13,4 C -11,5 C 8,0 km/h (2 Bft) 100,00 %
07.01.2017 00:58 -11,4 C 86 % 1039,2 hPa 0,0 l/m 7,5 km/h (2 Bft) SW 217 0 min 0,000 mm 0,0 UV-I 0 W/m -13,3 C -12,9 C 9,7 km/h (2 Bft) 100,00 %
07.01.2017 01:00 -11,5 C 86 % 1039,2 hPa 0,0 l/m 6,9 km/h (2 Bft) SW 217 0 min 0,000 mm 0,0 UV-I 0 W/m -13,4 C -12,2 C 12,9 km/h (3 Bft) 100,00 %
07.01.2017 01:02 -11,5 C 86 % 1039,2 hPa 0,0 l/m 6,1 km/h (2 Bft) SW 224 0 min 0,000 mm 0,0 UV-I 0 W/m -13,4 C -11,5 C 8,0 km/h (2 Bft) 100,00 %
07.01.2017 01:04 -11,5 C 86 % 1039,1 hPa 0,0 l/m 5,7 km/h (1 Bft) SW 224 0 min 0,000 mm 0,0 UV-I 0 W/m -13,4 C -11,5 C 9,7 km/h (2 Bft) 100,00 %
07.01.2017 01:06 -11,5 C 86 % 1039,2 hPa 0,0 l/m 6,9 km/h (2 Bft) W 271 0 min 0,000 mm 0,0 UV-I 0 W/m -13,4 C -12,2 C 11,3 km/h (2 Bft) 100,00 %
07.01.2017 01:08 -11,6 C 86 % 1039,1 hPa 0,0 l/m 4,7 km/h (1 Bft) SW 234 0 min 0,000 mm 0,0 UV-I 0 W/m -13,5 C -11,6 C 6,4 km/h (2 Bft) 100,00 %
07.01.2017 01:10 -11,5 C 86 % 1039,1 hPa 0,0 l/m 6,2 km/h (2 Bft) SW 227 0 min 0,000 mm 0,0 UV-I 0 W/m -13,4 C -11,5 C 11,3 km/h (2 Bft) 100,00 %
07.01.2017 01:12 -11,6 C 86 % 1039,1 hPa 0,0 l/m 4,6 km/h (1 Bft) SW 232 0 min 0,000 mm 0,0 UV-I 0 W/m -13,5 C -11,6 C 6,4 km/h (2 Bft) 100,00 %
07.01.2017 01:14 -11,6 C 86 % 1039,1 hPa 0,0 l/m 5,5 km/h (1 Bft) W-SW 249 0 min 0,000 mm 0,0 UV-I 0 W/m -13,5 C -11,6 C 8,0 km/h (2 Bft) 98,11 %
07.01.2017 01:16 -11,6 C 86 % 1039,2 hPa 0,0 l/m 4,9 km/h (1 Bft) W-SW 239 0 min 0,000 mm 0,0 UV-I 0 W/m -13,5 C -11,6 C 6,4 km/h (2 Bft) 97,87 %
07.01.2017 01:18 -11,6 C 86 % 1039,1 hPa 0,0 l/m 5,1 km/h (1 Bft) W-SW 248 0 min 0,000 mm 0,0 UV-I 0 W/m -13,5 C -11,6 C 8,0 km/h (2 Bft) 100,00 %
07.01.2017 01:20 -11,7 C 86 % 1039,1 hPa 0,0 l/m 5,4 km/h (1 Bft) W 259 0 min 0,000 mm 0,0 UV-I 0 W/m -13,6 C -11,7 C 9,7 km/h (2 Bft) 100,00 %
07.01.2017 01:22 -11,7 C 86 % 1039,1 hPa 0,0 l/m 6,6 km/h (2 Bft) W-SW 257 0 min 0,000 mm 0,0 UV-I 0 W/m -13,6 C -11,9 C 11,3 km/h (2 Bft) 100,00 %
07.01.2017 01:24 -11,7 C 86 % 1039,0 hPa 0,0 l/m 7,6 km/h (2 Bft) W-SW 242 0 min 0,000 mm 0,0 UV-I 0 W/m -13,6 C -13,4 C 11,3 km/h (2 Bft) 100,00 %
07.01.2017 01:26 -11,6 C 86 % 1039,1 hPa 0,0 l/m 8,5 km/h (2 Bft) W 274 0 min 0,000 mm 0,0 UV-I 0 W/m -13,5 C -14,5 C 12,9 km/h (3 Bft) 95,45 %
07.01.2017 01:28 -11,6 C 87 % 1039,1 hPa 0,0 l/m 8,6 km/h (2 Bft) W-SW 241 0 min 0,000 mm 0,0 UV-I 0 W/m -13,3 C -14,6 C 12,9 km/h (3 Bft) 100,00 %
07.01.2017 01:30 -11,6 C 86 % 1039,1 hPa 0,0 l/m 8,7 km/h (2 Bft) W-SW 250 0 min 0,000 mm 0,0 UV-I 0 W/m -13,5 C -14,7 C 12,9 km/h (3 Bft) 100,00 %
07.01.2017 01:32 -11,5 C 86 % 1039,0 hPa 0,0 l/m 7,1 km/h (2 Bft) W-SW 238 0 min 0,000 mm 0,0 UV-I 0 W/m -13,4 C -12,5 C 9,7 km/h (2 Bft) 96,15 %
07.01.2017 01:34 -11,5 C 86 % 1039,0 hPa 0,0 l/m 8,1 km/h (2 Bft) W 273 0 min 0,000 mm 0,0 UV-I 0 W/m -13,4 C -13,9 C 14,5 km/h (3 Bft) 98,00 %
07.01.2017 01:36 -11,5 C 86 % 1039,0 hPa 0,0 l/m 9,3 km/h (2 Bft) W-SW 246 0 min 0,000 mm 0,0 UV-I 0 W/m -13,4 C -15,3 C 12,9 km/h (3 Bft) 97,62 %
07.01.2017 01:38 -11,5 C 86 % 1039,1 hPa 0,0 l/m 9,8 km/h (2 Bft) W-SW 237 0 min 0,000 mm 0,0 UV-I 0 W/m -13,4 C -15,9 C 16,1 km/h (3 Bft) 97,37 %
07.01.2017 01:40 -11,5 C 86 % 1039,0 hPa 0,0 l/m 9,8 km/h (2 Bft) W-SW 253 0 min 0,000 mm 0,0 UV-I 0 W/m -13,4 C -15,9 C 12,9 km/h (3 Bft) 94,64 %
07.01.2017 01:42 -11,5 C 86 % 1039,1 hPa 0,0 l/m 8,7 km/h (2 Bft) W-SW 243 0 min 0,000 mm 0,0 UV-I 0 W/m -13,4 C -14,6 C 12,9 km/h (3 Bft) 96,00 %
07.01.2017 01:44 -11,5 C 86 % 1039,1 hPa 0,0 l/m 10,1 km/h (2 Bft) SW 231 0 min 0,000 mm 0,0 UV-I 0 W/m -13,4 C -16,3 C 12,9 km/h (3 Bft) 96,00 %
07.01.2017 01:46 -11,5 C 86 % 1039,1 hPa 0,0 l/m 9,5 km/h (2 Bft) W-SW 248 0 min 0,000 mm 0,0 UV-I 0 W/m -13,4 C -15,6 C 12,9 km/h (3 Bft) 94,74 %
07.01.2017 01:48 -11,5 C 86 % 1039,1 hPa 0,0 l/m 11,7 km/h (2 Bft) W-SW 240 0 min 0,000 mm 0,0 UV-I 0 W/m -13,4 C -17,9 C 16,1 km/h (3 Bft) 98,11 %
07.01.2017 01:50 -11,5 C 86 % 1039,1 hPa 0,0 l/m 9,8 km/h (2 Bft) S-SW 206 0 min 0,000 mm 0,0 UV-I 0 W/m -13,4 C -15,9 C 12,9 km/h (3 Bft) 98,00 %
07.01.2017 01:52 -11,5 C 86 % 1039,1 hPa 0,0 l/m 9,2 km/h (2 Bft) W-SW 240 0 min 0,000 mm 0,0 UV-I 0 W/m -13,4 C -15,2 C 14,5 km/h (3 Bft) 97,56 %
07.01.2017 01:54 -11,4 C 86 % 1039,1 hPa 0,0 l/m 8,2 km/h (2 Bft) S-SW 211 0 min 0,000 mm 0,0 UV-I 0 W/m -13,3 C -13,9 C 14,5 km/h (3 Bft) 97,73 %
07.01.2017 01:56 -11,4 C 86 % 1039,1 hPa 0,0 l/m 7,9 km/h (2 Bft) W-SW 240 0 min 0,000 mm 0,0 UV-I 0 W/m -13,3 C -13,5 C 12,9 km/h (3 Bft) 96,23 %
07.01.2017 01:58 -11,5 C 86 % 1039,1 hPa 0,0 l/m 9,1 km/h (2 Bft) SW 225 0 min 0,000 mm 0,0 UV-I 0 W/m -13,4 C -15,1 C 12,9 km/h (3 Bft) 97,37 %
07.01.2017 02:00 -11,6 C 86 % 1039,1 hPa 0,0 l/m 9,2 km/h (2 Bft) W-SW 237 0 min 0,000 mm 0,0 UV-I 0 W/m -13,5 C -15,3 C 12,9 km/h (3 Bft) 97,87 %
07.01.2017 02:02 -11,7 C 86 % 1039,0 hPa 0,0 l/m 9,3 km/h (2 Bft) W-SW 238 0 min 0,000 mm 0,0 UV-I 0 W/m -13,6 C -15,6 C 12,9 km/h (3 Bft) 98,00 %
07.01.2017 02:04 -11,7 C 86 % 1039,0 hPa 0,0 l/m 9,8 km/h (2 Bft) SW 223 0 min 0,000 mm 0,0 UV-I 0 W/m -13,6 C -16,1 C 14,5 km/h (3 Bft) 98,00 %
07.01.2017 02:06 -11,7 C 86 % 1039,1 hPa 0,0 l/m 9,4 km/h (2 Bft) SW 236 0 min 0,000 mm 0,0 UV-I 0 W/m -13,6 C -15,7 C 14,5 km/h (3 Bft) 95,83 %
07.01.2017 02:08 -11,8 C 86 % 1039,0 hPa 0,0 l/m 9,5 km/h (2 Bft) SW 234 0 min 0,000 mm 0,0 UV-I 0 W/m -13,7 C -15,9 C 11,3 km/h (2 Bft) 97,73 %
07.01.2017 02:10 -11,8 C 86 % 1039,1 hPa 0,0 l/m 7,2 km/h (2 Bft) SW 220 0 min 0,000 mm 0,0 UV-I 0 W/m -13,7 C -12,9 C 11,3 km/h (2 Bft) 97,62 %
07.01.2017 02:12 -11,8 C 86 % 1039,1 hPa 0,0 l/m 8,2 km/h (2 Bft) W-SW 238 0 min 0,000 mm 0,0 UV-I 0 W/m -13,7 C -14,3 C 11,3 km/h (2 Bft) 98,28 %
07.01.2017 02:14 -11,8 C 86 % 1039,1 hPa 0,0 l/m 8,0 km/h (2 Bft) W-SW 244 0 min 0,000 mm 0,0 UV-I 0 W/m -13,7 C -14,0 C 11,3 km/h (2 Bft) 100,00 %
07.01.2017 02:16 -11,8 C 86 % 1039,1 hPa 0,0 l/m 7,5 km/h (2 Bft) SW 227 0 min 0,000 mm 0,0 UV-I 0 W/m -13,7 C -13,4 C 9,7 km/h (2 Bft) 97,92 %
07.01.2017 02:18 -11,9 C 86 % 1039,1 hPa 0,0 l/m 7,8 km/h (2 Bft) W-SW 244 0 min 0,000 mm 0,0 UV-I 0 W/m -13,8 C -13,9 C 9,7 km/h (2 Bft) 100,00 %
07.01.2017 02:20 -11,9 C 86 % 1039,1 hPa 0,0 l/m 7,0 km/h (2 Bft) SW 222 0 min 0,000 mm 0,0 UV-I 0 W/m -13,8 C -12,7 C 9,7 km/h (2 Bft) 96,23 %
07.01.2017 02:22 -12,0 C 86 % 1039,1 hPa 0,0 l/m 8,1 km/h (2 Bft) S-SW 211 0 min 0,000 mm 0,0 UV-I 0 W/m -13,9 C -14,4 C 12,9 km/h (3 Bft) 97,56 %
07.01.2017 02:24 -12,1 C 86 % 1039,1 hPa 0,0 l/m 7,4 km/h (2 Bft) SW 227 0 min 0,000 mm 0,0 UV-I 0 W/m -13,9 C -13,5 C 9,7 km/h (2 Bft) 98,11 %
07.01.2017 02:26 -12,1 C 87 % 1039,0 hPa 0,0 l/m 7,1 km/h (2 Bft) SW 227 0 min 0,000 mm 0,0 UV-I 0 W/m -13,8 C -13,1 C 9,7 km/h (2 Bft) 100,00 %
07.01.2017 02:28 -12,1 C 87 % 1039,0 hPa 0,0 l/m 7,5 km/h (2 Bft) SW 233 0 min 0,000 mm 0,0 UV-I 0 W/m -13,8 C -13,7 C 11,3 km/h (2 Bft) 100,00 %
07.01.2017 02:30 -12,1 C 87 % 1039,0 hPa 0,0 l/m 7,6 km/h (2 Bft) S-SW 200 0 min 0,000 mm 0,0 UV-I 0 W/m -13,8 C -13,8 C 9,7 km/h (2 Bft) 100,00 %
07.01.2017 02:32 -12,1 C 87 % 1039,0 hPa 0,0 l/m 6,3 km/h (2 Bft) SW 215 0 min 0,000 mm 0,0 UV-I 0 W/m -13,8 C -12,1 C 9,7 km/h (2 Bft) 100,00 %
07.01.2017 02:34 -12,1 C 87 % 1039,0 hPa 0,0 l/m 5,8 km/h (2 Bft) SW 235 0 min 0,000 mm 0,0 UV-I 0 W/m -13,8 C -12,1 C 8,0 km/h (2 Bft) 98,00 %
07.01.2017 02:36 -12,1 C 87 % 1039,0 hPa 0,0 l/m 5,7 km/h (1 Bft) W 260 0 min 0,000 mm 0,0 UV-I 0 W/m -13,8 C -12,1 C 8,0 km/h (2 Bft) 100,00 %
07.01.2017 02:38 -12,2 C 87 % 1038,9 hPa 0,0 l/m 5,9 km/h (2 Bft) W-SW 244 0 min 0,000 mm 0,0 UV-I 0 W/m -13,9 C -12,2 C 11,3 km/h (2 Bft) 97,37 %
07.01.2017 02:40 -12,1 C 87 % 1038,9 hPa 0,0 l/m 5,8 km/h (2 Bft) SW 232 0 min 0,000 mm 0,0 UV-I 0 W/m -13,8 C -12,1 C 11,3 km/h (2 Bft) 100,00 %
07.01.2017 02:42 -12,1 C 87 % 1039,0 hPa 0,0 l/m 6,6 km/h (2 Bft) SW 234 0 min 0,000 mm 0,0 UV-I 0 W/m -13,8 C -12,3 C 9,7 km/h (2 Bft) 100,00 %
07.01.2017 02:44 -12,1 C 87 % 1038,9 hPa 0,0 l/m 7,0 km/h (2 Bft) W-SW 251 0 min 0,000 mm 0,0 UV-I 0 W/m -13,8 C -12,9 C 12,9 km/h (3 Bft) 100,00 %
07.01.2017 02:46 -12,1 C 87 % 1039,0 hPa 0,0 l/m 6,3 km/h (2 Bft) SW 234 0 min 0,000 mm 0,0 UV-I 0 W/m -13,8 C -12,1 C 9,7 km/h (2 Bft) 97,73 %
07.01.2017 02:48 -12,0 C 87 % 1038,9 hPa 0,0 l/m 7,0 km/h (2 Bft) W-SW 249 0 min 0,000 mm 0,0 UV-I 0 W/m -13,7 C -12,8 C 12,9 km/h (3 Bft) 100,00 %
07.01.2017 02:50 -12,0 C 87 % 1039,0 hPa 0,0 l/m 6,2 km/h (2 Bft) W-SW 242 0 min 0,000 mm 0,0 UV-I 0 W/m -13,7 C -12,0 C 9,7 km/h (2 Bft) 100,00 %
07.01.2017 02:52 -12,0 C 87 % 1039,0 hPa 0,0 l/m 6,3 km/h (2 Bft) W-SW 238 0 min 0,000 mm 0,0 UV-I 0 W/m -13,7 C -12,0 C 9,7 km/h (2 Bft) 100,00 %
07.01.2017 02:54 -12,0 C 87 % 1038,9 hPa 0,0 l/m 5,6 km/h (1 Bft) W-SW 246 0 min 0,000 mm 0,0 UV-I 0 W/m -13,7 C -12,0 C 6,4 km/h (2 Bft) 100,00 %
07.01.2017 02:56 -12,1 C 87 % 1038,9 hPa 0,0 l/m 5,2 km/h (1 Bft) SW 225 0 min 0,000 mm 0,0 UV-I 0 W/m -13,8 C -12,1 C 8,0 km/h (2 Bft) 98,00 %
07.01.2017 02:58 -12,1 C 87 % 1038,9 hPa 0,0 l/m 6,4 km/h (2 Bft) SW 229 0 min 0,000 mm 0,0 UV-I 0 W/m -13,8 C -12,0 C 9,7 km/h (2 Bft) 100,00 %
07.01.2017 03:00 -12,1 C 87 % 1038,9 hPa 0,0 l/m 5,6 km/h (1 Bft) SW 224 0 min 0,000 mm 0,0 UV-I 0 W/m -13,8 C -12,1 C 8,0 km/h (2 Bft) 100,00 %
07.01.2017 03:02 -12,2 C 87 % 1038,9 hPa 0,0 l/m 5,2 km/h (1 Bft) SW 225 0 min 0,000 mm 0,0 UV-I 0 W/m -13,9 C -12,2 C 9,7 km/h (2 Bft) 100,00 %
07.01.2017 03:04 -12,2 C 87 % 1038,8 hPa 0,0 l/m 4,8 km/h (1 Bft) SW 236 0 min 0,000 mm 0,0 UV-I 0 W/m -13,9 C -12,2 C 8,0 km/h (2 Bft) 100,00 %
07.01.2017 03:06 -12,3 C 87 % 1038,8 hPa 0,0 l/m 3,9 km/h (1 Bft) SW 229 0 min 0,000 mm 0,0 UV-I 0 W/m -14,0 C -12,3 C 6,4 km/h (2 Bft) 100,00 %
07.01.2017 03:08 -12,3 C 87 % 1038,9 hPa 0,0 l/m 3,0 km/h (1 Bft) SW 228 0 min 0,000 mm 0,0 UV-I 0 W/m -14,0 C -12,3 C 6,4 km/h (2 Bft) 100,00 %
07.01.2017 03:10 -12,3 C 87 % 1038,8 hPa 0,0 l/m 3,1 km/h (1 Bft) SW 225 0 min 0,000 mm 0,0 UV-I 0 W/m -14,0 C -12,3 C 4,8 km/h (1 Bft) 100,00 %
07.01.2017 03:12 -12,3 C 87 % 1038,9 hPa 0,0 l/m 2,6 km/h (1 Bft) SW 225 0 min 0,000 mm 0,0 UV-I 0 W/m -14,0 C -12,3 C 3,2 km/h (1 Bft) 98,11 %
07.01.2017 03:14 -12,4 C 87 % 1038,9 hPa 0,0 l/m 1,7 km/h (1 Bft) SW 225 0 min 0,000 mm 0,0 UV-I 0 W/m -14,1 C -12,4 C 3,2 km/h (1 Bft) 100,00 %
07.01.2017 03:16 -12,4 C 87 % 1038,9 hPa 0,0 l/m 2,1 km/h (1 Bft) SW 230 0 min 0,000 mm 0,0 UV-I 0 W/m -14,1 C -12,4 C 4,8 km/h (1 Bft) 100,00 %
07.01.2017 03:18 -12,4 C 87 % 1038,8 hPa 0,0 l/m 3,1 km/h (1 Bft) W-SW 242 0 min 0,000 mm 0,0 UV-I 0 W/m -14,1 C -12,4 C 6,4 km/h (2 Bft) 100,00 %
07.01.2017 03:20 -12,5 C 87 % 1038,9 hPa 0,0 l/m 2,2 km/h (1 Bft) W-SW 242 0 min 0,000 mm 0,0 UV-I 0 W/m -14,2 C -12,5 C 4,8 km/h (1 Bft) 100,00 %
07.01.2017 03:22 -12,5 C 87 % 1038,8 hPa 0,0 l/m 3,1 km/h (1 Bft) W-SW 248 0 min 0,000 mm 0,0 UV-I 0 W/m -14,2 C -12,5 C 4,8 km/h (1 Bft) 100,00 %
07.01.2017 03:24 -12,6 C 87 % 1038,8 hPa 0,0 l/m 2,5 km/h (1 Bft) W-SW 246 0 min 0,000 mm 0,0 UV-I 0 W/m -14,3 C -12,6 C 4,8 km/h (1 Bft) 97,56 %
07.01.2017 03:26 -12,7 C 87 % 1038,8 hPa 0,0 l/m 2,3 km/h (1 Bft) S-SW 212 0 min 0,000 mm 0,0 UV-I 0 W/m -14,4 C -12,7 C 6,4 km/h (2 Bft) 96,00 %
07.01.2017 03:28 -12,9 C 87 % 1038,8 hPa 0,0 l/m 1,2 km/h (1 Bft) S-SW 212 0 min 0,000 mm 0,0 UV-I 0 W/m -14,6 C -12,9 C 3,2 km/h (1 Bft) 100,00 %
07.01.2017 03:30 -13,0 C 87 % 1038,8 hPa 0,0 l/m 1,0 km/h (0 Bft) S-SW 212 0 min 0,000 mm 0,0 UV-I 0 W/m -14,7 C -13,0 C 3,2 km/h (1 Bft) 100,00 %
07.01.2017 03:32 -13,2 C 87 % 1038,8 hPa 0,0 l/m 0,8 km/h (0 Bft) S-SW 212 0 min 0,000 mm 0,0 UV-I 0 W/m -14,9 C -13,2 C 1,6 km/h (1 Bft) 97,92 %
07.01.2017 03:34 -13,2 C 87 % 1038,8 hPa 0,0 l/m 1,2 km/h (1 Bft) S-SW 212 0 min 0,000 mm 0,0 UV-I 0 W/m -14,9 C -13,2 C 3,2 km/h (1 Bft) 100,00 %
07.01.2017 03:36 -13,2 C 88 % 1038,8 hPa 0,0 l/m 1,1 km/h (1 Bft) S-SW 212 0 min 0,000 mm 0,0 UV-I 0 W/m -14,8 C -13,2 C 3,2 km/h (1 Bft) 97,92 %
07.01.2017 03:38 -13,2 C 88 % 1038,7 hPa 0,0 l/m 0,6 km/h (0 Bft) S-SW 212 0 min 0,000 mm 0,0 UV-I 0 W/m -14,8 C -13,2 C 1,6 km/h (1 Bft) 97,87 %
07.01.2017 03:40 -13,2 C 88 % 1038,7 hPa 0,0 l/m 1,4 km/h (1 Bft) S-SW 212 0 min 0,000 mm 0,0 UV-I 0 W/m -14,8 C -13,2 C 3,2 km/h (1 Bft) 100,00 %
07.01.2017 03:42 -13,2 C 88 % 1038,7 hPa 0,0 l/m 1,7 km/h (1 Bft) S-SW 212 0 min 0,000 mm 0,0 UV-I 0 W/m -14,8 C -13,2 C 3,2 km/h (1 Bft) 100,00 %
07.01.2017 03:44 -13,2 C 88 % 1038,7 hPa 0,0 l/m 0,6 km/h (0 Bft) S-SW 212 0 min 0,000 mm 0,0 UV-I 0 W/m -14,8 C -13,2 C 3,2 km/h (1 Bft) 100,00 %
07.01.2017 03:46 -13,2 C 88 % 1038,7 hPa 0,0 l/m 0,2 km/h (0 Bft) S-SW 212 0 min 0,000 mm 0,0 UV-I 0 W/m -14,8 C -13,2 C 1,6 km/h (1 Bft) 100,00 %
07.01.2017 03:48 -13,2 C 88 % 1038,7 hPa 0,0 l/m 0,1 km/h (0 Bft) S-SW 212 0 min 0,000 mm 0,0 UV-I 0 W/m -14,8 C -13,2 C 1,6 km/h (1 Bft) 97,87 %
07.01.2017 03:50 -13,2 C 88 % 1038,7 hPa 0,0 l/m 0,3 km/h (0 Bft) S-SW 212 0 min 0,000 mm 0,0 UV-I 0 W/m -14,8 C -13,2 C 1,6 km/h (1 Bft) 100,00 %
07.01.2017 03:52 -13,3 C 88 % 1038,8 hPa 0,0 l/m 0,3 km/h (0 Bft) S-SW 212 0 min 0,000 mm 0,0 UV-I 0 W/m -14,9 C -13,3 C 1,6 km/h (1 Bft) 100,00 %
07.01.2017 03:54 -13,3 C 88 % 1038,7 hPa 0,0 l/m 0,3 km/h (0 Bft) S-SW 212 0 min 0,000 mm 0,0 UV-I 0 W/m -14,9 C -13,3 C 1,6 km/h (1 Bft) 98,00 %
07.01.2017 03:56 -13,3 C 88 % 1038,7 hPa 0,0 l/m 0,1 km/h (0 Bft) S-SW 212 0 min 0,000 mm 0,0 UV-I 0 W/m -14,9 C -13,3 C 1,6 km/h (1 Bft) 95,12 %
07.01.2017 03:58 -13,2 C 88 % 1038,7 hPa 0,0 l/m 0,0 km/h (0 Bft) S-SW 212 0 min 0,000 mm 0,0 UV-I 0 W/m -14,8 C -13,2 C 0,0 km/h (0 Bft) 96,23 %
07.01.2017 04:00 -13,3 C 88 % 1038,6 hPa 0,0 l/m 0,0 km/h (0 Bft) S-SW 212 0 min 0,000 mm 0,0 UV-I 0 W/m -14,9 C -13,3 C 0,0 km/h (0 Bft) 95,74 %
07.01.2017 04:02 -13,3 C 88 % 1038,7 hPa 0,0 l/m 0,9 km/h (0 Bft) S-SW 212 0 min 0,000 mm 0,0 UV-I 0 W/m -14,9 C -13,3 C 1,6 km/h (1 Bft) 94,74 %
07.01.2017 04:04 -13,3 C 88 % 1038,6 hPa 0,0 l/m 0,2 km/h (0 Bft) S-SW 212 0 min 0,000 mm 0,0 UV-I 0 W/m -14,9 C -13,3 C 1,6 km/h (1 Bft) 97,37 %
07.01.2017 04:06 -13,4 C 88 % 1038,7 hPa 0,0 l/m 0,8 km/h (0 Bft) S-SW 212 0 min 0,000 mm 0,0 UV-I 0 W/m -15,0 C -13,4 C 3,2 km/h (1 Bft) 98,11 %
07.01.2017 04:08 -13,4 C 88 % 1038,7 hPa 0,0 l/m 1,6 km/h (1 Bft) S-SW 212 0 min 0,000 mm 0,0 UV-I 0 W/m -15,0 C -13,4 C 4,8 km/h (1 Bft) 97,87 %
07.01.2017 04:10 -13,4 C 89 % 1038,7 hPa 0,0 l/m 2,5 km/h (1 Bft) S-SW 212 0 min 0,000 mm 0,0 UV-I 0 W/m -14,8 C -13,4 C 3,2 km/h (1 Bft) 94,74 %
07.01.2017 04:12 -13,4 C 89 % 1038,7 hPa 0,0 l/m 2,4 km/h (1 Bft) S-SW 212 0 min 0,000 mm 0,0 UV-I 0 W/m -14,8 C -13,4 C 4,8 km/h (1 Bft) 98,21 %
07.01.2017 04:14 -13,3 C 89 % 1038,7 hPa 0,0 l/m 1,5 km/h (1 Bft) S-SW 201 0 min 0,000 mm 0,0 UV-I 0 W/m -14,7 C -13,3 C 3,2 km/h (1 Bft) 95,74 %
07.01.2017 04:16 -13,3 C 89 % 1038,7 hPa 0,0 l/m 3,2 km/h (1 Bft) S-SW 201 0 min 0,000 mm 0,0 UV-I 0 W/m -14,7 C -13,3 C 4,8 km/h (1 Bft) 97,87 %
07.01.2017 04:18 -13,3 C 89 % 1038,7 hPa 0,0 l/m 4,0 km/h (1 Bft) S-SW 201 0 min 0,000 mm 0,0 UV-I 0 W/m -14,7 C -13,3 C 4,8 km/h (1 Bft) 98,00 %
07.01.2017 04:20 -13,3 C 89 % 1038,7 hPa 0,0 l/m 2,7 km/h (1 Bft) S-SW 201 0 min 0,000 mm 0,0 UV-I 0 W/m -14,7 C -13,3 C 4,8 km/h (1 Bft) 97,62 %
07.01.2017 04:22 -13,3 C 89 % 1038,7 hPa 0,0 l/m 1,4 km/h (1 Bft) S-SW 201 0 min 0,000 mm 0,0 UV-I 0 W/m -14,7 C -13,3 C 3,2 km/h (1 Bft) 97,56 %
07.01.2017 04:24 -13,4 C 89 % 1038,8 hPa 0,0 l/m 0,4 km/h (0 Bft) S-SW 201 0 min 0,000 mm 0,0 UV-I 0 W/m -14,8 C -13,4 C 1,6 km/h (1 Bft) 97,87 %
07.01.2017 04:26 -13,5 C 89 % 1038,7 hPa 0,0 l/m 1,0 km/h (0 Bft) S-SW 201 0 min 0,000 mm 0,0 UV-I 0 W/m -14,9 C -13,5 C 3,2 km/h (1 Bft) 98,00 %
07.01.2017 04:28 -13,6 C 89 % 1038,7 hPa 0,0 l/m 2,5 km/h (1 Bft) S-SW 201 0 min 0,000 mm 0,0 UV-I 0 W/m -15,0 C -13,6 C 4,8 km/h (1 Bft) 98,00 %
07.01.2017 04:30 -13,6 C 89 % 1038,6 hPa 0,0 l/m 3,0 km/h (1 Bft) S-SW 201 0 min 0,000 mm 0,0 UV-I 0 W/m -15,0 C -13,6 C 4,8 km/h (1 Bft) 97,73 %
07.01.2017 04:32 -13,6 C 89 % 1038,6 hPa 0,0 l/m 2,7 km/h (1 Bft) S-SW 201 0 min 0,000 mm 0,0 UV-I 0 W/m -15,0 C -13,6 C 4,8 km/h (1 Bft) 97,87 %
07.01.2017 04:34 -13,5 C 89 % 1038,6 hPa 0,0 l/m 3,0 km/h (1 Bft) S-SW 201 0 min 0,000 mm 0,0 UV-I 0 W/m -14,9 C -13,5 C 4,8 km/h (1 Bft) 100,00 %
07.01.2017 04:36 -13,4 C 89 % 1038,6 hPa 0,0 l/m 3,6 km/h (1 Bft) S-SW 201 0 min 0,000 mm 0,0 UV-I 0 W/m -14,8 C -13,4 C 4,8 km/h (1 Bft) 100,00 %
07.01.2017 04:38 -13,4 C 89 % 1038,6 hPa 0,0 l/m 3,3 km/h (1 Bft) S-SW 202 0 min 0,000 mm 0,0 UV-I 0 W/m -14,8 C -13,4 C 4,8 km/h (1 Bft) 100,00 %
07.01.2017 04:40 -13,4 C 89 % 1038,6 hPa 0,0 l/m 3,2 km/h (1 Bft) S-SW 202 0 min 0,000 mm 0,0 UV-I 0 W/m -14,8 C -13,4 C 4,8 km/h (1 Bft) 100,00 %
07.01.2017 04:42 -13,4 C 89 % 1038,6 hPa 0,0 l/m 2,2 km/h (1 Bft) S-SW 202 0 min 0,000 mm 0,0 UV-I 0 W/m -14,8 C -13,4 C 3,2 km/h (1 Bft) 100,00 %
07.01.2017 04:44 -13,4 C 89 % 1038,6 hPa 0,0 l/m 2,3 km/h (1 Bft) S-SW 202 0 min 0,000 mm 0,0 UV-I 0 W/m -14,8 C -13,4 C 3,2 km/h (1 Bft) 58,00 %
07.01.2017 04:46 -13,4 C 89 % 1038,6 hPa 0,0 l/m 1,5 km/h (1 Bft) S-SW 202 0 min 0,000 mm 0,0 UV-I 0 W/m -14,8 C -13,4 C 3,2 km/h (1 Bft) 100,00 %
07.01.2017 04:48 -13,4 C 89 % 1038,6 hPa 0,0 l/m 0,9 km/h (0 Bft) S-SW 202 0 min 0,000 mm 0,0 UV-I 0 W/m -14,8 C -13,4 C 3,2 km/h (1 Bft) 98,21 %
07.01.2017 04:50 -13,4 C 89 % 1038,6 hPa 0,0 l/m 0,7 km/h (0 Bft) S-SW 202 0 min 0,000 mm 0,0 UV-I 0 W/m -14,8 C -13,4 C 3,2 km/h (1 Bft) 100,00 %
07.01.2017 04:52 -13,4 C 89 % 1038,6 hPa 0,0 l/m 0,2 km/h (0 Bft) S-SW 202 0 min 0,000 mm 0,0 UV-I 0 W/m -14,8 C -13,4 C 1,6 km/h (1 Bft) 100,00 %
07.01.2017 04:54 -13,5 C 89 % 1038,6 hPa 0,0 l/m 0,4 km/h (0 Bft) S-SW 202 0 min 0,000 mm 0,0 UV-I 0 W/m -14,9 C -13,5 C 1,6 km/h (1 Bft) 100,00 %
07.01.2017 04:56 -13,5 C 89 % 1038,6 hPa 0,0 l/m 0,9 km/h (0 Bft) S-SW 202 0 min 0,000 mm 0,0 UV-I 0 W/m -14,9 C -13,5 C 3,2 km/h (1 Bft) 100,00 %
07.01.2017 04:58 -13,4 C 89 % 1038,5 hPa 0,0 l/m 1,5 km/h (1 Bft) S-SW 202 0 min 0,000 mm 0,0 UV-I 0 W/m -14,8 C -13,4 C 3,2 km/h (1 Bft) 100,00 %
07.01.2017 05:00 -13,4 C 89 % 1038,5 hPa 0,0 l/m 2,1 km/h (1 Bft) S-SW 200 0 min 0,000 mm 0,0 UV-I 0 W/m -14,8 C -13,4 C 3,2 km/h (1 Bft) 100,00 %
07.01.2017 05:02 -13,4 C 89 % 1038,5 hPa 0,0 l/m 1,4 km/h (1 Bft) S-SW 199 0 min 0,000 mm 0,0 UV-I 0 W/m -14,8 C -13,4 C 3,2 km/h (1 Bft) 97,87 %
07.01.2017 05:04 -13,4 C 89 % 1038,6 hPa 0,0 l/m 1,7 km/h (1 Bft) S-SW 199 0 min 0,000 mm 0,0 UV-I 0 W/m -14,8 C -13,4 C 3,2 km/h (1 Bft) 100,00 %
07.01.2017 05:06 -13,3 C 89 % 1038,6 hPa 0,0 l/m 3,3 km/h (1 Bft) S-SW 212 0 min 0,000 mm 0,0 UV-I 0 W/m -14,7 C -13,3 C 6,4 km/h (2 Bft) 100,00 %
07.01.2017 05:08 -13,2 C 89 % 1038,6 hPa 0,0 l/m 3,9 km/h (1 Bft) S-SW 212 0 min 0,000 mm 0,0 UV-I 0 W/m -14,6 C -13,2 C 4,8 km/h (1 Bft) 100,00 %
07.01.2017 05:10 -13,2 C 89 % 1038,6 hPa 0,0 l/m 3,1 km/h (1 Bft) S-SW 212 0 min 0,000 mm 0,0 UV-I 0 W/m -14,6 C -13,2 C 4,8 km/h (1 Bft) 100,00 %
07.01.2017 05:12 -13,2 C 89 % 1038,6 hPa 0,0 l/m 2,2 km/h (1 Bft) S-SW 212 0 min 0,000 mm 0,0 UV-I 0 W/m -14,6 C -13,2 C 3,2 km/h (1 Bft) 100,00 %
07.01.2017 05:14 -13,2 C 89 % 1038,6 hPa 0,0 l/m 1,1 km/h (1 Bft) S-SW 212 0 min 0,000 mm 0,0 UV-I 0 W/m -14,6 C -13,2 C 3,2 km/h (1 Bft) 100,00 %
07.01.2017 05:16 -13,2 C 89 % 1038,6 hPa 0,0 l/m 0,8 km/h (0 Bft) S-SW 212 0 min 0,000 mm 0,0 UV-I 0 W/m -14,6 C -13,2 C 1,6 km/h (1 Bft) 100,00 %
07.01.2017 05:18 -13,3 C 89 % 1038,6 hPa 0,0 l/m 1,9 km/h (1 Bft) S-SW 212 0 min 0,000 mm 0,0 UV-I 0 W/m -14,7 C -13,3 C 3,2 km/h (1 Bft) 100,00 %
07.01.2017 05:20 -13,3 C 89 % 1038,6 hPa 0,0 l/m 1,6 km/h (1 Bft) S-SW 212 0 min 0,000 mm 0,0 UV-I 0 W/m -14,7 C -13,3 C 3,2 km/h (1 Bft) 100,00 %
07.01.2017 05:22 -13,4 C 88 % 1038,6 hPa 0,0 l/m 0,2 km/h (0 Bft) S-SW 212 0 min 0,000 mm 0,0 UV-I 0 W/m -15,0 C -13,4 C 1,6 km/h (1 Bft) 98,00 %
07.01.2017 05:24 -13,6 C 89 % 1038,6 hPa 0,0 l/m 1,2 km/h (1 Bft) SW 223 0 min 0,000 mm 0,0 UV-I 0 W/m -15,0 C -13,6 C 3,2 km/h (1 Bft) 100,00 %
07.01.2017 05:26 -13,7 C 89 % 1038,6 hPa 0,0 l/m 1,1 km/h (1 Bft) SW 223 0 min 0,000 mm 0,0 UV-I 0 W/m -15,1 C -13,7 C 3,2 km/h (1 Bft) 97,73 %
07.01.2017 05:28 -13,7 C 89 % 1038,6 hPa 0,0 l/m 0,0 km/h (0 Bft) SW 223 0 min 0,000 mm 0,0 UV-I 0 W/m -15,1 C -13,7 C 0,0 km/h (0 Bft) 100,00 %
07.01.2017 05:30 -13,7 C 89 % 1038,6 hPa 0,0 l/m 1,1 km/h (1 Bft) SW 223 0 min 0,000 mm 0,0 UV-I 0 W/m -15,1 C -13,7 C 1,6 km/h (1 Bft) 100,00 %
07.01.2017 05:32 -13,6 C 90 % 1038,6 hPa 0,0 l/m 0,5 km/h (0 Bft) SW 223 0 min 0,000 mm 0,0 UV-I 0 W/m -14,9 C -13,6 C 1,6 km/h (1 Bft) 100,00 %
07.01.2017 05:34 -13,6 C 89 % 1038,6 hPa 0,0 l/m 1,1 km/h (1 Bft) SW 223 0 min 0,000 mm 0,0 UV-I 0 W/m -15,0 C -13,6 C 3,2 km/h (1 Bft) 100,00 %
07.01.2017 05:36 -13,7 C 89 % 1038,5 hPa 0,0 l/m 0,5 km/h (0 Bft) SW 223 0 min 0,000 mm 0,0 UV-I 0 W/m -15,1 C -13,7 C 1,6 km/h (1 Bft) 97,44 %
07.01.2017 05:38 -13,7 C 89 % 1038,5 hPa 0,0 l/m 1,7 km/h (1 Bft) SW 223 0 min 0,000 mm 0,0 UV-I 0 W/m -15,1 C -13,7 C 3,2 km/h (1 Bft) 100,00 %
07.01.2017 05:40 -13,8 C 89 % 1038,5 hPa 0,0 l/m 1,1 km/h (1 Bft) SW 221 0 min 0,000 mm 0,0 UV-I 0 W/m -15,2 C -13,8 C 3,2 km/h (1 Bft) 100,00 %
07.01.2017 05:42 -13,8 C 89 % 1038,5 hPa 0,0 l/m 1,7 km/h (1 Bft) S-SW 195 0 min 0,000 mm 0,0 UV-I 0 W/m -15,2 C -13,8 C 4,8 km/h (1 Bft) 100,00 %
07.01.2017 05:44 -13,9 C 89 % 1038,5 hPa 0,0 l/m 0,9 km/h (0 Bft) S-SW 195 0 min 0,000 mm 0,0 UV-I 0 W/m -15,3 C -13,9 C 1,6 km/h (1 Bft) 100,00 %
07.01.2017 05:46 -14,0 C 89 % 1038,6 hPa 0,0 l/m 1,2 km/h (1 Bft) S-SW 195 0 min 0,000 mm 0,0 UV-I 0 W/m -15,4 C -14,0 C 3,2 km/h (1 Bft) 100,00 %
07.01.2017 05:48 -13,9 C 89 % 1038,6 hPa 0,0 l/m 2,1 km/h (1 Bft) S-SW 195 0 min 0,000 mm 0,0 UV-I 0 W/m -15,3 C -13,9 C 3,2 km/h (1 Bft) 100,00 %
07.01.2017 05:50 -14,0 C 89 % 1038,6 hPa 0,0 l/m 2,2 km/h (1 Bft) S-SW 195 0 min 0,000 mm 0,0 UV-I 0 W/m -15,4 C -14,0 C 4,8 km/h (1 Bft) 100,00 %
07.01.2017 05:52 -13,9 C 89 % 1038,6 hPa 0,0 l/m 1,2 km/h (1 Bft) S-SW 195 0 min 0,000 mm 0,0 UV-I 0 W/m -15,3 C -13,9 C 3,2 km/h (1 Bft) 100,00 %
07.01.2017 05:54 -13,9 C 89 % 1038,6 hPa 0,0 l/m 1,5 km/h (1 Bft) S-SW 195 0 min 0,000 mm 0,0 UV-I 0 W/m -15,3 C -13,9 C 3,2 km/h (1 Bft) 98,00 %
07.01.2017 05:56 -13,8 C 90 % 1038,5 hPa 0,0 l/m 1,4 km/h (1 Bft) S-SW 195 0 min 0,000 mm 0,0 UV-I 0 W/m -15,1 C -13,8 C 3,2 km/h (1 Bft) 97,56 %
07.01.2017 05:58 -13,8 C 90 % 1038,5 hPa 0,0 l/m 2,3 km/h (1 Bft) S-SW 194 0 min 0,000 mm 0,0 UV-I 0 W/m -15,1 C -13,8 C 4,8 km/h (1 Bft) 95,74 %
07.01.2017 06:00 -13,7 C 90 % 1038,6 hPa 0,0 l/m 3,1 km/h (1 Bft) S-SW 202 0 min 0,000 mm 0,0 UV-I 0 W/m -15,0 C -13,7 C 6,4 km/h (2 Bft) 95,56 %
07.01.2017 06:02 -13,6 C 90 % 1038,6 hPa 0,0 l/m 3,2 km/h (1 Bft) S-SW 202 0 min 0,000 mm 0,0 UV-I 0 W/m -14,9 C -13,6 C 4,8 km/h (1 Bft) 98,00 %
07.01.2017 06:04 -13,7 C 89 % 1038,6 hPa 0,0 l/m 0,3 km/h (0 Bft) S-SW 202 0 min 0,000 mm 0,0 UV-I 0 W/m -15,1 C -13,7 C 1,6 km/h (1 Bft) 96,00 %
07.01.2017 06:06 -13,6 C 89 % 1038,6 hPa 0,0 l/m 0,4 km/h (0 Bft) S-SW 202 0 min 0,000 mm 0,0 UV-I 0 W/m -15,0 C -13,6 C 1,6 km/h (1 Bft) 94,74 %
07.01.2017 06:08 -13,6 C 90 % 1038,6 hPa 0,0 l/m 0,4 km/h (0 Bft) S-SW 202 0 min 0,000 mm 0,0 UV-I 0 W/m -14,9 C -13,6 C 1,6 km/h (1 Bft) 97,87 %
07.01.2017 06:10 -13,6 C 89 % 1038,6 hPa 0,0 l/m 0,3 km/h (0 Bft) S-SW 202 0 min 0,000 mm 0,0 UV-I 0 W/m -15,0 C -13,6 C 1,6 km/h (1 Bft) 98,11 %
07.01.2017 06:12 -13,6 C 89 % 1038,6 hPa 0,0 l/m 1,4 km/h (1 Bft) S-SW 202 0 min 0,000 mm 0,0 UV-I 0 W/m -15,0 C -13,6 C 3,2 km/h (1 Bft) 93,62 %
07.01.2017 06:14 -13,5 C 90 % 1038,5 hPa 0,0 l/m 1,3 km/h (1 Bft) S-SW 202 0 min 0,000 mm 0,0 UV-I 0 W/m -14,8 C -13,5 C 3,2 km/h (1 Bft) 97,37 %
07.01.2017 06:16 -13,5 C 90 % 1038,6 hPa 0,0 l/m 1,3 km/h (1 Bft) S-SW 202 0 min 0,000 mm 0,0 UV-I 0 W/m -14,8 C -13,5 C 3,2 km/h (1 Bft) 94,34 %
07.01.2017 06:18 -13,5 C 90 % 1038,5 hPa 0,0 l/m 1,5 km/h (1 Bft) S-SW 202 0 min 0,000 mm 0,0 UV-I 0 W/m -14,8 C -13,5 C 3,2 km/h (1 Bft) 100,00 %
07.01.2017 06:20 -13,6 C 89 % 1038,5 hPa 0,0 l/m 2,5 km/h (1 Bft) S-SW 202 0 min 0,000 mm 0,0 UV-I 0 W/m -15,0 C -13,6 C 3,2 km/h (1 Bft) 96,23 %
07.01.2017 06:22 -13,6 C 89 % 1038,5 hPa 0,0 l/m 2,5 km/h (1 Bft) S-SW 202 0 min 0,000 mm 0,0 UV-I 0 W/m -15,0 C -13,6 C 4,8 km/h (1 Bft) 97,37 %
07.01.2017 06:24 -13,7 C 89 % 1038,6 hPa 0,0 l/m 2,6 km/h (1 Bft) S-SW 202 0 min 0,000 mm 0,0 UV-I 0 W/m -15,1 C -13,7 C 4,8 km/h (1 Bft) 98,11 %
07.01.2017 06:26 -13,8 C 89 % 1038,5 hPa 0,0 l/m 3,0 km/h (1 Bft) S-SW 202 0 min 0,000 mm 0,0 UV-I 0 W/m -15,2 C -13,8 C 3,2 km/h (1 Bft) 97,87 %
07.01.2017 06:28 -13,8 C 89 % 1038,5 hPa 0,0 l/m 3,1 km/h (1 Bft) S-SW 202 0 min 0,000 mm 0,0 UV-I 0 W/m -15,2 C -13,8 C 4,8 km/h (1 Bft) 97,87 %
07.01.2017 06:30 -13,8 C 89 % 1038,5 hPa 0,0 l/m 3,1 km/h (1 Bft) S-SW 202 0 min 0,000 mm 0,0 UV-I 0 W/m -15,2 C -13,8 C 4,8 km/h (1 Bft) 97,87 %
07.01.2017 06:32 -13,9 C 89 % 1038,4 hPa 0,0 l/m 3,3 km/h (1 Bft) S-SW 202 0 min 0,000 mm 0,0 UV-I 0 W/m -15,3 C -13,9 C 4,8 km/h (1 Bft) 93,62 %
07.01.2017 06:34 -14,0 C 89 % 1038,4 hPa 0,0 l/m 4,3 km/h (1 Bft) S-SW 202 0 min 0,000 mm 0,0 UV-I 0 W/m -15,4 C -14,0 C 6,4 km/h (2 Bft) 100,00 %
07.01.2017 06:36 -14,1 C 89 % 1038,5 hPa 0,0 l/m 3,8 km/h (1 Bft) S-SW 202 0 min 0,000 mm 0,0 UV-I 0 W/m -15,5 C -14,1 C 4,8 km/h (1 Bft) 100,00 %
07.01.2017 06:38 -14,2 C 89 % 1038,6 hPa 0,0 l/m 3,8 km/h (1 Bft) S-SW 202 0 min 0,000 mm 0,0 UV-I 0 W/m -15,6 C -14,2 C 4,8 km/h (1 Bft) 98,00 %
07.01.2017 06:40 -14,3 C 89 % 1038,5 hPa 0,0 l/m 3,3 km/h (1 Bft) S-SW 202 0 min 0,000 mm 0,0 UV-I 0 W/m -15,7 C -14,3 C 4,8 km/h (1 Bft) 100,00 %
07.01.2017 06:42 -14,3 C 89 % 1038,5 hPa 0,0 l/m 2,7 km/h (1 Bft) S-SW 202 0 min 0,000 mm 0,0 UV-I 0 W/m -15,7 C -14,3 C 4,8 km/h (1 Bft) 100,00 %
07.01.2017 06:44 -14,4 C 90 % 1038,5 hPa 0,0 l/m 3,0 km/h (1 Bft) S-SW 202 0 min 0,000 mm 0,0 UV-I 0 W/m -15,7 C -14,4 C 4,8 km/h (1 Bft) 100,00 %
07.01.2017 06:46 -14,4 C 90 % 1038,4 hPa 0,0 l/m 3,6 km/h (1 Bft) S-SW 202 0 min 0,000 mm 0,0 UV-I 0 W/m -15,7 C -14,4 C 4,8 km/h (1 Bft) 100,00 %
07.01.2017 06:48 -14,4 C 90 % 1038,4 hPa 0,0 l/m 3,1 km/h (1 Bft) S-SW 202 0 min 0,000 mm 0,0 UV-I 0 W/m -15,7 C -14,4 C 4,8 km/h (1 Bft) 100,00 %
07.01.2017 06:50 -14,4 C 90 % 1038,4 hPa 0,0 l/m 3,1 km/h (1 Bft) S-SW 202 0 min 0,000 mm 0,0 UV-I 0 W/m -15,7 C -14,4 C 4,8 km/h (1 Bft) 97,87 %
07.01.2017 06:52 -14,3 C 90 % 1038,4 hPa 0,0 l/m 2,0 km/h (1 Bft) S-SW 202 0 min 0,000 mm 0,0 UV-I 0 W/m -15,6 C -14,3 C 3,2 km/h (1 Bft) 100,00 %
07.01.2017 06:54 -14,4 C 90 % 1038,4 hPa 0,0 l/m 0,8 km/h (0 Bft) S-SW 202 0 min 0,000 mm 0,0 UV-I 0 W/m -15,7 C -14,4 C 3,2 km/h (1 Bft) 100,00 %
07.01.2017 06:56 -14,4 C 90 % 1038,4 hPa 0,0 l/m 1,1 km/h (1 Bft) S-SW 202 0 min 0,000 mm 0,0 UV-I 0 W/m -15,7 C -14,4 C 4,8 km/h (1 Bft) 100,00 %
07.01.2017 06:58 -14,5 C 90 % 1038,3 hPa 0,0 l/m 2,2 km/h (1 Bft) S 185 0 min 0,000 mm 0,0 UV-I 0 W/m -15,8 C -14,5 C 4,8 km/h (1 Bft) 100,00 %
07.01.2017 07:00 -14,5 C 90 % 1038,3 hPa 0,0 l/m 2,2 km/h (1 Bft) S 180 0 min 0,000 mm 0,0 UV-I 0 W/m -15,8 C -14,5 C 3,2 km/h (1 Bft) 100,00 %
07.01.2017 07:02 -14,5 C 90 % 1038,3 hPa 0,0 l/m 2,0 km/h (1 Bft) S 177 0 min 0,000 mm 0,0 UV-I 0 W/m -15,8 C -14,5 C 4,8 km/h (1 Bft) 100,00 %
07.01.2017 07:04 -14,4 C 90 % 1038,3 hPa 0,0 l/m 2,6 km/h (1 Bft) S 171 0 min 0,000 mm 0,0 UV-I 0 W/m -15,7 C -14,4 C 6,4 km/h (2 Bft) 94,23 %
07.01.2017 07:06 -14,3 C 91 % 1038,3 hPa 0,0 l/m 2,3 km/h (1 Bft) S 171 0 min 0,000 mm 0,0 UV-I 0 W/m -15,4 C -14,3 C 6,4 km/h (2 Bft) 100,00 %
07.01.2017 07:08 -14,3 C 91 % 1038,2 hPa 0,0 l/m 3,1 km/h (1 Bft) S 171 0 min 0,000 mm 0,0 UV-I 0 W/m -15,4 C -14,3 C 6,4 km/h (2 Bft) 100,00 %
07.01.2017 07:10 -14,2 C 91 % 1038,2 hPa 0,0 l/m 2,9 km/h (1 Bft) S 171 0 min 0,000 mm 0,0 UV-I 0 W/m -15,3 C -14,2 C 6,4 km/h (2 Bft) 100,00 %
07.01.2017 07:12 -14,2 C 90 % 1038,2 hPa 0,0 l/m 3,4 km/h (1 Bft) S 173 0 min 0,000 mm 0,0 UV-I 0 W/m -15,5 C -14,2 C 8,0 km/h (2 Bft) 100,00 %
07.01.2017 07:14 -14,1 C 90 % 1038,2 hPa 0,0 l/m 3,1 km/h (1 Bft) S 173 0 min 0,000 mm 0,0 UV-I 0 W/m -15,4 C -14,1 C 4,8 km/h (1 Bft) 100,00 %
07.01.2017 07:16 -14,2 C 90 % 1038,2 hPa 0,0 l/m 4,0 km/h (1 Bft) S-SW 192 0 min 0,000 mm 0,0 UV-I 0 W/m -15,5 C -14,2 C 4,8 km/h (1 Bft) 97,87 %
07.01.2017 07:18 -14,2 C 90 % 1038,1 hPa 0,0 l/m 3,3 km/h (1 Bft) S-SW 194 0 min 0,000 mm 0,0 UV-I 0 W/m -15,5 C -14,2 C 4,8 km/h (1 Bft) 100,00 %
07.01.2017 07:20 -14,2 C 90 % 1038,2 hPa 0,0 l/m 2,9 km/h (1 Bft) S-SW 194 0 min 0,000 mm 0,0 UV-I 0 W/m -15,5 C -14,2 C 4,8 km/h (1 Bft) 100,00 %
07.01.2017 07:22 -14,2 C 90 % 1038,1 hPa 0,0 l/m 2,9 km/h (1 Bft) S-SW 194 0 min 0,000 mm 0,0 UV-I 0 W/m -15,5 C -14,2 C 4,8 km/h (1 Bft) 100,00 %
07.01.2017 07:24 -14,3 C 90 % 1038,1 hPa 0,0 l/m 3,0 km/h (1 Bft) S-SW 194 0 min 0,000 mm 0,0 UV-I 0 W/m -15,6 C -14,3 C 4,8 km/h (1 Bft) 100,00 %
07.01.2017 07:26 -14,3 C 90 % 1038,1 hPa 0,0 l/m 3,0 km/h (1 Bft) S-SW 194 0 min 0,000 mm 0,0 UV-I 0 W/m -15,6 C -14,3 C 4,8 km/h (1 Bft) 100,00 %
07.01.2017 07:28 -14,3 C 90 % 1038,1 hPa 0,0 l/m 2,5 km/h (1 Bft) S-SW 192 0 min 0,000 mm 0,0 UV-I 0 W/m -15,6 C -14,3 C 3,2 km/h (1 Bft) 100,00 %
07.01.2017 07:30 -14,3 C 90 % 1038,2 hPa 0,0 l/m 2,7 km/h (1 Bft) S-SW 192 0 min 0,000 mm 0,0 UV-I 0 W/m -15,6 C -14,3 C 4,8 km/h (1 Bft) 100,00 %
07.01.2017 07:32 -14,3 C 90 % 1038,2 hPa 0,0 l/m 3,0 km/h (1 Bft) S-SW 192 0 min 0,000 mm 0,0 UV-I 0 W/m -15,6 C -14,3 C 4,8 km/h (1 Bft) 100,00 %
07.01.2017 07:34 -14,3 C 90 % 1038,2 hPa 0,0 l/m 2,5 km/h (1 Bft) S-SW 192 0 min 0,000 mm 0,0 UV-I 0 W/m -15,6 C -14,3 C 3,2 km/h (1 Bft) 97,87 %
07.01.2017 07:36 -14,3 C 90 % 1038,2 hPa 0,0 l/m 1,9 km/h (1 Bft) S-SW 192 0 min 0,000 mm 0,0 UV-I 0 W/m -15,6 C -14,3 C 3,2 km/h (1 Bft) 100,00 %
07.01.2017 07:38 -14,3 C 90 % 1038,2 hPa 0,0 l/m 3,1 km/h (1 Bft) S-SW 192 0 min 0,000 mm 0,0 UV-I 5 W/m -15,6 C -14,3 C 4,8 km/h (1 Bft) 98,00 %
07.01.2017 07:40 -14,3 C 90 % 1038,2 hPa 0,0 l/m 2,7 km/h (1 Bft) S-SW 192 0 min 0,000 mm 0,0 UV-I 5 W/m -15,6 C -14,3 C 3,2 km/h (1 Bft) 100,00 %
07.01.2017 07:42 -14,3 C 90 % 1038,2 hPa 0,0 l/m 1,0 km/h (0 Bft) S-SW 192 0 min 0,000 mm 0,0 UV-I 5 W/m -15,6 C -14,3 C 1,6 km/h (1 Bft) 97,87 %
07.01.2017 07:44 -14,4 C 90 % 1038,2 hPa 0,0 l/m 3,0 km/h (1 Bft) S-SW 192 0 min 0,000 mm 0,0 UV-I 5 W/m -15,7 C -14,4 C 4,8 km/h (1 Bft) 100,00 %
07.01.2017 07:46 -14,4 C 90 % 1038,2 hPa 0,0 l/m 3,0 km/h (1 Bft) S-SW 192 0 min 0,000 mm 0,0 UV-I 5 W/m -15,7 C -14,4 C 4,8 km/h (1 Bft) 100,00 %
07.01.2017 07:48 -14,5 C 90 % 1038,2 hPa 0,0 l/m 3,3 km/h (1 Bft) S-SW 192 0 min 0,000 mm 0,0 UV-I 7 W/m -15,8 C -14,5 C 4,8 km/h (1 Bft) 97,14 %
07.01.2017 07:50 -14,6 C 90 % 1038,3 hPa 0,0 l/m 3,1 km/h (1 Bft) S-SW 192 0 min 0,000 mm 0,0 UV-I 7 W/m -15,9 C -14,6 C 4,8 km/h (1 Bft) 100,00 %
07.01.2017 07:52 -14,6 C 90 % 1038,3 hPa 0,0 l/m 3,2 km/h (1 Bft) S-SW 192 0 min 0,000 mm 0,0 UV-I 7 W/m -15,9 C -14,6 C 4,8 km/h (1 Bft) 100,00 %
07.01.2017 07:54 -14,7 C 90 % 1038,4 hPa 0,0 l/m 3,9 km/h (1 Bft) S-SW 192 0 min 0,000 mm 0,0 UV-I 9 W/m -16,0 C -14,7 C 6,4 km/h (2 Bft) 100,00 %
07.01.2017 07:56 -14,7 C 90 % 1038,3 hPa 0,0 l/m 2,5 km/h (1 Bft) S-SW 192 0 min 0,000 mm 0,0 UV-I 9 W/m -16,0 C -14,7 C 4,8 km/h (1 Bft) 100,00 %
07.01.2017 07:58 -14,7 C 90 % 1038,4 hPa 0,0 l/m 1,1 km/h (1 Bft) S-SW 192 0 min 0,000 mm 0,0 UV-I 9 W/m -16,0 C -14,7 C 1,6 km/h (1 Bft) 97,87 %
07.01.2017 08:00 -14,8 C 90 % 1038,3 hPa 0,0 l/m 1,6 km/h (1 Bft) S-SW 192 0 min 0,000 mm 0,0 UV-I 11 W/m -16,1 C -14,8 C 4,8 km/h (1 Bft) 100,00 %
07.01.2017 08:02 -14,8 C 90 % 1038,3 hPa 0,0 l/m 0,5 km/h (0 Bft) S-SW 192 0 min 0,000 mm 0,0 UV-I 11 W/m -16,1 C -14,8 C 1,6 km/h (1 Bft) 98,00 %
07.01.2017 08:04 -14,8 C 90 % 1038,3 hPa 0,0 l/m 2,4 km/h (1 Bft) S-SW 192 0 min 0,000 mm 0,0 UV-I 12 W/m -16,1 C -14,8 C 4,8 km/h (1 Bft) 100,00 %
07.01.2017 08:06 -14,8 C 90 % 1038,3 hPa 0,0 l/m 2,2 km/h (1 Bft) S-SW 192 2 min 0,000 mm 0,0 UV-I 13 W/m -16,1 C -14,8 C 4,8 km/h (1 Bft) 100,00 %
07.01.2017 08:08 -14,8 C 90 % 1038,3 hPa 0,0 l/m 3,5 km/h (1 Bft) S-SW 192 2 min 0,000 mm 0,0 UV-I 14 W/m -16,1 C -14,8 C 4,8 km/h (1 Bft) 98,00 %
07.01.2017 08:10 -14,8 C 90 % 1038,4 hPa 0,0 l/m 2,4 km/h (1 Bft) S-SW 193 2 min 0,000 mm 0,0 UV-I 15 W/m -16,1 C -14,8 C 4,8 km/h (1 Bft) 97,73 %
07.01.2017 08:12 -14,7 C 90 % 1038,4 hPa 0,0 l/m 2,4 km/h (1 Bft) S-SW 193 0 min 0,000 mm 0,0 UV-I 16 W/m -16,0 C -14,7 C 3,2 km/h (1 Bft) 97,87 %
07.01.2017 08:14 -14,7 C 90 % 1038,5 hPa 0,0 l/m 2,1 km/h (1 Bft) S-SW 193 0 min 0,000 mm 0,0 UV-I 17 W/m -16,0 C -14,7 C 3,2 km/h (1 Bft) 96,00 %
07.01.2017 08:16 -14,6 C 90 % 1038,5 hPa 0,0 l/m 2,7 km/h (1 Bft) S-SW 193 0 min 0,000 mm 0,0 UV-I 18 W/m -15,9 C -14,6 C 4,8 km/h (1 Bft) 96,00 %
07.01.2017 08:18 -14,6 C 90 % 1038,4 hPa 0,0 l/m 3,0 km/h (1 Bft) S-SW 193 0 min 0,000 mm 0,0 UV-I 22 W/m -15,9 C -14,6 C 4,8 km/h (1 Bft) 100,00 %
07.01.2017 08:20 -14,6 C 90 % 1038,4 hPa 0,0 l/m 4,1 km/h (1 Bft) S-SW 193 2 min 0,000 mm 0,0 UV-I 38 W/m -15,9 C -14,6 C 6,4 km/h (2 Bft) 95,92 %
07.01.2017 08:22 -14,6 C 90 % 1038,4 hPa 0,0 l/m 2,3 km/h (1 Bft) S-SW 192 2 min 0,000 mm 0,0 UV-I 52 W/m -15,9 C -14,6 C 4,8 km/h (1 Bft) 97,78 %
07.01.2017 08:24 -14,7 C 90 % 1038,4 hPa 0,0 l/m 1,2 km/h (1 Bft) S-SW 193 2 min 0,000 mm 0,0 UV-I 58 W/m -16,0 C -14,7 C 3,2 km/h (1 Bft) 98,00 %
07.01.2017 08:26 -14,7 C 90 % 1038,4 hPa 0,0 l/m 1,7 km/h (1 Bft) S-SW 193 2 min 0,000 mm 0,0 UV-I 64 W/m -16,0 C -14,7 C 3,2 km/h (1 Bft) 96,15 %
07.01.2017 08:28 -14,7 C 90 % 1038,4 hPa 0,0 l/m 2,1 km/h (1 Bft) S-SW 193 2 min 0,000 mm 0,0 UV-I 69 W/m -16,0 C -14,7 C 4,8 km/h (1 Bft) 95,83 %
07.01.2017 08:30 -14,8 C 90 % 1038,4 hPa 0,0 l/m 1,6 km/h (1 Bft) S-SW 193 2 min 0,000 mm 0,0 UV-I 73 W/m -16,1 C -14,8 C 4,8 km/h (1 Bft) 97,87 %
07.01.2017 08:32 -14,8 C 90 % 1038,4 hPa 0,0 l/m 2,2 km/h (1 Bft) S-SW 193 2 min 0,000 mm 0,0 UV-I 78 W/m -16,1 C -14,8 C 3,2 km/h (1 Bft) 94,29 %
07.01.2017 08:34 -14,7 C 90 % 1038,4 hPa 0,0 l/m 2,0 km/h (1 Bft) S-SW 193 2 min 0,000 mm 0,0 UV-I 82 W/m -16,0 C -14,7 C 3,2 km/h (1 Bft) 98,11 %
07.01.2017 08:36 -14,6 C 90 % 1038,3 hPa 0,0 l/m 3,4 km/h (1 Bft) S-SW 194 2 min 0,000 mm 0,0 UV-I 85 W/m -15,9 C -14,6 C 4,8 km/h (1 Bft) 97,56 %
07.01.2017 08:38 -14,4 C 90 % 1038,4 hPa 0,0 l/m 3,1 km/h (1 Bft) S-SW 194 2 min 0,000 mm 0,0 UV-I 89 W/m -15,7 C -14,4 C 4,8 km/h (1 Bft) 94,00 %
07.01.2017 08:40 -14,3 C 90 % 1038,3 hPa 0,0 l/m 2,1 km/h (1 Bft) S-SW 194 2 min 0,000 mm 0,0 UV-I 93 W/m -15,6 C -14,3 C 3,2 km/h (1 Bft) 98,00 %
07.01.2017 08:42 -14,2 C 90 % 1038,3 hPa 0,0 l/m 4,2 km/h (1 Bft) SW 219 2 min 0,000 mm 0,0 UV-I 97 W/m -15,5 C -14,2 C 6,4 km/h (2 Bft) 94,00 %
07.01.2017 08:44 -14,2 C 90 % 1038,3 hPa 0,0 l/m 3,8 km/h (1 Bft) SW 219 2 min 0,000 mm 0,0 UV-I 102 W/m -15,5 C -14,2 C 6,4 km/h (2 Bft) 95,74 %
07.01.2017 08:46 -14,2 C 90 % 1038,2 hPa 0,0 l/m 5,2 km/h (1 Bft) S-SW 212 2 min 0,000 mm 0,0 UV-I 106 W/m -15,5 C -14,2 C 8,0 km/h (2 Bft) 97,37 %
07.01.2017 08:48 -14,2 C 90 % 1038,3 hPa 0,0 l/m 4,9 km/h (1 Bft) S-SW 213 2 min 0,000 mm 0,0 UV-I 112 W/m -15,5 C -14,2 C 8,0 km/h (2 Bft) 100,00 %
07.01.2017 08:50 -13,9 C 90 % 1038,3 hPa 0,0 l/m 3,9 km/h (1 Bft) SW 219 2 min 0,000 mm 0,0 UV-I 116 W/m -15,2 C -13,9 C 6,4 km/h (2 Bft) 97,37 %
07.01.2017 08:52 -13,8 C 90 % 1038,2 hPa 0,0 l/m 5,4 km/h (1 Bft) S-SW 206 2 min 0,000 mm 0,0 UV-I 120 W/m -15,1 C -13,8 C 8,0 km/h (2 Bft) 100,00 %
07.01.2017 08:54 -13,8 C 90 % 1038,2 hPa 0,0 l/m 2,0 km/h (1 Bft) S-SW 206 2 min 0,000 mm 0,0 UV-I 124 W/m -15,1 C -13,8 C 4,8 km/h (1 Bft) 100,00 %
07.01.2017 08:56 -13,9 C 89 % 1038,2 hPa 0,0 l/m 0,9 km/h (0 Bft) S-SW 206 2 min 0,000 mm 0,0 UV-I 129 W/m -15,3 C -13,9 C 3,2 km/h (1 Bft) 100,00 %
07.01.2017 08:58 -13,8 C 89 % 1038,3 hPa 0,0 l/m 2,4 km/h (1 Bft) S-SW 206 2 min 0,000 mm 0,0 UV-I 133 W/m -15,2 C -13,8 C 4,8 km/h (1 Bft) 100,00 %
07.01.2017 09:00 -13,7 C 90 % 1038,2 hPa 0,0 l/m 4,7 km/h (1 Bft) SW 236 2 min 0,000 mm 0,0 UV-I 138 W/m -15,0 C -13,7 C 6,4 km/h (2 Bft) 96,00 %
07.01.2017 09:02 -13,6 C 90 % 1038,2 hPa 0,0 l/m 5,9 km/h (2 Bft) SW 236 2 min 0,000 mm 0,0 UV-I 142 W/m -14,9 C -13,6 C 6,4 km/h (2 Bft) 100,00 %
07.01.2017 09:04 -13,5 C 89 % 1038,2 hPa 0,0 l/m 5,9 km/h (2 Bft) SW 233 2 min 0,000 mm 0,0 UV-I 146 W/m -14,9 C -13,5 C 8,0 km/h (2 Bft) 100,00 %
07.01.2017 09:06 -13,4 C 89 % 1038,3 hPa 0,0 l/m 6,4 km/h (2 Bft) SW 236 2 min 0,000 mm 0,0 UV-I 150 W/m -14,8 C -13,3 C 8,0 km/h (2 Bft) 100,00 %
07.01.2017 09:08 -13,4 C 89 % 1038,3 hPa 0,0 l/m 5,0 km/h (1 Bft) W-SW 237 2 min 0,000 mm 0,0 UV-I 156 W/m -14,8 C -13,4 C 8,0 km/h (2 Bft) 100,00 %
07.01.2017 09:10 -13,3 C 89 % 1038,2 hPa 0,0 l/m 4,8 km/h (1 Bft) S-SW 208 2 min 0,000 mm 0,0 UV-I 160 W/m -14,7 C -13,3 C 8,0 km/h (2 Bft) 100,00 %
07.01.2017 09:12 -13,3 C 89 % 1038,2 hPa 0,0 l/m 4,2 km/h (1 Bft) SW 229 2 min 0,000 mm 0,0 UV-I 164 W/m -14,7 C -13,3 C 6,4 km/h (2 Bft) 100,00 %
07.01.2017 09:14 -13,2 C 89 % 1038,2 hPa 0,0 l/m 3,7 km/h (1 Bft) SW 229 2 min 0,000 mm 0,0 UV-I 169 W/m -14,6 C -13,2 C 6,4 km/h (2 Bft) 100,00 %
07.01.2017 09:16 -13,2 C 88 % 1038,1 hPa 0,0 l/m 3,9 km/h (1 Bft) SW 218 2 min 0,000 mm 0,0 UV-I 174 W/m -14,8 C -13,2 C 6,4 km/h (2 Bft) 100,00 %
07.01.2017 09:18 -13,2 C 89 % 1038,2 hPa 0,0 l/m 5,1 km/h (1 Bft) SW 225 2 min 0,000 mm 0,0 UV-I 179 W/m -14,6 C -13,2 C 6,4 km/h (2 Bft) 100,00 %
07.01.2017 09:20 -13,1 C 88 % 1038,2 hPa 0,0 l/m 3,7 km/h (1 Bft) SW 225 2 min 0,000 mm 0,0 UV-I 184 W/m -14,7 C -13,1 C 6,4 km/h (2 Bft) 98,11 %
07.01.2017 09:22 -13,0 C 88 % 1038,3 hPa 0,0 l/m 5,8 km/h (2 Bft) SW 220 2 min 0,000 mm 0,0 UV-I 188 W/m -14,6 C -13,0 C 8,0 km/h (2 Bft) 97,56 %
07.01.2017 09:24 -12,9 C 88 % 1038,2 hPa 0,0 l/m 5,0 km/h (1 Bft) S-SW 210 2 min 0,000 mm 0,0 UV-I 193 W/m -14,5 C -12,9 C 6,4 km/h (2 Bft) 100,00 %
07.01.2017 09:26 -12,9 C 88 % 1038,3 hPa 0,0 l/m 4,4 km/h (1 Bft) SW 236 2 min 0,000 mm 0,0 UV-I 196 W/m -14,5 C -12,9 C 6,4 km/h (2 Bft) 100,00 %
07.01.2017 09:28 -12,8 C 88 % 1038,3 hPa 0,0 l/m 4,4 km/h (1 Bft) SW 227 2 min 0,000 mm 0,0 UV-I 199 W/m -14,4 C -12,8 C 6,4 km/h (2 Bft) 98,00 %
07.01.2017 09:30 -12,8 C 88 % 1038,2 hPa 0,0 l/m 5,0 km/h (1 Bft) SW 236 2 min 0,000 mm 0,0 UV-I 201 W/m -14,4 C -12,8 C 8,0 km/h (2 Bft) 100,00 %
07.01.2017 09:32 -12,7 C 88 % 1038,2 hPa 0,0 l/m 4,9 km/h (1 Bft) SW 231 2 min 0,000 mm 0,0 UV-I 205 W/m -14,3 C -12,7 C 6,4 km/h (2 Bft) 96,23 %
07.01.2017 09:34 -12,7 C 88 % 1038,2 hPa 0,0 l/m 3,7 km/h (1 Bft) W-SW 238 2 min 0,000 mm 0,0 UV-I 210 W/m -14,3 C -12,7 C 6,4 km/h (2 Bft) 97,56 %
07.01.2017 09:36 -12,6 C 88 % 1038,2 hPa 0,0 l/m 3,6 km/h (1 Bft) W-SW 238 2 min 0,000 mm 0,0 UV-I 215 W/m -14,2 C -12,6 C 6,4 km/h (2 Bft) 95,74 %
07.01.2017 09:38 -12,5 C 88 % 1038,2 hPa 0,0 l/m 4,7 km/h (1 Bft) S-SW 209 2 min 0,000 mm 0,0 UV-I 221 W/m -14,1 C -12,5 C 6,4 km/h (2 Bft) 97,44 %
07.01.2017 09:40 -12,4 C 87 % 1038,1 hPa 0,0 l/m 4,2 km/h (1 Bft) S-SW 209 2 min 0,000 mm 0,0 UV-I 228 W/m -14,1 C -12,4 C 6,4 km/h (2 Bft) 98,08 %
07.01.2017 09:42 -12,4 C 87 % 1038,1 hPa 0,0 l/m 4,0 km/h (1 Bft) S-SW 194 2 min 0,000 mm 0,0 UV-I 234 W/m -14,1 C -12,4 C 4,8 km/h (1 Bft) 97,92 %
07.01.2017 09:44 -12,4 C 87 % 1038,1 hPa 0,0 l/m 4,5 km/h (1 Bft) S-SW 211 2 min 0,000 mm 0,0 UV-I 241 W/m -14,1 C -12,4 C 6,4 km/h (2 Bft) 97,87 %
07.01.2017 09:46 -12,3 C 87 % 1038,1 hPa 0,0 l/m 3,5 km/h (1 Bft) S-SW 201 2 min 0,000 mm 0,0 UV-I 244 W/m -14,0 C -12,3 C 6,4 km/h (2 Bft) 97,14 %
07.01.2017 09:48 -12,2 C 87 % 1038,1 hPa 0,0 l/m 4,9 km/h (1 Bft) S-SW 200 2 min 0,000 mm 0,0 UV-I 248 W/m -13,9 C -12,2 C 6,4 km/h (2 Bft) 96,23 %
07.01.2017 09:50 -12,2 C 87 % 1038,1 hPa 0,0 l/m 3,5 km/h (1 Bft) S-SW 200 2 min 0,000 mm 0,0 UV-I 248 W/m -13,9 C -12,2 C 4,8 km/h (1 Bft) 100,00 %
07.01.2017 09:52 -12,2 C 87 % 1038,1 hPa 0,0 l/m 3,0 km/h (1 Bft) S-SW 194 2 min 0,000 mm 0,0 UV-I 251 W/m -13,9 C -12,2 C 4,8 km/h (1 Bft) 98,00 %
07.01.2017 09:54 -12,2 C 86 % 1038,1 hPa 0,0 l/m 3,5 km/h (1 Bft) S-SW 192 2 min 0,000 mm 0,0 UV-I 256 W/m -14,0 C -12,2 C 6,4 km/h (2 Bft) 100,00 %
07.01.2017 09:56 -12,1 C 87 % 1038,1 hPa 0,0 l/m 2,3 km/h (1 Bft) S-SW 192 2 min 0,000 mm 0,0 UV-I 261 W/m -13,8 C -12,1 C 4,8 km/h (1 Bft) 97,37 %
07.01.2017 09:58 -12,0 C 86 % 1038,1 hPa 0,0 l/m 2,5 km/h (1 Bft) S-SW 192 2 min 0,000 mm 0,0 UV-I 264 W/m -13,9 C -12,0 C 4,8 km/h (1 Bft) 100,00 %
07.01.2017 10:00 -11,8 C 87 % 1038,1 hPa 0,0 l/m 3,1 km/h (1 Bft) S-SW 199 2 min 0,051 mm 0,0 UV-I 270 W/m -13,5 C -11,8 C 4,8 km/h (1 Bft) 98,00 %
07.01.2017 10:02 -11,7 C 87 % 1038,1 hPa 0,0 l/m 2,6 km/h (1 Bft) S-SW 207 2 min 0,000 mm 0,0 UV-I 274 W/m -13,4 C -11,7 C 4,8 km/h (1 Bft) 100,00 %
07.01.2017 10:04 -11,6 C 87 % 1038,1 hPa 0,0 l/m 2,1 km/h (1 Bft) S-SW 207 2 min 0,000 mm 0,0 UV-I 280 W/m -13,3 C -11,6 C 3,2 km/h (1 Bft) 97,56 %
07.01.2017 10:06 -11,6 C 86 % 1038,1 hPa 0,0 l/m 2,6 km/h (1 Bft) S-SW 205 2 min 0,000 mm 0,0 UV-I 287 W/m -13,5 C -11,6 C 6,4 km/h (2 Bft) 97,87 %
07.01.2017 10:08 -11,4 C 86 % 1038,0 hPa 0,0 l/m 5,5 km/h (1 Bft) S-SW 207 2 min 0,000 mm 0,0 UV-I 299 W/m -13,3 C -11,4 C 6,4 km/h (2 Bft) 100,00 %
07.01.2017 10:10 -11,3 C 86 % 1038,0 hPa 0,0 l/m 4,0 km/h (1 Bft) S-SW 202 2 min 0,000 mm 0,0 UV-I 309 W/m -13,2 C -11,3 C 6,4 km/h (2 Bft) 98,00 %
07.01.2017 10:12 -11,3 C 85 % 1038,0 hPa 0,0 l/m 3,7 km/h (1 Bft) SW 236 2 min 0,000 mm 0,0 UV-I 323 W/m -13,3 C -11,3 C 6,4 km/h (2 Bft) 100,00 %
07.01.2017 10:14 -11,2 C 86 % 1038,0 hPa 0,0 l/m 3,2 km/h (1 Bft) SW 235 2 min 0,000 mm 0,0 UV-I 335 W/m -13,1 C -11,2 C 6,4 km/h (2 Bft) 100,00 %
07.01.2017 10:16 -11,1 C 86 % 1037,9 hPa 0,0 l/m 1,9 km/h (1 Bft) SW 235 2 min 0,000 mm 0,0 UV-I 336 W/m -13,0 C -11,1 C 3,2 km/h (1 Bft) 100,00 %
07.01.2017 10:18 -10,9 C 86 % 1037,9 hPa 0,0 l/m 3,5 km/h (1 Bft) SW 218 2 min 0,000 mm 0,0 UV-I 335 W/m -12,8 C -10,9 C 6,4 km/h (2 Bft) 100,00 %
07.01.2017 10:20 -10,8 C 85 % 1037,9 hPa 0,0 l/m 3,7 km/h (1 Bft) S-SW 194 2 min 0,000 mm 0,0 UV-I 344 W/m -12,8 C -10,8 C 4,8 km/h (1 Bft) 100,00 %
07.01.2017 10:22 -10,8 C 85 % 1037,9 hPa 0,0 l/m 3,4 km/h (1 Bft) S-SW 202 2 min 0,000 mm 0,0 UV-I 354 W/m -12,8 C -10,8 C 4,8 km/h (1 Bft) 98,00 %
07.01.2017 10:24 -10,8 C 84 % 1037,9 hPa 0,0 l/m 3,3 km/h (1 Bft) SW 219 2 min 0,000 mm 0,0 UV-I 281 W/m -13,0 C -10,8 C 6,4 km/h (2 Bft) 100,00 %
07.01.2017 10:26 -10,7 C 84 % 1037,8 hPa 0,0 l/m 3,2 km/h (1 Bft) S-SW 209 2 min 0,000 mm 0,0 UV-I 230 W/m -12,9 C -10,7 C 8,0 km/h (2 Bft) 97,87 %
07.01.2017 10:28 -10,8 C 84 % 1037,9 hPa 0,0 l/m 5,4 km/h (1 Bft) SW 215 2 min 0,000 mm 0,0 UV-I 229 W/m -13,0 C -10,8 C 6,4 km/h (2 Bft) 100,00 %
07.01.2017 10:30 -10,7 C 84 % 1037,8 hPa 0,0 l/m 4,8 km/h (1 Bft) SW 234 2 min 0,000 mm 0,0 UV-I 255 W/m -12,9 C -10,7 C 6,4 km/h (2 Bft) 96,00 %
07.01.2017 10:32 -10,6 C 85 % 1037,9 hPa 0,0 l/m 4,5 km/h (1 Bft) W 261 2 min 0,000 mm 0,0 UV-I 236 W/m -12,6 C -10,6 C 6,4 km/h (2 Bft) 97,44 %
07.01.2017 10:34 -10,6 C 84 % 1037,9 hPa 0,0 l/m 4,4 km/h (1 Bft) W 263 2 min 0,000 mm 0,0 UV-I 214 W/m -12,8 C -10,6 C 6,4 km/h (2 Bft) 98,00 %
07.01.2017 10:36 -10,5 C 84 % 1037,9 hPa 0,0 l/m 3,2 km/h (1 Bft) W-SW 244 2 min 0,000 mm 0,0 UV-I 199 W/m -12,7 C -10,5 C 6,4 km/h (2 Bft) 96,00 %
07.01.2017 10:38 -10,4 C 84 % 1037,9 hPa 0,0 l/m 3,0 km/h (1 Bft) W-SW 244 2 min 0,000 mm 0,0 UV-I 230 W/m -12,6 C -10,4 C 4,8 km/h (1 Bft) 95,74 %
07.01.2017 10:40 -10,4 C 84 % 1037,8 hPa 0,0 l/m 3,3 km/h (1 Bft) W-SW 247 2 min 0,000 mm 0,0 UV-I 291 W/m -12,6 C -10,4 C 4,8 km/h (1 Bft) 97,87 %
07.01.2017 10:42 -10,4 C 84 % 1037,8 hPa 0,0 l/m 2,2 km/h (1 Bft) W-SW 247 2 min 0,000 mm 0,0 UV-I 250 W/m -12,6 C -10,4 C 3,2 km/h (1 Bft) 97,87 %
07.01.2017 10:44 -10,2 C 84 % 1037,8 hPa 0,0 l/m 1,2 km/h (1 Bft) W-SW 247 2 min 0,000 mm 0,1 UV-I 283 W/m -12,4 C -10,2 C 3,2 km/h (1 Bft) 100,00 %
07.01.2017 10:46 -10,1 C 84 % 1037,7 hPa 0,0 l/m 0,3 km/h (0 Bft) W-SW 247 2 min 0,000 mm 0,3 UV-I 338 W/m -12,3 C -10,1 C 1,6 km/h (1 Bft) 97,87 %
07.01.2017 10:48 -9,9 C 84 % 1037,7 hPa 0,0 l/m 1,6 km/h (1 Bft) W-SW 252 2 min 0,000 mm 0,1 UV-I 268 W/m -12,1 C -9,9 C 3,2 km/h (1 Bft) 100,00 %
07.01.2017 10:50 -9,9 C 83 % 1037,7 hPa 0,0 l/m 1,6 km/h (1 Bft) W-SW 255 2 min 0,000 mm 0,2 UV-I 256 W/m -12,2 C -9,9 C 3,2 km/h (1 Bft) 98,15 %
07.01.2017 10:52 -10,1 C 82 % 1037,7 hPa 0,0 l/m 1,0 km/h (0 Bft) W-SW 255 2 min 0,000 mm 0,0 UV-I 207 W/m -12,6 C -10,1 C 3,2 km/h (1 Bft) 100,00 %
07.01.2017 10:54 -10,1 C 83 % 1037,7 hPa 0,0 l/m 0,4 km/h (0 Bft) W-SW 255 2 min 0,000 mm 0,0 UV-I 194 W/m -12,4 C -10,1 C 3,2 km/h (1 Bft) 100,00 %
07.01.2017 10:56 -10,1 C 83 % 1037,7 hPa 0,0 l/m 0,9 km/h (0 Bft) W 267 2 min 0,000 mm 0,0 UV-I 191 W/m -12,4 C -10,1 C 4,8 km/h (1 Bft) 100,00 %
07.01.2017 10:58 -10,1 C 83 % 1037,6 hPa 0,0 l/m 1,1 km/h (1 Bft) W 271 2 min 0,000 mm 0,0 UV-I 201 W/m -12,4 C -10,1 C 3,2 km/h (1 Bft) 100,00 %
07.01.2017 11:00 -10,1 C 83 % 1037,6 hPa 0,0 l/m 0,4 km/h (0 Bft) W 271 2 min 0,051 mm 0,1 UV-I 202 W/m -12,4 C -10,1 C 1,6 km/h (1 Bft) 100,00 %
07.01.2017 11:02 -10,1 C 83 % 1037,6 hPa 0,0 l/m 1,0 km/h (0 Bft) W-NW 286 2 min 0,000 mm 0,5 UV-I 224 W/m -12,4 C -10,1 C 4,8 km/h (1 Bft) 100,00 %
07.01.2017 11:04 -10,1 C 83 % 1037,6 hPa 0,0 l/m 1,9 km/h (1 Bft) W-NW 298 2 min 0,000 mm 0,5 UV-I 219 W/m -12,4 C -10,1 C 4,8 km/h (1 Bft) 100,00 %
07.01.2017 11:06 -9,9 C 83 % 1037,5 hPa 0,0 l/m 0,8 km/h (0 Bft) W-NW 298 2 min 0,000 mm 0,5 UV-I 233 W/m -12,2 C -9,9 C 3,2 km/h (1 Bft) 98,08 %
07.01.2017 11:08 -9,8 C 83 % 1037,5 hPa 0,0 l/m 0,5 km/h (0 Bft) W-NW 300 2 min 0,000 mm 0,5 UV-I 249 W/m -12,1 C -9,8 C 1,6 km/h (1 Bft) 100,00 %
07.01.2017 11:10 -9,7 C 83 % 1037,4 hPa 0,0 l/m 0,0 km/h (0 Bft) W-NW 300 2 min 0,000 mm 0,5 UV-I 301 W/m -12,0 C -9,7 C 1,6 km/h (1 Bft) 100,00 %
07.01.2017 11:12 -9,5 C 83 % 1037,4 hPa 0,0 l/m 1,1 km/h (1 Bft) NW 319 2 min 0,000 mm 0,5 UV-I 496 W/m -11,8 C -9,5 C 3,2 km/h (1 Bft) 97,87 %
07.01.2017 11:14 -9,4 C 82 % 1037,4 hPa 0,0 l/m 1,0 km/h (0 Bft) W-NW 301 2 min 0,000 mm 0,5 UV-I 472 W/m -11,9 C -9,4 C 4,8 km/h (1 Bft) 100,00 %
07.01.2017 11:16 -9,4 C 82 % 1037,3 hPa 0,0 l/m 1,2 km/h (1 Bft) NW 321 2 min 0,000 mm 0,5 UV-I 429 W/m -11,9 C -9,4 C 4,8 km/h (1 Bft) 98,11 %
07.01.2017 11:18 -9,4 C 81 % 1037,2 hPa 0,0 l/m 1,3 km/h (1 Bft) NW 316 2 min 0,000 mm 0,5 UV-I 331 W/m -12,0 C -9,4 C 3,2 km/h (1 Bft) 100,00 %
07.01.2017 11:20 -9,4 C 81 % 1037,3 hPa 0,0 l/m 2,2 km/h (1 Bft) NW 326 2 min 0,000 mm 0,5 UV-I 302 W/m -12,0 C -9,4 C 4,8 km/h (1 Bft) 100,00 %
07.01.2017 11:22 -9,3 C 82 % 1037,2 hPa 0,0 l/m 2,8 km/h (1 Bft) NW 308 2 min 0,000 mm 0,5 UV-I 244 W/m -11,8 C -9,3 C 4,8 km/h (1 Bft) 100,00 %
07.01.2017 11:24 -9,3 C 82 % 1037,2 hPa 0,0 l/m 2,7 km/h (1 Bft) NW 306 2 min 0,000 mm 0,5 UV-I 206 W/m -11,8 C -9,3 C 4,8 km/h (1 Bft) 97,56 %
07.01.2017 11:26 -9,3 C 82 % 1037,2 hPa 0,0 l/m 3,3 km/h (1 Bft) NW 317 2 min 0,000 mm 0,5 UV-I 217 W/m -11,8 C -9,3 C 6,4 km/h (2 Bft) 95,83 %
07.01.2017 11:28 -9,3 C 82 % 1037,2 hPa 0,0 l/m 2,3 km/h (1 Bft) NW 324 2 min 0,000 mm 0,5 UV-I 297 W/m -11,8 C -9,3 C 4,8 km/h (1 Bft) 100,00 %
07.01.2017 11:30 -9,2 C 82 % 1037,2 hPa 0,0 l/m 1,6 km/h (1 Bft) W-NW 295 2 min 0,000 mm 0,6 UV-I 450 W/m -11,7 C -9,2 C 4,8 km/h (1 Bft) 100,00 %
07.01.2017 11:32 -9,1 C 81 % 1037,2 hPa 0,0 l/m 1,3 km/h (1 Bft) W-NW 292 2 min 0,000 mm 0,6 UV-I 426 W/m -11,7 C -9,1 C 3,2 km/h (1 Bft) 100,00 %
07.01.2017 11:34 -8,9 C 81 % 1037,1 hPa 0,0 l/m 1,2 km/h (1 Bft) NW 309 2 min 0,000 mm 0,5 UV-I 315 W/m -11,5 C -8,9 C 4,8 km/h (1 Bft) 98,00 %
07.01.2017 11:36 -8,9 C 81 % 1037,0 hPa 0,0 l/m 3,3 km/h (1 Bft) W-NW 298 2 min 0,000 mm 0,5 UV-I 260 W/m -11,5 C -8,9 C 4,8 km/h (1 Bft) 98,00 %
07.01.2017 11:38 -8,9 C 81 % 1036,9 hPa 0,0 l/m 1,3 km/h (1 Bft) W-NW 299 2 min 0,000 mm 0,5 UV-I 272 W/m -11,5 C -8,9 C 4,8 km/h (1 Bft) 98,00 %
07.01.2017 11:40 -8,9 C 81 % 1036,9 hPa 0,0 l/m 0,6 km/h (0 Bft) W-NW 299 2 min 0,000 mm 0,5 UV-I 287 W/m -11,5 C -8,9 C 3,2 km/h (1 Bft) 97,87 %
07.01.2017 11:42 -8,8 C 81 % 1036,8 hPa 0,0 l/m 0,6 km/h (0 Bft) W-NW 299 2 min 0,000 mm 0,6 UV-I 314 W/m -11,5 C -8,8 C 3,2 km/h (1 Bft) 97,56 %
07.01.2017 11:44 -8,7 C 80 % 1036,8 hPa 0,0 l/m 1,7 km/h (1 Bft) W-NW 300 2 min 0,000 mm 0,5 UV-I 326 W/m -11,5 C -8,7 C 3,2 km/h (1 Bft) 95,83 %
07.01.2017 11:46 -8,7 C 80 % 1036,8 hPa 0,0 l/m 2,9 km/h (1 Bft) NW 310 2 min 0,000 mm 0,5 UV-I 262 W/m -11,5 C -8,7 C 4,8 km/h (1 Bft) 94,29 %
07.01.2017 11:48 -8,7 C 80 % 1036,7 hPa 0,0 l/m 2,1 km/h (1 Bft) NW 319 2 min 0,000 mm 0,5 UV-I 233 W/m -11,5 C -8,7 C 4,8 km/h (1 Bft) 96,23 %
07.01.2017 11:50 -8,8 C 79 % 1036,8 hPa 0,0 l/m 3,3 km/h (1 Bft) NW 306 2 min 0,000 mm 0,5 UV-I 209 W/m -11,8 C -8,8 C 4,8 km/h (1 Bft) 98,11 %
07.01.2017 11:52 -8,8 C 80 % 1036,7 hPa 0,0 l/m 2,1 km/h (1 Bft) NW 311 2 min 0,000 mm 0,5 UV-I 203 W/m -11,6 C -8,8 C 4,8 km/h (1 Bft) 96,23 %
07.01.2017 11:54 -8,8 C 80 % 1036,7 hPa 0,0 l/m 1,6 km/h (1 Bft) NW 311 2 min 0,000 mm 0,5 UV-I 204 W/m -11,6 C -8,8 C 3,2 km/h (1 Bft) 97,37 %
07.01.2017 11:56 -8,8 C 80 % 1036,7 hPa 0,0 l/m 0,9 km/h (0 Bft) NW 311 2 min 0,000 mm 0,5 UV-I 201 W/m -11,6 C -8,8 C 4,8 km/h (1 Bft) 96,00 %
07.01.2017 11:58 -8,8 C 80 % 1036,7 hPa 0,0 l/m 1,7 km/h (1 Bft) NW 311 2 min 0,000 mm 0,5 UV-I 214 W/m -11,6 C -8,8 C 4,8 km/h (1 Bft) 95,74 %
07.01.2017 12:00 -8,7 C 80 % 1036,6 hPa 0,0 l/m 0,8 km/h (0 Bft) NW 311 2 min 0,076 mm 0,5 UV-I 242 W/m -11,5 C -8,7 C 3,2 km/h (1 Bft) 100,00 %
07.01.2017 12:02 -8,6 C 80 % 1036,6 hPa 0,0 l/m 0,9 km/h (0 Bft) NW 311 2 min 0,000 mm 0,5 UV-I 280 W/m -11,4 C -8,6 C 1,6 km/h (1 Bft) 100,00 %
07.01.2017 12:04 -8,5 C 79 % 1036,5 hPa 0,0 l/m 0,9 km/h (0 Bft) NW 311 2 min 0,000 mm 0,5 UV-I 262 W/m -11,5 C -8,5 C 3,2 km/h (1 Bft) 100,00 %
07.01.2017 12:06 -8,6 C 79 % 1036,5 hPa 0,0 l/m 0,5 km/h (0 Bft) NW 311 2 min 0,000 mm 0,5 UV-I 252 W/m -11,6 C -8,6 C 3,2 km/h (1 Bft) 97,37 %
07.01.2017 12:08 -8,5 C 79 % 1036,4 hPa 0,0 l/m 2,4 km/h (1 Bft) W-NW 285 2 min 0,000 mm 0,6 UV-I 315 W/m -11,5 C -8,5 C 4,8 km/h (1 Bft) 100,00 %
07.01.2017 12:10 -8,5 C 79 % 1036,4 hPa 0,0 l/m 2,0 km/h (1 Bft) W-NW 284 2 min 0,000 mm 0,5 UV-I 280 W/m -11,5 C -8,5 C 4,8 km/h (1 Bft) 100,00 %
07.01.2017 12:12 -8,5 C 78 % 1036,4 hPa 0,0 l/m 0,9 km/h (0 Bft) W-NW 284 2 min 0,000 mm 0,5 UV-I 262 W/m -11,6 C -8,5 C 3,2 km/h (1 Bft) 100,00 %
07.01.2017 12:14 -8,5 C 78 % 1036,4 hPa 0,0 l/m 0,2 km/h (0 Bft) W-NW 284 2 min 0,000 mm 0,5 UV-I 228 W/m -11,6 C -8,5 C 1,6 km/h (1 Bft) 98,00 %
07.01.2017 12:16 -8,6 C 78 % 1036,3 hPa 0,0 l/m 0,8 km/h (0 Bft) W-NW 285 2 min 0,000 mm 0,5 UV-I 201 W/m -11,7 C -8,6 C 3,2 km/h (1 Bft) 94,74 %
07.01.2017 12:18 -8,6 C 78 % 1036,3 hPa 0,0 l/m 1,8 km/h (1 Bft) W-NW 302 0 min 0,000 mm 0,5 UV-I 177 W/m -11,7 C -8,6 C 3,2 km/h (1 Bft) 100,00 %
07.01.2017 12:20 -8,6 C 78 % 1036,2 hPa 0,0 l/m 1,3 km/h (1 Bft) W-NW 302 0 min 0,000 mm 0,5 UV-I 169 W/m -11,7 C -8,6 C 3,2 km/h (1 Bft) 100,00 %
07.01.2017 12:22 -8,7 C 79 % 1036,1 hPa 0,0 l/m 0,7 km/h (0 Bft) W-NW 302 0 min 0,000 mm 0,5 UV-I 162 W/m -11,7 C -8,7 C 3,2 km/h (1 Bft) 98,44 %
07.01.2017 12:24 -8,7 C 79 % 1036,2 hPa 0,0 l/m 0,3 km/h (0 Bft) W-NW 302 0 min 0,000 mm 0,5 UV-I 150 W/m -11,7 C -8,7 C 1,6 km/h (1 Bft) 100,00 %
07.01.2017 12:26 -8,7 C 79 % 1036,3 hPa 0,0 l/m 0,4 km/h (0 Bft) W-NW 302 0 min 0,000 mm 0,5 UV-I 147 W/m -11,7 C -8,7 C 1,6 km/h (1 Bft) 100,00 %
07.01.2017 12:28 -8,7 C 79 % 1036,3 hPa 0,0 l/m 1,5 km/h (1 Bft) W-NW 302 0 min 0,000 mm 0,5 UV-I 156 W/m -11,7 C -8,7 C 4,8 km/h (1 Bft) 98,00 %
07.01.2017 12:30 -8,7 C 79 % 1036,3 hPa 0,0 l/m 0,7 km/h (0 Bft) W-NW 302 0 min 0,000 mm 0,5 UV-I 177 W/m -11,7 C -8,7 C 1,6 km/h (1 Bft) 98,00 %
07.01.2017 12:32 -8,6 C 79 % 1036,2 hPa 0,0 l/m 0,4 km/h (0 Bft) W-NW 302 2 min 0,000 mm 0,5 UV-I 212 W/m -11,6 C -8,6 C 1,6 km/h (1 Bft) 100,00 %
07.01.2017 12:34 -8,4 C 79 % 1036,2 hPa 0,0 l/m 0,1 km/h (0 Bft) W-NW 302 2 min 0,000 mm 0,5 UV-I 248 W/m -11,4 C -8,4 C 1,6 km/h (1 Bft) 100,00 %
07.01.2017 12:36 -8,3 C 79 % 1036,2 hPa 0,0 l/m 0,2 km/h (0 Bft) W-NW 302 2 min 0,000 mm 0,6 UV-I 355 W/m -11,3 C -8,3 C 1,6 km/h (1 Bft) 100,00 %
07.01.2017 12:38 -8,0 C 78 % 1036,2 hPa 0,0 l/m 2,0 km/h (1 Bft) W-NW 302 2 min 0,000 mm 0,6 UV-I 410 W/m -11,1 C -8,0 C 3,2 km/h (1 Bft) 100,00 %
07.01.2017 12:40 -8,1 C 77 % 1036,1 hPa 0,0 l/m 2,2 km/h (1 Bft) W-NW 302 2 min 0,000 mm 0,6 UV-I 425 W/m -11,4 C -8,1 C 4,8 km/h (1 Bft) 100,00 %
07.01.2017 12:42 -8,1 C 77 % 1036,1 hPa 0,0 l/m 3,2 km/h (1 Bft) W-NW 303 2 min 0,000 mm 0,6 UV-I 384 W/m -11,4 C -8,1 C 6,4 km/h (2 Bft) 100,00 %
07.01.2017 12:44 -8,1 C 77 % 1036,1 hPa 0,0 l/m 3,2 km/h (1 Bft) W-NW 302 2 min 0,000 mm 0,6 UV-I 461 W/m -11,4 C -8,1 C 4,8 km/h (1 Bft) 97,87 %
07.01.2017 12:46 -8,0 C 77 % 1036,0 hPa 0,0 l/m 1,1 km/h (1 Bft) W-NW 302 2 min 0,000 mm 0,5 UV-I 410 W/m -11,3 C -8,0 C 4,8 km/h (1 Bft) 100,00 %
07.01.2017 12:48 -8,1 C 77 % 1036,0 hPa 0,0 l/m 1,7 km/h (1 Bft) W-NW 302 2 min 0,000 mm 0,6 UV-I 358 W/m -11,4 C -8,1 C 4,8 km/h (1 Bft) 100,00 %
07.01.2017 12:50 -8,1 C 77 % 1035,9 hPa 0,0 l/m 1,4 km/h (1 Bft) NW 307 2 min 0,000 mm 0,5 UV-I 320 W/m -11,4 C -8,1 C 3,2 km/h (1 Bft) 100,00 %
07.01.2017 12:52 -8,1 C 77 % 1035,9 hPa 0,0 l/m 1,5 km/h (1 Bft) NW 307 2 min 0,000 mm 0,5 UV-I 281 W/m -11,4 C -8,1 C 3,2 km/h (1 Bft) 96,00 %
07.01.2017 12:54 -8,1 C 77 % 1035,9 hPa 0,0 l/m 1,8 km/h (1 Bft) W-NW 292 2 min 0,000 mm 0,5 UV-I 192 W/m -11,4 C -8,1 C 3,2 km/h (1 Bft) 97,56 %
07.01.2017 12:56 -8,1 C 77 % 1035,9 hPa 0,0 l/m 0,9 km/h (0 Bft) W-NW 292 0 min 0,000 mm 0,5 UV-I 169 W/m -11,4 C -8,1 C 3,2 km/h (1 Bft) 100,00 %
07.01.2017 12:58 -8,1 C 78 % 1035,8 hPa 0,0 l/m 1,5 km/h (1 Bft) W-NW 296 2 min 0,000 mm 0,5 UV-I 197 W/m -11,2 C -8,1 C 3,2 km/h (1 Bft) 100,00 %
07.01.2017 13:00 -8,1 C 77 % 1035,8 hPa 0,0 l/m 0,8 km/h (0 Bft) W-NW 296 2 min 0,000 mm 0,6 UV-I 305 W/m -11,4 C -8,1 C 3,2 km/h (1 Bft) 98,11 %
07.01.2017 13:02 -8,1 C 77 % 1035,6 hPa 0,0 l/m 0,1 km/h (0 Bft) W-NW 296 2 min 0,051 mm 0,6 UV-I 425 W/m -11,4 C -8,1 C 1,6 km/h (1 Bft) 95,12 %
07.01.2017 13:04 -8,0 C 78 % 1035,6 hPa 0,0 l/m 0,4 km/h (0 Bft) W 262 2 min 0,000 mm 0,5 UV-I 292 W/m -11,1 C -8,0 C 1,6 km/h (1 Bft) 96,00 %
07.01.2017 13:06 -7,8 C 78 % 1035,5 hPa 0,0 l/m 1,2 km/h (1 Bft) W 262 2 min 0,000 mm 0,5 UV-I 251 W/m -10,9 C -7,8 C 3,2 km/h (1 Bft) 98,00 %
07.01.2017 13:08 -7,8 C 77 % 1035,4 hPa 0,0 l/m 3,3 km/h (1 Bft) W-SW 244 2 min 0,000 mm 0,5 UV-I 257 W/m -11,1 C -7,8 C 6,4 km/h (2 Bft) 97,44 %
07.01.2017 13:10 -7,8 C 77 % 1035,4 hPa 0,0 l/m 5,2 km/h (1 Bft) S-SW 198 2 min 0,000 mm 0,5 UV-I 260 W/m -11,1 C -7,8 C 9,7 km/h (2 Bft) 98,00 %
07.01.2017 13:12 -7,8 C 77 % 1035,4 hPa 0,0 l/m 5,4 km/h (1 Bft) S-SW 209 2 min 0,000 mm 0,5 UV-I 324 W/m -11,1 C -7,8 C 8,0 km/h (2 Bft) 93,62 %
07.01.2017 13:14 -7,7 C 77 % 1035,4 hPa 0,0 l/m 3,4 km/h (1 Bft) W-SW 241 2 min 0,000 mm 0,5 UV-I 348 W/m -11,0 C -7,7 C 6,4 km/h (2 Bft) 98,00 %
07.01.2017 13:16 -7,8 C 76 % 1035,3 hPa 0,0 l/m 3,6 km/h (1 Bft) W-SW 241 2 min 0,000 mm 0,2 UV-I 270 W/m -11,3 C -7,8 C 4,8 km/h (1 Bft) 97,37 %
07.01.2017 13:18 -7,8 C 76 % 1035,2 hPa 0,0 l/m 2,2 km/h (1 Bft) W-SW 249 2 min 0,000 mm 0,0 UV-I 212 W/m -11,3 C -7,8 C 6,4 km/h (2 Bft) 96,00 %
07.01.2017 13:20 -7,8 C 77 % 1035,2 hPa 0,0 l/m 3,1 km/h (1 Bft) W-SW 249 2 min 0,000 mm 0,0 UV-I 206 W/m -11,1 C -7,8 C 4,8 km/h (1 Bft) 98,00 %
07.01.2017 13:22 -7,8 C 77 % 1035,2 hPa 0,0 l/m 3,2 km/h (1 Bft) W-SW 250 2 min 0,000 mm 0,0 UV-I 195 W/m -11,1 C -7,8 C 4,8 km/h (1 Bft) 96,00 %
07.01.2017 13:24 -7,8 C 76 % 1035,3 hPa 0,0 l/m 2,3 km/h (1 Bft) W 266 2 min 0,000 mm 0,0 UV-I 184 W/m -11,3 C -7,8 C 4,8 km/h (1 Bft) 97,87 %
07.01.2017 13:26 -7,8 C 77 % 1035,3 hPa 0,0 l/m 1,0 km/h (0 Bft) W 267 2 min 0,000 mm 0,0 UV-I 183 W/m -11,1 C -7,8 C 3,2 km/h (1 Bft) 97,56 %
07.01.2017 13:28 -7,8 C 76 % 1035,2 hPa 0,0 l/m 1,8 km/h (1 Bft) W 277 2 min 0,000 mm 0,0 UV-I 183 W/m -11,3 C -7,8 C 3,2 km/h (1 Bft) 98,00 %
07.01.2017 13:30 -7,8 C 76 % 1035,2 hPa 0,0 l/m 0,6 km/h (0 Bft) W 277 2 min 0,000 mm 0,0 UV-I 174 W/m -11,3 C -7,8 C 3,2 km/h (1 Bft) 100,00 %
07.01.2017 13:32 -7,8 C 76 % 1035,2 hPa 0,0 l/m 4,5 km/h (1 Bft) W 269 0 min 0,000 mm 0,0 UV-I 162 W/m -11,3 C -7,8 C 6,4 km/h (2 Bft) 96,23 %
07.01.2017 13:34 -7,8 C 76 % 1035,2 hPa 0,0 l/m 2,1 km/h (1 Bft) W 269 0 min 0,000 mm 0,0 UV-I 152 W/m -11,3 C -7,8 C 4,8 km/h (1 Bft) 100,00 %
07.01.2017 13:36 -7,8 C 76 % 1035,2 hPa 0,0 l/m 1,7 km/h (1 Bft) W 269 0 min 0,000 mm 0,0 UV-I 147 W/m -11,3 C -7,8 C 6,4 km/h (2 Bft) 100,00 %
07.01.2017 13:38 -7,8 C 76 % 1035,2 hPa 0,0 l/m 3,2 km/h (1 Bft) W 269 0 min 0,000 mm 0,0 UV-I 150 W/m -11,3 C -7,8 C 6,4 km/h (2 Bft) 100,00 %
07.01.2017 13:40 -7,9 C 76 % 1035,1 hPa 0,0 l/m 1,0 km/h (0 Bft) W 269 0 min 0,000 mm 0,0 UV-I 159 W/m -11,4 C -7,9 C 3,2 km/h (1 Bft) 100,00 %
07.01.2017 13:42 -7,9 C 76 % 1035,1 hPa 0,0 l/m 0,8 km/h (0 Bft) W 269 2 min 0,000 mm 0,0 UV-I 164 W/m -11,4 C -7,9 C 1,6 km/h (1 Bft) 100,00 %
07.01.2017 13:44 -7,9 C 76 % 1035,0 hPa 0,0 l/m 0,6 km/h (0 Bft) W 269 2 min 0,000 mm 0,0 UV-I 168 W/m -11,4 C -7,9 C 1,6 km/h (1 Bft) 100,00 %
07.01.2017 13:46 -7,9 C 75 % 1035,0 hPa 0,0 l/m 1,4 km/h (1 Bft) W 269 2 min 0,000 mm 0,0 UV-I 165 W/m -11,5 C -7,9 C 4,8 km/h (1 Bft) 100,00 %
07.01.2017 13:48 -7,8 C 76 % 1035,0 hPa 0,0 l/m 3,0 km/h (1 Bft) W 269 0 min 0,000 mm 0,0 UV-I 157 W/m -11,3 C -7,8 C 4,8 km/h (1 Bft) 100,00 %
07.01.2017 13:50 -7,7 C 75 % 1035,0 hPa 0,0 l/m 1,3 km/h (1 Bft) W 269 0 min 0,000 mm 0,0 UV-I 149 W/m -11,3 C -7,7 C 3,2 km/h (1 Bft) 100,00 %
07.01.2017 13:52 -7,7 C 75 % 1035,0 hPa 0,0 l/m 1,4 km/h (1 Bft) W 269 0 min 0,000 mm 0,0 UV-I 145 W/m -11,3 C -7,7 C 4,8 km/h (1 Bft) 100,00 %
07.01.2017 13:54 -7,7 C 75 % 1034,9 hPa 0,0 l/m 0,1 km/h (0 Bft) W 269 0 min 0,000 mm 0,0 UV-I 139 W/m -11,3 C -7,7 C 1,6 km/h (1 Bft) 100,00 %
07.01.2017 13:56 -7,7 C 75 % 1034,9 hPa 0,0 l/m 1,0 km/h (0 Bft) W 269 0 min 0,000 mm 0,0 UV-I 134 W/m -11,3 C -7,7 C 3,2 km/h (1 Bft) 97,87 %
07.01.2017 13:58 -7,7 C 75 % 1034,9 hPa 0,0 l/m 1,2 km/h (1 Bft) W 275 0 min 0,000 mm 0,0 UV-I 134 W/m -11,3 C -7,7 C 4,8 km/h (1 Bft) 97,87 %
07.01.2017 14:00 -7,7 C 74 % 1034,9 hPa 0,0 l/m 0,9 km/h (0 Bft) W 275 0 min 0,050 mm 0,0 UV-I 138 W/m -11,5 C -7,7 C 4,8 km/h (1 Bft) 100,00 %
07.01.2017 14:02 -7,6 C 75 % 1034,9 hPa 0,0 l/m 1,1 km/h (1 Bft) W 275 0 min 0,000 mm 0,0 UV-I 144 W/m -11,2 C -7,6 C 3,2 km/h (1 Bft) 100,00 %
07.01.2017 14:04 -7,6 C 75 % 1034,9 hPa 0,0 l/m 1,0 km/h (0 Bft) W-NW 287 0 min 0,000 mm 0,0 UV-I 144 W/m -11,2 C -7,6 C 4,8 km/h (1 Bft) 100,00 %
07.01.2017 14:06 -7,6 C 75 % 1034,9 hPa 0,0 l/m 1,2 km/h (1 Bft) W-NW 298 0 min 0,000 mm 0,0 UV-I 137 W/m -11,2 C -7,6 C 4,8 km/h (1 Bft) 100,00 %
07.01.2017 14:08 -7,7 C 75 % 1034,9 hPa 0,0 l/m 1,6 km/h (1 Bft) NW 306 0 min 0,000 mm 0,0 UV-I 135 W/m -11,3 C -7,7 C 3,2 km/h (1 Bft) 97,87 %
07.01.2017 14:10 -7,7 C 75 % 1034,9 hPa 0,0 l/m 0,0 km/h (0 Bft) NW 306 0 min 0,000 mm 0,0 UV-I 134 W/m -11,3 C -7,7 C 1,6 km/h (1 Bft) 95,74 %
07.01.2017 14:12 -7,7 C 75 % 1034,9 hPa 0,0 l/m 1,3 km/h (1 Bft) NW 306 0 min 0,000 mm 0,0 UV-I 134 W/m -11,3 C -7,7 C 3,2 km/h (1 Bft) 100,00 %
07.01.2017 14:14 -7,7 C 75 % 1034,9 hPa 0,0 l/m 1,9 km/h (1 Bft) NW 309 0 min 0,000 mm 0,0 UV-I 130 W/m -11,3 C -7,7 C 4,8 km/h (1 Bft) 100,00 %
07.01.2017 14:16 -7,7 C 75 % 1034,9 hPa 0,0 l/m 0,4 km/h (0 Bft) NW 309 0 min 0,000 mm 0,0 UV-I 126 W/m -11,3 C -7,7 C 1,6 km/h (1 Bft) 100,00 %
07.01.2017 14:18 -7,7 C 75 % 1035,0 hPa 0,0 l/m 1,0 km/h (0 Bft) NW 309 0 min 0,000 mm 0,0 UV-I 121 W/m -11,3 C -7,7 C 3,2 km/h (1 Bft) 98,21 %
07.01.2017 14:20 -7,7 C 75 % 1035,0 hPa 0,0 l/m 2,0 km/h (1 Bft) NW 309 0 min 0,000 mm 0,0 UV-I 117 W/m -11,3 C -7,7 C 6,4 km/h (2 Bft) 100,00 %
07.01.2017 14:22 -7,7 C 75 % 1035,0 hPa 0,0 l/m 1,4 km/h (1 Bft) NW 309 0 min 0,000 mm 0,0 UV-I 115 W/m -11,3 C -7,7 C 3,2 km/h (1 Bft) 100,00 %
07.01.2017 14:24 -7,7 C 76 % 1035,1 hPa 0,0 l/m 0,8 km/h (0 Bft) NW 309 0 min 0,000 mm 0,0 UV-I 113 W/m -11,2 C -7,7 C 1,6 km/h (1 Bft) 100,00 %
07.01.2017 14:26 -7,7 C 76 % 1035,2 hPa 0,0 l/m 2,2 km/h (1 Bft) NW 307 0 min 0,000 mm 0,0 UV-I 108 W/m -11,2 C -7,7 C 4,8 km/h (1 Bft) 100,00 %
07.01.2017 14:28 -7,7 C 77 % 1035,2 hPa 0,0 l/m 0,9 km/h (0 Bft) NW 307 0 min 0,000 mm 0,0 UV-I 103 W/m -11,0 C -7,7 C 4,8 km/h (1 Bft) 98,00 %
07.01.2017 14:30 -7,7 C 77 % 1035,0 hPa 0,0 l/m 0,5 km/h (0 Bft) NW 307 0 min 0,000 mm 0,0 UV-I 98 W/m -11,0 C -7,7 C 3,2 km/h (1 Bft) 100,00 %
07.01.2017 14:32 -7,6 C 77 % 1035,0 hPa 0,0 l/m 0,3 km/h (0 Bft) NW 307 0 min 0,000 mm 0,0 UV-I 93 W/m -10,9 C -7,6 C 1,6 km/h (1 Bft) 100,00 %
07.01.2017 14:34 -7,7 C 76 % 1035,0 hPa 0,0 l/m 2,0 km/h (1 Bft) W 263 0 min 0,000 mm 0,0 UV-I 90 W/m -11,2 C -7,7 C 6,4 km/h (2 Bft) 100,00 %
07.01.2017 14:36 -7,7 C 76 % 1035,0 hPa 0,0 l/m 1,4 km/h (1 Bft) W 265 0 min 0,000 mm 0,0 UV-I 90 W/m -11,2 C -7,7 C 6,4 km/h (2 Bft) 96,00 %
07.01.2017 14:38 -7,7 C 76 % 1034,9 hPa 0,0 l/m 3,0 km/h (1 Bft) W 265 0 min 0,000 mm 0,0 UV-I 91 W/m -11,2 C -7,7 C 4,8 km/h (1 Bft) 97,87 %
07.01.2017 14:40 -7,7 C 75 % 1034,8 hPa 0,0 l/m 3,5 km/h (1 Bft) W 265 0 min 0,000 mm 0,0 UV-I 90 W/m -11,3 C -7,7 C 4,8 km/h (1 Bft) 97,37 %
07.01.2017 14:42 -7,8 C 75 % 1034,8 hPa 0,0 l/m 3,1 km/h (1 Bft) W 265 0 min 0,000 mm 0,0 UV-I 89 W/m -11,4 C -7,8 C 6,4 km/h (2 Bft) 98,11 %
07.01.2017 14:44 -7,8 C 75 % 1034,7 hPa 0,0 l/m 2,5 km/h (1 Bft) W 265 0 min 0,000 mm 0,0 UV-I 87 W/m -11,4 C -7,8 C 4,8 km/h (1 Bft) 97,37 %
07.01.2017 14:46 -7,8 C 76 % 1034,7 hPa 0,0 l/m 4,7 km/h (1 Bft) W-SW 258 0 min 0,000 mm 0,0 UV-I 85 W/m -11,3 C -7,8 C 6,4 km/h (2 Bft) 96,00 %
07.01.2017 14:48 -7,8 C 75 % 1034,8 hPa 0,0 l/m 3,8 km/h (1 Bft) W-SW 250 0 min 0,000 mm 0,0 UV-I 84 W/m -11,4 C -7,8 C 8,0 km/h (2 Bft) 98,11 %
07.01.2017 14:50 -7,8 C 76 % 1034,8 hPa 0,0 l/m 3,8 km/h (1 Bft) W-SW 251 0 min 0,000 mm 0,0 UV-I 86 W/m -11,3 C -7,8 C 8,0 km/h (2 Bft) 97,37 %
07.01.2017 14:52 -7,8 C 75 % 1034,7 hPa 0,0 l/m 4,7 km/h (1 Bft) W-SW 248 0 min 0,000 mm 0,0 UV-I 88 W/m -11,4 C -7,8 C 8,0 km/h (2 Bft) 98,00 %
07.01.2017 14:54 -7,8 C 75 % 1034,7 hPa 0,0 l/m 2,9 km/h (1 Bft) W-SW 248 0 min 0,000 mm 0,0 UV-I 88 W/m -11,4 C -7,8 C 4,8 km/h (1 Bft) 97,87 %
07.01.2017 14:56 -7,8 C 75 % 1034,8 hPa 0,0 l/m 2,6 km/h (1 Bft) W-SW 248 0 min 0,000 mm 0,0 UV-I 86 W/m -11,4 C -7,8 C 4,8 km/h (1 Bft) 95,74 %
07.01.2017 14:58 -7,8 C 75 % 1034,8 hPa 0,0 l/m 2,1 km/h (1 Bft) W-SW 256 0 min 0,000 mm 0,0 UV-I 82 W/m -11,4 C -7,8 C 6,4 km/h (2 Bft) 93,62 %
07.01.2017 15:00 -7,8 C 75 % 1034,7 hPa 0,0 l/m 2,2 km/h (1 Bft) W 259 0 min 0,026 mm 0,0 UV-I 77 W/m -11,4 C -7,8 C 3,2 km/h (1 Bft) 98,00 %
07.01.2017 15:02 -7,8 C 75 % 1034,7 hPa 0,0 l/m 3,1 km/h (1 Bft) W 261 0 min 0,000 mm 0,0 UV-I 75 W/m -11,4 C -7,8 C 4,8 km/h (1 Bft) 98,00 %
07.01.2017 15:04 -7,9 C 75 % 1034,6 hPa 0,0 l/m 3,1 km/h (1 Bft) W 261 0 min 0,000 mm 0,0 UV-I 72 W/m -11,5 C -7,9 C 6,4 km/h (2 Bft) 97,44 %
07.01.2017 15:06 -7,9 C 75 % 1034,6 hPa 0,0 l/m 6,1 km/h (2 Bft) W-SW 244 0 min 0,000 mm 0,0 UV-I 72 W/m -11,5 C -7,9 C 12,9 km/h (3 Bft) 97,37 %
07.01.2017 15:08 -7,9 C 75 % 1034,6 hPa 0,0 l/m 8,8 km/h (2 Bft) W 259 0 min 0,000 mm 0,0 UV-I 70 W/m -11,5 C -10,9 C 12,9 km/h (3 Bft) 98,39 %
07.01.2017 15:10 -8,0 C 75 % 1034,6 hPa 0,0 l/m 5,9 km/h (2 Bft) W 260 0 min 0,000 mm 0,0 UV-I 66 W/m -11,6 C -8,0 C 9,7 km/h (2 Bft) 97,87 %
07.01.2017 15:12 -8,0 C 75 % 1034,6 hPa 0,0 l/m 2,5 km/h (1 Bft) W 260 0 min 0,000 mm 0,0 UV-I 62 W/m -11,6 C -8,0 C 4,8 km/h (1 Bft) 97,37 %
07.01.2017 15:14 -7,9 C 76 % 1034,6 hPa 0,0 l/m 3,8 km/h (1 Bft) W 268 0 min 0,000 mm 0,0 UV-I 57 W/m -11,4 C -7,9 C 11,3 km/h (2 Bft) 98,00 %
07.01.2017 15:16 -8,0 C 76 % 1034,6 hPa 0,0 l/m 5,2 km/h (1 Bft) W 264 0 min 0,000 mm 0,0 UV-I 55 W/m -11,5 C -8,0 C 11,3 km/h (2 Bft) 98,11 %
07.01.2017 15:18 -8,0 C 75 % 1034,6 hPa 0,0 l/m 3,4 km/h (1 Bft) W-SW 256 0 min 0,000 mm 0,0 UV-I 52 W/m -11,6 C -8,0 C 9,7 km/h (2 Bft) 97,37 %
07.01.2017 15:20 -8,0 C 75 % 1034,6 hPa 0,0 l/m 1,1 km/h (1 Bft) W-SW 256 0 min 0,000 mm 0,0 UV-I 50 W/m -11,6 C -8,0 C 3,2 km/h (1 Bft) 100,00 %
07.01.2017 15:22 -8,0 C 75 % 1034,6 hPa 0,0 l/m 1,2 km/h (1 Bft) W-SW 256 0 min 0,000 mm 0,0 UV-I 48 W/m -11,6 C -8,0 C 6,4 km/h (2 Bft) 100,00 %
07.01.2017 15:24 -8,0 C 75 % 1034,6 hPa 0,0 l/m 2,7 km/h (1 Bft) W-SW 256 0 min 0,000 mm 0,0 UV-I 47 W/m -11,6 C -8,0 C 8,0 km/h (2 Bft) 98,00 %
07.01.2017 15:26 -8,1 C 76 % 1034,6 hPa 0,0 l/m 0,7 km/h (0 Bft) W-SW 256 0 min 0,000 mm 0,0 UV-I 44 W/m -11,6 C -8,1 C 3,2 km/h (1 Bft) 100,00 %
07.01.2017 15:28 -8,1 C 76 % 1034,6 hPa 0,0 l/m 3,4 km/h (1 Bft) W-NW 292 0 min 0,000 mm 0,0 UV-I 42 W/m -11,6 C -8,1 C 6,4 km/h (2 Bft) 100,00 %
07.01.2017 15:30 -8,1 C 76 % 1034,6 hPa 0,0 l/m 3,3 km/h (1 Bft) W-NW 282 0 min 0,000 mm 0,0 UV-I 42 W/m -11,6 C -8,1 C 4,8 km/h (1 Bft) 100,00 %
07.01.2017 15:32 -8,1 C 76 % 1034,6 hPa 0,0 l/m 5,2 km/h (1 Bft) W-SW 257 0 min 0,000 mm 0,0 UV-I 42 W/m -11,6 C -8,1 C 11,3 km/h (2 Bft) 100,00 %
07.01.2017 15:34 -8,1 C 76 % 1034,5 hPa 0,0 l/m 5,9 km/h (2 Bft) W 279 0 min 0,000 mm 0,0 UV-I 42 W/m -11,6 C -8,1 C 9,7 km/h (2 Bft) 98,00 %
07.01.2017 15:36 -8,2 C 77 % 1034,5 hPa 0,0 l/m 2,1 km/h (1 Bft) W 275 0 min 0,000 mm 0,0 UV-I 40 W/m -11,5 C -8,2 C 4,8 km/h (1 Bft) 100,00 %
07.01.2017 15:38 -8,2 C 77 % 1034,5 hPa 0,0 l/m 4,3 km/h (1 Bft) W 281 0 min 0,000 mm 0,0 UV-I 39 W/m -11,5 C -8,2 C 6,4 km/h (2 Bft) 100,00 %
07.01.2017 15:40 -8,2 C 77 % 1034,5 hPa 0,0 l/m 2,6 km/h (1 Bft) W 278 0 min 0,000 mm 0,0 UV-I 39 W/m -11,5 C -8,2 C 4,8 km/h (1 Bft) 94,74 %
07.01.2017 15:42 -8,2 C 77 % 1034,5 hPa 0,0 l/m 2,9 km/h (1 Bft) W 260 0 min 0,000 mm 0,0 UV-I 39 W/m -11,5 C -8,2 C 6,4 km/h (2 Bft) 97,87 %
07.01.2017 15:44 -8,2 C 77 % 1034,5 hPa 0,0 l/m 4,0 km/h (1 Bft) W 260 0 min 0,000 mm 0,0 UV-I 39 W/m -11,5 C -8,2 C 4,8 km/h (1 Bft) 98,00 %
07.01.2017 15:46 -8,2 C 78 % 1034,5 hPa 0,0 l/m 3,6 km/h (1 Bft) W-SW 248 0 min 0,000 mm 0,0 UV-I 35 W/m -11,3 C -8,2 C 6,4 km/h (2 Bft) 100,00 %
07.01.2017 15:48 -8,2 C 78 % 1034,5 hPa 0,0 l/m 7,9 km/h (2 Bft) W-SW 248 0 min 0,000 mm 0,0 UV-I 32 W/m -11,3 C -10,1 C 14,5 km/h (3 Bft) 97,44 %
07.01.2017 15:50 -8,2 C 77 % 1034,3 hPa 0,0 l/m 8,2 km/h (2 Bft) W-SW 248 0 min 0,000 mm 0,0 UV-I 29 W/m -11,5 C -10,5 C 14,5 km/h (3 Bft) 98,31 %
07.01.2017 15:52 -8,2 C 77 % 1034,4 hPa 0,0 l/m 8,2 km/h (2 Bft) W-SW 257 0 min 0,000 mm 0,0 UV-I 26 W/m -11,5 C -10,5 C 12,9 km/h (3 Bft) 100,00 %
07.01.2017 15:54 -8,3 C 77 % 1034,3 hPa 0,0 l/m 7,8 km/h (2 Bft) SW 232 0 min 0,000 mm 0,0 UV-I 25 W/m -11,6 C -10,1 C 12,9 km/h (3 Bft) 100,00 %
07.01.2017 15:56 -8,3 C 77 % 1034,4 hPa 0,0 l/m 5,6 km/h (1 Bft) W-NW 284 0 min 0,000 mm 0,0 UV-I 23 W/m -11,6 C -8,3 C 6,4 km/h (2 Bft) 100,00 %
07.01.2017 15:58 -8,3 C 77 % 1034,4 hPa 0,0 l/m 5,4 km/h (1 Bft) W-SW 254 0 min 0,000 mm 0,0 UV-I 22 W/m -11,6 C -8,3 C 9,7 km/h (2 Bft) 100,00 %
07.01.2017 16:00 -8,3 C 77 % 1034,4 hPa 0,0 l/m 6,3 km/h (2 Bft) W 267 0 min 0,025 mm 0,0 UV-I 20 W/m -11,6 C -8,3 C 11,3 km/h (2 Bft) 100,00 %
07.01.2017 16:02 -8,4 C 77 % 1034,4 hPa 0,0 l/m 7,0 km/h (2 Bft) W 277 0 min 0,000 mm 0,0 UV-I 19 W/m -11,7 C -9,2 C 12,9 km/h (3 Bft) 100,00 %
07.01.2017 16:04 -8,4 C 77 % 1034,3 hPa 0,0 l/m 6,5 km/h (2 Bft) W-SW 250 0 min 0,000 mm 0,0 UV-I 18 W/m -11,7 C -8,5 C 8,0 km/h (2 Bft) 100,00 %
07.01.2017 16:06 -8,4 C 78 % 1034,3 hPa 0,0 l/m 7,0 km/h (2 Bft) W 271 0 min 0,000 mm 0,0 UV-I 17 W/m -11,5 C -9,2 C 11,3 km/h (2 Bft) 98,11 %
07.01.2017 16:08 -8,4 C 78 % 1034,3 hPa 0,0 l/m 4,9 km/h (1 Bft) W-SW 246 0 min 0,000 mm 0,0 UV-I 14 W/m -11,5 C -8,4 C 11,3 km/h (2 Bft) 97,37 %
07.01.2017 16:10 -8,4 C 78 % 1034,3 hPa 0,0 l/m 4,9 km/h (1 Bft) W-SW 255 0 min 0,000 mm 0,0 UV-I 12 W/m -11,5 C -8,4 C 6,4 km/h (2 Bft) 100,00 %
07.01.2017 16:12 -8,4 C 79 % 1034,3 hPa 0,0 l/m 4,6 km/h (1 Bft) W 267 0 min 0,000 mm 0,0 UV-I 11 W/m -11,4 C -8,4 C 9,7 km/h (2 Bft) 98,00 %
07.01.2017 16:14 -8,4 C 79 % 1034,3 hPa 0,0 l/m 4,7 km/h (1 Bft) W 274 2 min 0,000 mm 0,0 UV-I 10 W/m -11,4 C -8,4 C 9,7 km/h (2 Bft) 100,00 %
07.01.2017 16:16 -8,4 C 79 % 1034,3 hPa 0,0 l/m 6,3 km/h (2 Bft) W 279 0 min 0,000 mm 0,0 UV-I 9 W/m -11,4 C -8,4 C 9,7 km/h (2 Bft) 100,00 %
07.01.2017 16:18 -8,4 C 78 % 1034,4 hPa 0,0 l/m 6,7 km/h (2 Bft) W-SW 251 0 min 0,000 mm 0,0 UV-I 7 W/m -11,5 C -8,8 C 11,3 km/h (2 Bft) 94,74 %
07.01.2017 16:20 -8,5 C 78 % 1034,4 hPa 0,0 l/m 3,3 km/h (1 Bft) W 278 0 min 0,000 mm 0,0 UV-I 7 W/m -11,6 C -8,5 C 6,4 km/h (2 Bft) 100,00 %
07.01.2017 16:22 -8,5 C 78 % 1034,5 hPa 0,0 l/m 7,2 km/h (2 Bft) W 259 0 min 0,000 mm 0,0 UV-I 5 W/m -11,6 C -9,5 C 12,9 km/h (3 Bft) 97,22 %
07.01.2017 16:24 -8,5 C 77 % 1034,5 hPa 0,0 l/m 5,0 km/h (1 Bft) W-SW 251 0 min 0,000 mm 0,0 UV-I 5 W/m -11,8 C -8,5 C 8,0 km/h (2 Bft) 100,00 %
07.01.2017 16:26 -8,6 C 77 % 1034,5 hPa 0,0 l/m 4,0 km/h (1 Bft) W 278 0 min 0,000 mm 0,0 UV-I 5 W/m -11,9 C -8,6 C 6,4 km/h (2 Bft) 100,00 %
07.01.2017 16:28 -8,6 C 77 % 1034,4 hPa 0,0 l/m 2,9 km/h (1 Bft) W 281 0 min 0,000 mm 0,0 UV-I 5 W/m -11,9 C -8,6 C 4,8 km/h (1 Bft) 100,00 %
07.01.2017 16:30 -8,6 C 78 % 1034,4 hPa 0,0 l/m 1,6 km/h (1 Bft) W 281 0 min 0,000 mm 0,0 UV-I 5 W/m -11,7 C -8,6 C 3,2 km/h (1 Bft) 100,00 %
07.01.2017 16:32 -8,6 C 78 % 1034,4 hPa 0,0 l/m 4,2 km/h (1 Bft) W 278 0 min 0,000 mm 0,0 UV-I 0 W/m -11,7 C -8,6 C 6,4 km/h (2 Bft) 100,00 %
07.01.2017 16:34 -8,6 C 78 % 1034,4 hPa 0,0 l/m 3,1 km/h (1 Bft) W 277 0 min 0,000 mm 0,0 UV-I 0 W/m -11,7 C -8,6 C 4,8 km/h (1 Bft) 100,00 %
07.01.2017 16:36 -8,6 C 77 % 1034,3 hPa 0,0 l/m 4,1 km/h (1 Bft) W-SW 258 0 min 0,000 mm 0,0 UV-I 0 W/m -11,9 C -8,6 C 8,0 km/h (2 Bft) 100,00 %
07.01.2017 16:38 -8,6 C 77 % 1034,4 hPa 0,0 l/m 4,3 km/h (1 Bft) W 266 0 min 0,000 mm 0,0 UV-I 0 W/m -11,9 C -8,6 C 11,3 km/h (2 Bft) 95,74 %
07.01.2017 16:40 -8,6 C 76 % 1034,3 hPa 0,0 l/m 5,8 km/h (2 Bft) W-NW 282 0 min 0,000 mm 0,0 UV-I 0 W/m -12,0 C -8,6 C 9,7 km/h (2 Bft) 97,37 %
07.01.2017 16:42 -8,6 C 76 % 1034,3 hPa 0,0 l/m 1,7 km/h (1 Bft) W 267 0 min 0,000 mm 0,0 UV-I 0 W/m -12,0 C -8,6 C 4,8 km/h (1 Bft) 95,74 %
07.01.2017 16:44 -8,6 C 77 % 1034,3 hPa 0,0 l/m 2,2 km/h (1 Bft) W 267 0 min 0,000 mm 0,0 UV-I 0 W/m -11,9 C -8,6 C 4,8 km/h (1 Bft) 98,00 %
07.01.2017 16:46 -8,6 C 77 % 1034,3 hPa 0,0 l/m 1,4 km/h (1 Bft) W 267 0 min 0,000 mm 0,0 UV-I 0 W/m -11,9 C -8,6 C 4,8 km/h (1 Bft) 94,74 %
07.01.2017 16:48 -8,6 C 77 % 1034,3 hPa 0,0 l/m 2,2 km/h (1 Bft) W 267 0 min 0,000 mm 0,0 UV-I 0 W/m -11,9 C -8,6 C 3,2 km/h (1 Bft) 98,00 %
07.01.2017 16:50 -8,6 C 77 % 1034,3 hPa 0,0 l/m 3,4 km/h (1 Bft) W 267 0 min 0,000 mm 0,0 UV-I 0 W/m -11,9 C -8,6 C 6,4 km/h (2 Bft) 94,00 %
07.01.2017 16:52 -8,6 C 77 % 1034,2 hPa 0,0 l/m 5,3 km/h (1 Bft) W-SW 258 0 min 0,000 mm 0,0 UV-I 0 W/m -11,9 C -8,6 C 9,7 km/h (2 Bft) 96,00 %
07.01.2017 16:54 -8,7 C 77 % 1034,2 hPa 0,0 l/m 4,4 km/h (1 Bft) W-SW 244 0 min 0,000 mm 0,0 UV-I 0 W/m -12,0 C -8,7 C 6,4 km/h (2 Bft) 96,00 %
07.01.2017 16:56 -8,7 C 77 % 1034,2 hPa 0,0 l/m 4,2 km/h (1 Bft) W 269 0 min 0,000 mm 0,0 UV-I 0 W/m -12,0 C -8,7 C 6,4 km/h (2 Bft) 97,73 %
07.01.2017 16:58 -8,6 C 77 % 1034,2 hPa 0,0 l/m 4,7 km/h (1 Bft) W 265 0 min 0,000 mm 0,0 UV-I 0 W/m -11,9 C -8,6 C 6,4 km/h (2 Bft) 96,30 %
07.01.2017 17:00 -8,7 C 77 % 1034,2 hPa 0,0 l/m 4,9 km/h (1 Bft) W 265 0 min 0,000 mm 0,0 UV-I 0 W/m -12,0 C -8,7 C 6,4 km/h (2 Bft) 96,72 %
07.01.2017 17:02 -8,7 C 78 % 1034,2 hPa 0,0 l/m 3,2 km/h (1 Bft) W 265 0 min 0,000 mm 0,0 UV-I 0 W/m -11,8 C -8,7 C 6,4 km/h (2 Bft) 98,11 %
07.01.2017 17:04 -8,7 C 79 % 1034,1 hPa 0,0 l/m 1,5 km/h (1 Bft) W 265 0 min 0,000 mm 0,0 UV-I 0 W/m -11,7 C -8,7 C 3,2 km/h (1 Bft) 98,00 %
07.01.2017 17:06 -8,7 C 80 % 1034,1 hPa 0,0 l/m 2,0 km/h (1 Bft) W 265 0 min 0,000 mm 0,0 UV-I 0 W/m -11,5 C -8,7 C 4,8 km/h (1 Bft) 97,22 %
07.01.2017 17:08 -8,7 C 80 % 1034,1 hPa 0,0 l/m 1,8 km/h (1 Bft) W 265 0 min 0,000 mm 0,0 UV-I 0 W/m -11,5 C -8,7 C 3,2 km/h (1 Bft) 98,00 %
07.01.2017 17:10 -8,8 C 80 % 1034,1 hPa 0,0 l/m 0,5 km/h (0 Bft) W 265 0 min 0,000 mm 0,0 UV-I 0 W/m -11,6 C -8,8 C 3,2 km/h (1 Bft) 98,00 %
07.01.2017 17:12 -8,8 C 81 % 1034,1 hPa 0,0 l/m 2,0 km/h (1 Bft) W 265 0 min 0,000 mm 0,0 UV-I 0 W/m -11,5 C -8,8 C 3,2 km/h (1 Bft) 96,00 %
07.01.2017 17:14 -8,8 C 81 % 1034,1 hPa 0,0 l/m 3,2 km/h (1 Bft) W 259 0 min 0,000 mm 0,0 UV-I 0 W/m -11,5 C -8,8 C 6,4 km/h (2 Bft) 100,00 %
07.01.2017 17:16 -8,8 C 82 % 1034,1 hPa 0,0 l/m 2,4 km/h (1 Bft) W 259 0 min 0,000 mm 0,0 UV-I 0 W/m -11,3 C -8,8 C 3,2 km/h (1 Bft) 98,00 %
07.01.2017 17:18 -8,8 C 82 % 1034,1 hPa 0,0 l/m 2,8 km/h (1 Bft) W 259 0 min 0,000 mm 0,0 UV-I 0 W/m -11,3 C -8,8 C 4,8 km/h (1 Bft) 100,00 %
07.01.2017 17:20 -8,8 C 83 % 1034,1 hPa 0,0 l/m 2,9 km/h (1 Bft) W 259 0 min 0,000 mm 0,0 UV-I 0 W/m -11,1 C -8,8 C 4,8 km/h (1 Bft) 92,68 %
07.01.2017 17:22 -8,8 C 83 % 1034,1 hPa 0,0 l/m 2,2 km/h (1 Bft) W 259 0 min 0,000 mm 0,0 UV-I 0 W/m -11,1 C -8,8 C 4,8 km/h (1 Bft) 100,00 %
07.01.2017 17:24 -8,8 C 83 % 1034,0 hPa 0,0 l/m 3,4 km/h (1 Bft) W 259 0 min 0,000 mm 0,0 UV-I 0 W/m -11,1 C -8,8 C 4,8 km/h (1 Bft) 100,00 %
07.01.2017 17:26 -8,8 C 83 % 1034,0 hPa 0,0 l/m 1,7 km/h (1 Bft) W 259 0 min 0,000 mm 0,0 UV-I 0 W/m -11,1 C -8,8 C 3,2 km/h (1 Bft) 100,00 %
07.01.2017 17:28 -8,8 C 84 % 1033,9 hPa 0,0 l/m 1,0 km/h (0 Bft) W 259 0 min 0,000 mm 0,0 UV-I 0 W/m -11,0 C -8,8 C 4,8 km/h (1 Bft) 98,31 %
07.01.2017 17:30 -8,8 C 84 % 1033,9 hPa 0,0 l/m 2,6 km/h (1 Bft) W 259 0 min 0,000 mm 0,0 UV-I 0 W/m -11,0 C -8,8 C 4,8 km/h (1 Bft) 100,00 %
07.01.2017 17:32 -8,8 C 85 % 1033,8 hPa 0,0 l/m 1,7 km/h (1 Bft) W 259 0 min 0,000 mm 0,0 UV-I 0 W/m -10,9 C -8,8 C 4,8 km/h (1 Bft) 100,00 %
07.01.2017 17:34 -8,8 C 85 % 1033,9 hPa 0,0 l/m 1,6 km/h (1 Bft) W 259 0 min 0,000 mm 0,0 UV-I 0 W/m -10,9 C -8,8 C 4,8 km/h (1 Bft) 100,00 %
07.01.2017 17:36 -8,8 C 85 % 1033,8 hPa 0,0 l/m 0,5 km/h (0 Bft) W 259 0 min 0,000 mm 0,0 UV-I 0 W/m -10,9 C -8,8 C 1,6 km/h (1 Bft) 100,00 %
07.01.2017 17:38 -8,8 C 85 % 1033,8 hPa 0,0 l/m 1,6 km/h (1 Bft) W 259 0 min 0,000 mm 0,0 UV-I 0 W/m -10,9 C -8,8 C 3,2 km/h (1 Bft) 100,00 %
07.01.2017 17:40 -8,8 C 86 % 1033,7 hPa 0,0 l/m 1,9 km/h (1 Bft) W 259 0 min 0,000 mm 0,0 UV-I 0 W/m -10,7 C -8,8 C 4,8 km/h (1 Bft) 100,00 %
07.01.2017 17:42 -8,8 C 86 % 1033,7 hPa 0,0 l/m 3,7 km/h (1 Bft) W-SW 248 0 min 0,000 mm 0,0 UV-I 0 W/m -10,7 C -8,8 C 6,4 km/h (2 Bft) 97,37 %
07.01.2017 17:44 -8,8 C 86 % 1033,6 hPa 0,0 l/m 0,3 km/h (0 Bft) W-SW 248 0 min 0,000 mm 0,0 UV-I 0 W/m -10,7 C -8,8 C 3,2 km/h (1 Bft) 100,00 %
07.01.2017 17:46 -8,8 C 87 % 1033,6 hPa 0,0 l/m 0,1 km/h (0 Bft) W-SW 248 0 min 0,000 mm 0,0 UV-I 0 W/m -10,6 C -8,8 C 1,6 km/h (1 Bft) 100,00 %
07.01.2017 17:48 -8,8 C 87 % 1033,5 hPa 0,0 l/m 0,1 km/h (0 Bft) W-SW 248 0 min 0,000 mm 0,0 UV-I 0 W/m -10,6 C -8,8 C 1,6 km/h (1 Bft) 100,00 %
07.01.2017 17:50 -8,8 C 87 % 1033,5 hPa 0,0 l/m 0,8 km/h (0 Bft) W-SW 248 0 min 0,000 mm 0,0 UV-I 0 W/m -10,6 C -8,8 C 3,2 km/h (1 Bft) 100,00 %
07.01.2017 17:52 -8,8 C 87 % 1033,5 hPa 0,0 l/m 1,0 km/h (0 Bft) W-SW 248 0 min 0,000 mm 0,0 UV-I 0 W/m -10,6 C -8,8 C 3,2 km/h (1 Bft) 100,00 %
07.01.2017 17:54 -8,8 C 87 % 1033,4 hPa 0,0 l/m 0,9 km/h (0 Bft) W-SW 248 0 min 0,000 mm 0,0 UV-I 0 W/m -10,6 C -8,8 C 1,6 km/h (1 Bft) 100,00 %
07.01.2017 17:56 -8,8 C 87 % 1033,4 hPa 0,0 l/m 1,8 km/h (1 Bft) W-SW 248 0 min 0,000 mm 0,0 UV-I 0 W/m -10,6 C -8,8 C 3,2 km/h (1 Bft) 100,00 %
07.01.2017 17:58 -8,8 C 87 % 1033,2 hPa 0,0 l/m 2,9 km/h (1 Bft) S 190 0 min 0,000 mm 0,0 UV-I 0 W/m -10,6 C -8,8 C 4,8 km/h (1 Bft) 98,00 %
07.01.2017 18:00 -8,8 C 88 % 1033,2 hPa 0,0 l/m 4,9 km/h (1 Bft) O-SO 115 0 min 0,000 mm 0,0 UV-I 0 W/m -10,4 C -8,8 C 6,4 km/h (2 Bft) 100,00 %
07.01.2017 18:03 -8,7 C 88 % 1033,0 hPa 0,0 l/m 5,6 km/h (1 Bft) O 88 0 min 0,000 mm 0,0 UV-I 0 W/m -10,3 C -8,7 C 6,4 km/h (2 Bft) 100,00 %
07.01.2017 18:04 -8,7 C 88 % 1033,0 hPa 0,0 l/m 4,2 km/h (1 Bft) O 90 0 min 0,000 mm 0,0 UV-I 0 W/m -10,3 C -8,7 C 4,8 km/h (1 Bft) 100,00 %
07.01.2017 18:06 -8,7 C 88 % 1033,0 hPa 0,0 l/m 3,1 km/h (1 Bft) O-SO 109 0 min 0,000 mm 0,0 UV-I 0 W/m -10,3 C -8,7 C 6,4 km/h (2 Bft) 100,00 %
07.01.2017 18:08 -8,7 C 88 % 1033,1 hPa 0,0 l/m 0,7 km/h (0 Bft) O-SO 109 0 min 0,000 mm 0,0 UV-I 0 W/m -10,3 C -8,7 C 3,2 km/h (1 Bft) 100,00 %
07.01.2017 18:10 -8,6 C 88 % 1033,3 hPa 0,0 l/m 3,7 km/h (1 Bft) NW 307 0 min 0,000 mm 0,0 UV-I 0 W/m -10,2 C -8,6 C 6,4 km/h (2 Bft) 100,00 %
07.01.2017 18:12 -8,7 C 88 % 1033,4 hPa 0,0 l/m 1,1 km/h (1 Bft) NW 310 0 min 0,000 mm 0,0 UV-I 0 W/m -10,3 C -8,7 C 4,8 km/h (1 Bft) 100,00 %
07.01.2017 18:14 -8,6 C 88 % 1033,4 hPa 0,0 l/m 0,5 km/h (0 Bft) NW 310 0 min 0,000 mm 0,0 UV-I 0 W/m -10,2 C -8,6 C 1,6 km/h (1 Bft) 100,00 %
07.01.2017 18:16 -8,7 C 88 % 1033,4 hPa 0,0 l/m 2,5 km/h (1 Bft) NW 309 0 min 0,000 mm 0,0 UV-I 0 W/m -10,3 C -8,7 C 4,8 km/h (1 Bft) 100,00 %
07.01.2017 18:18 -8,7 C 88 % 1033,4 hPa 0,0 l/m 2,0 km/h (1 Bft) NW 325 0 min 0,000 mm 0,0 UV-I 0 W/m -10,3 C -8,7 C 4,8 km/h (1 Bft) 100,00 %
07.01.2017 18:20 -8,8 C 88 % 1033,4 hPa 0,0 l/m 3,5 km/h (1 Bft) NW 319 0 min 0,000 mm 0,0 UV-I 0 W/m -10,4 C -8,8 C 6,4 km/h (2 Bft) 100,00 %
07.01.2017 18:22 -8,8 C 88 % 1033,4 hPa 0,0 l/m 1,5 km/h (1 Bft) NW 319 0 min 0,000 mm 0,0 UV-I 0 W/m -10,4 C -8,8 C 3,2 km/h (1 Bft) 97,87 %
07.01.2017 18:24 -8,8 C 88 % 1033,4 hPa 0,0 l/m 2,1 km/h (1 Bft) NW 306 0 min 0,000 mm 0,0 UV-I 0 W/m -10,4 C -8,8 C 4,8 km/h (1 Bft) 100,00 %
07.01.2017 18:26 -8,9 C 88 % 1033,3 hPa 0,0 l/m 1,7 km/h (1 Bft) NW 326 0 min 0,000 mm 0,0 UV-I 0 W/m -10,5 C -8,9 C 4,8 km/h (1 Bft) 100,00 %
07.01.2017 18:28 -8,9 C 88 % 1033,4 hPa 0,0 l/m 1,9 km/h (1 Bft) N-NW 329 0 min 0,000 mm 0,0 UV-I 0 W/m -10,5 C -8,9 C 4,8 km/h (1 Bft) 100,00 %
07.01.2017 18:30 -8,9 C 88 % 1033,3 hPa 0,0 l/m 1,8 km/h (1 Bft) N-NW 340 0 min 0,000 mm 0,0 UV-I 0 W/m -10,5 C -8,9 C 4,8 km/h (1 Bft) 98,11 %
07.01.2017 18:32 -9,0 C 88 % 1033,3 hPa 0,0 l/m 0,8 km/h (0 Bft) N-NW 336 0 min 0,000 mm 0,0 UV-I 0 W/m -10,6 C -9,0 C 1,6 km/h (1 Bft) 100,00 %
07.01.2017 18:34 -9,1 C 89 % 1033,3 hPa 0,0 l/m 2,0 km/h (1 Bft) NW 306 0 min 0,000 mm 0,0 UV-I 0 W/m -10,6 C -9,1 C 3,2 km/h (1 Bft) 100,00 %
07.01.2017 18:36 -9,2 C 89 % 1033,3 hPa 0,0 l/m 1,3 km/h (1 Bft) N 355 0 min 0,000 mm 0,0 UV-I 0 W/m -10,7 C -9,2 C 3,2 km/h (1 Bft) 100,00 %
07.01.2017 18:38 -9,2 C 89 % 1033,3 hPa 0,0 l/m 0,8 km/h (0 Bft) NW 323 0 min 0,000 mm 0,0 UV-I 0 W/m -10,7 C -9,2 C 3,2 km/h (1 Bft) 100,00 %
07.01.2017 18:40 -9,2 C 89 % 1033,3 hPa 0,0 l/m 1,5 km/h (1 Bft) NW 317 0 min 0,000 mm 0,0 UV-I 0 W/m -10,7 C -9,2 C 4,8 km/h (1 Bft) 98,00 %
07.01.2017 18:42 -9,3 C 89 % 1033,3 hPa 0,0 l/m 1,2 km/h (1 Bft) N-NW 329 0 min 0,000 mm 0,0 UV-I 0 W/m -10,8 C -9,3 C 3,2 km/h (1 Bft) 97,56 %
07.01.2017 18:44 -9,3 C 89 % 1033,3 hPa 0,0 l/m 2,1 km/h (1 Bft) NW 316 0 min 0,000 mm 0,0 UV-I 0 W/m -10,8 C -9,3 C 4,8 km/h (1 Bft) 98,00 %
07.01.2017 18:46 -9,3 C 89 % 1033,3 hPa 0,0 l/m 0,2 km/h (0 Bft) NW 316 0 min 0,000 mm 0,0 UV-I 0 W/m -10,8 C -9,3 C 1,6 km/h (1 Bft) 95,12 %
07.01.2017 18:48 -9,3 C 89 % 1033,3 hPa 0,0 l/m 1,9 km/h (1 Bft) NW 320 0 min 0,000 mm 0,0 UV-I 0 W/m -10,8 C -9,3 C 3,2 km/h (1 Bft) 98,21 %
07.01.2017 18:50 -9,3 C 89 % 1033,3 hPa 0,0 l/m 1,6 km/h (1 Bft) NW 319 0 min 0,000 mm 0,0 UV-I 0 W/m -10,8 C -9,3 C 4,8 km/h (1 Bft) 94,74 %
07.01.2017 18:52 -9,3 C 89 % 1033,3 hPa 0,0 l/m 2,3 km/h (1 Bft) NW 313 0 min 0,000 mm 0,0 UV-I 0 W/m -10,8 C -9,3 C 4,8 km/h (1 Bft) 98,00 %
07.01.2017 18:54 -9,3 C 89 % 1033,3 hPa 0,0 l/m 2,5 km/h (1 Bft) W-NW 303 0 min 0,000 mm 0,0 UV-I 0 W/m -10,8 C -9,3 C 4,8 km/h (1 Bft) 98,11 %
07.01.2017 18:56 -9,3 C 89 % 1033,3 hPa 0,0 l/m 0,3 km/h (0 Bft) W-NW 303 0 min 0,000 mm 0,0 UV-I 0 W/m -10,8 C -9,3 C 1,6 km/h (1 Bft) 93,62 %
07.01.2017 18:58 -9,3 C 89 % 1033,2 hPa 0,0 l/m 0,3 km/h (0 Bft) W-NW 303 0 min 0,000 mm 0,0 UV-I 0 W/m -10,8 C -9,3 C 1,6 km/h (1 Bft) 100,00 %
07.01.2017 19:00 -9,2 C 89 % 1033,3 hPa 0,0 l/m 0,3 km/h (0 Bft) W-NW 303 0 min 0,000 mm 0,0 UV-I 0 W/m -10,7 C -9,2 C 1,6 km/h (1 Bft) 96,72 %
07.01.2017 19:02 -9,2 C 89 % 1033,2 hPa 0,0 l/m 0,8 km/h (0 Bft) W-NW 303 0 min 0,000 mm 0,0 UV-I 0 W/m -10,7 C -9,2 C 3,2 km/h (1 Bft) 98,00 %
07.01.2017 19:04 -9,1 C 89 % 1033,2 hPa 0,0 l/m 1,7 km/h (1 Bft) W-NW 300 0 min 0,000 mm 0,0 UV-I 0 W/m -10,6 C -9,1 C 4,8 km/h (1 Bft) 95,74 %
07.01.2017 19:06 -9,1 C 88 % 1033,2 hPa 0,0 l/m 0,9 km/h (0 Bft) W-NW 296 0 min 0,000 mm 0,0 UV-I 0 W/m -10,7 C -9,1 C 4,8 km/h (1 Bft) 97,87 %
07.01.2017 19:08 -9,1 C 88 % 1033,2 hPa 0,0 l/m 0,9 km/h (0 Bft) W-NW 296 0 min 0,000 mm 0,0 UV-I 0 W/m -10,7 C -9,1 C 3,2 km/h (1 Bft) 97,87 %
07.01.2017 19:10 -9,1 C 87 % 1033,1 hPa 0,0 l/m 1,1 km/h (1 Bft) W-NW 302 0 min 0,000 mm 0,0 UV-I 0 W/m -10,9 C -9,1 C 3,2 km/h (1 Bft) 97,92 %
07.01.2017 19:12 -9,1 C 87 % 1033,1 hPa 0,0 l/m 2,0 km/h (1 Bft) NW 305 0 min 0,000 mm 0,0 UV-I 0 W/m -10,9 C -9,1 C 4,8 km/h (1 Bft) 97,37 %
07.01.2017 19:14 -9,1 C 87 % 1033,2 hPa 0,0 l/m 0,9 km/h (0 Bft) NW 306 0 min 0,000 mm 0,0 UV-I 0 W/m -10,9 C -9,1 C 3,2 km/h (1 Bft) 98,15 %
07.01.2017 19:16 -9,1 C 86 % 1033,1 hPa 0,0 l/m 1,3 km/h (1 Bft) W-NW 300 0 min 0,000 mm 0,0 UV-I 0 W/m -11,0 C -9,1 C 6,4 km/h (2 Bft) 93,62 %
07.01.2017 19:18 -9,1 C 86 % 1033,1 hPa 0,0 l/m 1,9 km/h (1 Bft) W-NW 303 0 min 0,000 mm 0,0 UV-I 0 W/m -11,0 C -9,1 C 4,8 km/h (1 Bft) 98,00 %
07.01.2017 19:20 -9,1 C 86 % 1033,0 hPa 0,0 l/m 2,3 km/h (1 Bft) W-NW 296 0 min 0,000 mm 0,0 UV-I 0 W/m -11,0 C -9,1 C 4,8 km/h (1 Bft) 100,00 %
07.01.2017 19:22 -9,0 C 85 % 1033,1 hPa 0,0 l/m 1,6 km/h (1 Bft) NW 317 0 min 0,000 mm 0,0 UV-I 0 W/m -11,0 C -9,0 C 4,8 km/h (1 Bft) 100,00 %
07.01.2017 19:24 -9,1 C 85 % 1033,1 hPa 0,0 l/m 2,4 km/h (1 Bft) W-NW 284 0 min 0,000 mm 0,0 UV-I 0 W/m -11,1 C -9,1 C 4,8 km/h (1 Bft) 100,00 %
07.01.2017 19:26 -9,0 C 85 % 1033,1 hPa 0,0 l/m 1,0 km/h (0 Bft) W-NW 284 0 min 0,000 mm 0,0 UV-I 0 W/m -11,0 C -9,0 C 1,6 km/h (1 Bft) 98,11 %
07.01.2017 19:28 -9,0 C 85 % 1033,1 hPa 0,0 l/m 2,5 km/h (1 Bft) NW 315 0 min 0,000 mm 0,0 UV-I 0 W/m -11,0 C -9,0 C 4,8 km/h (1 Bft) 100,00 %
07.01.2017 19:30 -9,0 C 85 % 1033,0 hPa 0,0 l/m 0,9 km/h (0 Bft) NW 315 0 min 0,000 mm 0,0 UV-I 0 W/m -11,0 C -9,0 C 3,2 km/h (1 Bft) 98,11 %
07.01.2017 19:32 -9,0 C 85 % 1032,9 hPa 0,0 l/m 1,3 km/h (1 Bft) NW 315 0 min 0,000 mm 0,0 UV-I 0 W/m -11,0 C -9,0 C 3,2 km/h (1 Bft) 100,00 %
07.01.2017 19:34 -9,0 C 85 % 1032,8 hPa 0,0 l/m 0,4 km/h (0 Bft) NW 315 0 min 0,000 mm 0,0 UV-I 0 W/m -11,0 C -9,0 C 1,6 km/h (1 Bft) 97,37 %
07.01.2017 19:36 -8,9 C 85 % 1032,9 hPa 0,0 l/m 0,0 km/h (0 Bft) NW 315 0 min 0,000 mm 0,0 UV-I 0 W/m -10,9 C -8,9 C 1,6 km/h (1 Bft) 100,00 %
07.01.2017 19:38 -8,9 C 84 % 1032,9 hPa 0,0 l/m 1,9 km/h (1 Bft) NW 315 0 min 0,000 mm 0,0 UV-I 0 W/m -11,1 C -8,9 C 4,8 km/h (1 Bft) 100,00 %
07.01.2017 19:40 -8,9 C 84 % 1033,0 hPa 0,0 l/m 3,0 km/h (1 Bft) NW 315 0 min 0,000 mm 0,0 UV-I 0 W/m -11,1 C -8,9 C 4,8 km/h (1 Bft) 95,74 %
07.01.2017 19:42 -8,9 C 84 % 1033,1 hPa 0,0 l/m 2,8 km/h (1 Bft) NW 304 0 min 0,000 mm 0,0 UV-I 0 W/m -11,1 C -8,9 C 4,8 km/h (1 Bft) 100,00 %
07.01.2017 19:44 -8,9 C 84 % 1033,1 hPa 0,0 l/m 1,4 km/h (1 Bft) NW 305 0 min 0,000 mm 0,0 UV-I 0 W/m -11,1 C -8,9 C 3,2 km/h (1 Bft) 100,00 %
07.01.2017 19:46 -8,9 C 84 % 1033,1 hPa 0,0 l/m 0,4 km/h (0 Bft) NW 305 0 min 0,000 mm 0,0 UV-I 0 W/m -11,1 C -8,9 C 3,2 km/h (1 Bft) 92,11 %
07.01.2017 19:48 -8,9 C 84 % 1033,1 hPa 0,0 l/m 0,0 km/h (0 Bft) NW 305 0 min 0,000 mm 0,0 UV-I 0 W/m -11,1 C -8,9 C 1,6 km/h (1 Bft) 100,00 %
07.01.2017 19:50 -8,9 C 85 % 1033,1 hPa 0,0 l/m 0,7 km/h (0 Bft) NW 305 0 min 0,000 mm 0,0 UV-I 0 W/m -10,9 C -8,9 C 3,2 km/h (1 Bft) 100,00 %
07.01.2017 19:52 -8,9 C 85 % 1033,0 hPa 0,0 l/m 0,1 km/h (0 Bft) NW 305 0 min 0,000 mm 0,0 UV-I 0 W/m -10,9 C -8,9 C 1,6 km/h (1 Bft) 100,00 %
07.01.2017 19:54 -8,9 C 84 % 1033,0 hPa 0,0 l/m 0,7 km/h (0 Bft) NW 306 0 min 0,000 mm 0,0 UV-I 0 W/m -11,1 C -8,9 C 3,2 km/h (1 Bft) 98,08 %
07.01.2017 19:56 -8,9 C 84 % 1033,0 hPa 0,0 l/m 2,8 km/h (1 Bft) W 267 0 min 0,000 mm 0,0 UV-I 0 W/m -11,1 C -8,9 C 4,8 km/h (1 Bft) 100,00 %
07.01.2017 19:58 -8,9 C 84 % 1033,1 hPa 0,0 l/m 3,9 km/h (1 Bft) W-NW 290 0 min 0,000 mm 0,0 UV-I 0 W/m -11,1 C -8,9 C 6,4 km/h (2 Bft) 100,00 %
07.01.2017 20:00 -8,8 C 84 % 1033,1 hPa 0,0 l/m 2,7 km/h (1 Bft) W-NW 297 0 min 0,000 mm 0,0 UV-I 0 W/m -11,0 C -8,8 C 4,8 km/h (1 Bft) 100,00 %
07.01.2017 20:02 -8,8 C 84 % 1033,1 hPa 0,0 l/m 2,3 km/h (1 Bft) W-NW 300 0 min 0,000 mm 0,0 UV-I 0 W/m -11,0 C -8,8 C 4,8 km/h (1 Bft) 100,00 %
07.01.2017 20:04 -8,8 C 84 % 1033,2 hPa 0,0 l/m 3,1 km/h (1 Bft) W-NW 294 0 min 0,000 mm 0,0 UV-I 0 W/m -11,0 C -8,8 C 6,4 km/h (2 Bft) 100,00 %
07.01.2017 20:06 -8,8 C 83 % 1033,3 hPa 0,0 l/m 6,8 km/h (2 Bft) W-NW 291 0 min 0,000 mm 0,0 UV-I 0 W/m -11,1 C -9,3 C 9,7 km/h (2 Bft) 98,11 %
07.01.2017 20:08 -8,8 C 83 % 1033,3 hPa 0,0 l/m 2,2 km/h (1 Bft) W-NW 291 0 min 0,000 mm 0,0 UV-I 0 W/m -11,1 C -8,8 C 4,8 km/h (1 Bft) 100,00 %
07.01.2017 20:10 -8,8 C 83 % 1033,1 hPa 0,0 l/m 2,0 km/h (1 Bft) W 281 0 min 0,000 mm 0,0 UV-I 0 W/m -11,1 C -8,8 C 4,8 km/h (1 Bft) 98,00 %
07.01.2017 20:12 -8,8 C 83 % 1033,1 hPa 0,0 l/m 1,4 km/h (1 Bft) W-NW 283 0 min 0,000 mm 0,0 UV-I 0 W/m -11,1 C -8,8 C 3,2 km/h (1 Bft) 98,11 %
07.01.2017 20:14 -8,8 C 83 % 1033,0 hPa 0,0 l/m 1,4 km/h (1 Bft) W-NW 283 0 min 0,000 mm 0,0 UV-I 0 W/m -11,1 C -8,8 C 4,8 km/h (1 Bft) 100,00 %
07.01.2017 20:16 -8,8 C 83 % 1033,1 hPa 0,0 l/m 5,2 km/h (1 Bft) W-SW 253 0 min 0,000 mm 0,0 UV-I 0 W/m -11,1 C -8,8 C 8,0 km/h (2 Bft) 100,00 %
07.01.2017 20:18 -8,8 C 82 % 1033,2 hPa 0,0 l/m 8,1 km/h (2 Bft) W 264 0 min 0,000 mm 0,0 UV-I 0 W/m -11,3 C -11,0 C 12,9 km/h (3 Bft) 100,00 %
07.01.2017 20:20 -8,8 C 82 % 1033,1 hPa 0,0 l/m 5,8 km/h (2 Bft) W 269 0 min 0,000 mm 0,0 UV-I 0 W/m -11,3 C -8,8 C 11,3 km/h (2 Bft) 100,00 %
07.01.2017 20:22 -8,8 C 82 % 1033,1 hPa 0,0 l/m 4,5 km/h (1 Bft) W 274 0 min 0,000 mm 0,0 UV-I 0 W/m -11,3 C -8,8 C 6,4 km/h (2 Bft) 98,00 %
07.01.2017 20:24 -8,8 C 82 % 1032,9 hPa 0,0 l/m 4,1 km/h (1 Bft) W 275 0 min 0,000 mm 0,0 UV-I 0 W/m -11,3 C -8,8 C 6,4 km/h (2 Bft) 100,00 %
07.01.2017 20:26 -8,8 C 82 % 1032,9 hPa 0,0 l/m 3,1 km/h (1 Bft) W 275 0 min 0,000 mm 0,0 UV-I 0 W/m -11,3 C -8,8 C 4,8 km/h (1 Bft) 100,00 %
07.01.2017 20:28 -8,8 C 82 % 1032,9 hPa 0,0 l/m 2,7 km/h (1 Bft) W 275 0 min 0,000 mm 0,0 UV-I 0 W/m -11,3 C -8,8 C 4,8 km/h (1 Bft) 98,18 %
07.01.2017 20:30 -8,8 C 82 % 1032,8 hPa 0,0 l/m 3,9 km/h (1 Bft) W 277 0 min 0,000 mm 0,0 UV-I 0 W/m -11,3 C -8,8 C 6,4 km/h (2 Bft) 98,00 %
07.01.2017 20:32 -8,7 C 82 % 1032,8 hPa 0,0 l/m 5,7 km/h (1 Bft) W-SW 253 0 min 0,000 mm 0,0 UV-I 0 W/m -11,2 C -8,7 C 9,7 km/h (2 Bft) 100,00 %
07.01.2017 20:34 -8,7 C 82 % 1032,9 hPa 0,0 l/m 7,1 km/h (2 Bft) W-SW 254 0 min 0,000 mm 0,0 UV-I 0 W/m -11,2 C -9,6 C 11,3 km/h (2 Bft) 100,00 %
07.01.2017 20:36 -8,7 C 82 % 1032,9 hPa 0,0 l/m 4,2 km/h (1 Bft) W-SW 244 0 min 0,000 mm 0,0 UV-I 0 W/m -11,2 C -8,7 C 6,4 km/h (2 Bft) 100,00 %
07.01.2017 20:38 -8,8 C 83 % 1032,9 hPa 0,0 l/m 4,2 km/h (1 Bft) W-SW 246 0 min 0,000 mm 0,0 UV-I 0 W/m -11,1 C -8,8 C 6,4 km/h (2 Bft) 100,00 %
07.01.2017 20:40 -8,8 C 83 % 1032,8 hPa 0,0 l/m 5,3 km/h (1 Bft) SW 218 0 min 0,000 mm 0,0 UV-I 0 W/m -11,1 C -8,8 C 6,4 km/h (2 Bft) 100,00 %
07.01.2017 20:42 -8,8 C 83 % 1032,8 hPa 0,0 l/m 3,3 km/h (1 Bft) SW 218 0 min 0,000 mm 0,0 UV-I 0 W/m -11,1 C -8,8 C 6,4 km/h (2 Bft) 97,56 %
07.01.2017 20:44 -8,8 C 84 % 1032,8 hPa 0,0 l/m 4,3 km/h (1 Bft) SW 218 0 min 0,000 mm 0,0 UV-I 0 W/m -11,0 C -8,8 C 6,4 km/h (2 Bft) 100,00 %
07.01.2017 20:46 -8,9 C 85 % 1032,7 hPa 0,0 l/m 5,1 km/h (1 Bft) SW 215 0 min 0,000 mm 0,0 UV-I 0 W/m -10,9 C -8,9 C 6,4 km/h (2 Bft) 96,43 %
07.01.2017 20:48 -8,9 C 85 % 1032,7 hPa 0,0 l/m 4,5 km/h (1 Bft) S-SW 204 0 min 0,000 mm 0,0 UV-I 0 W/m -10,9 C -8,9 C 8,0 km/h (2 Bft) 94,74 %
07.01.2017 20:50 -8,9 C 86 % 1032,6 hPa 0,0 l/m 5,6 km/h (1 Bft) SW 215 0 min 0,000 mm 0,0 UV-I 0 W/m -10,8 C -8,9 C 9,7 km/h (2 Bft) 97,96 %
07.01.2017 20:52 -9,0 C 86 % 1032,6 hPa 0,0 l/m 3,8 km/h (1 Bft) SW 215 0 min 0,000 mm 0,0 UV-I 0 W/m -10,9 C -9,0 C 6,4 km/h (2 Bft) 98,18 %
07.01.2017 20:54 -9,1 C 87 % 1032,6 hPa 0,0 l/m 3,7 km/h (1 Bft) SW 214 0 min 0,000 mm 0,0 UV-I 0 W/m -10,9 C -9,1 C 4,8 km/h (1 Bft) 97,87 %
07.01.2017 20:56 -9,1 C 87 % 1032,6 hPa 0,0 l/m 3,2 km/h (1 Bft) SW 214 0 min 0,000 mm 0,0 UV-I 0 W/m -10,9 C -9,1 C 4,8 km/h (1 Bft) 95,74 %
07.01.2017 20:58 -9,1 C 88 % 1032,7 hPa 0,0 l/m 5,1 km/h (1 Bft) S-SW 212 0 min 0,000 mm 0,0 UV-I 0 W/m -10,7 C -9,1 C 8,0 km/h (2 Bft) 97,56 %
07.01.2017 21:00 -9,1 C 88 % 1032,7 hPa 0,0 l/m 6,1 km/h (2 Bft) S-SW 211 0 min 0,000 mm 0,0 UV-I 0 W/m -10,7 C -9,1 C 8,0 km/h (2 Bft) 96,23 %
07.01.2017 21:02 -9,1 C 88 % 1032,6 hPa 0,0 l/m 5,1 km/h (1 Bft) S-SW 212 0 min 0,000 mm 0,0 UV-I 0 W/m -10,7 C -9,1 C 8,0 km/h (2 Bft) 94,74 %
07.01.2017 21:04 -9,2 C 89 % 1032,6 hPa 0,0 l/m 2,0 km/h (1 Bft) S-SW 212 0 min 0,000 mm 0,0 UV-I 0 W/m -10,7 C -9,2 C 4,8 km/h (1 Bft) 93,62 %
07.01.2017 21:06 -9,2 C 89 % 1032,5 hPa 0,0 l/m 4,5 km/h (1 Bft) S-SW 208 0 min 0,000 mm 0,0 UV-I 0 W/m -10,7 C -9,2 C 8,0 km/h (2 Bft) 98,00 %
07.01.2017 21:08 -9,2 C 89 % 1032,5 hPa 0,0 l/m 4,8 km/h (1 Bft) S-SW 207 0 min 0,000 mm 0,0 UV-I 0 W/m -10,7 C -9,2 C 8,0 km/h (2 Bft) 93,62 %
07.01.2017 21:10 -9,2 C 89 % 1032,5 hPa 0,0 l/m 4,6 km/h (1 Bft) S-SW 205 0 min 0,000 mm 0,0 UV-I 0 W/m -10,7 C -9,2 C 8,0 km/h (2 Bft) 95,83 %
07.01.2017 21:12 -9,2 C 89 % 1032,4 hPa 0,0 l/m 5,3 km/h (1 Bft) S-SW 207 0 min 0,000 mm 0,0 UV-I 0 W/m -10,7 C -9,2 C 6,4 km/h (2 Bft) 97,56 %
07.01.2017 21:14 -9,2 C 89 % 1032,4 hPa 0,0 l/m 5,7 km/h (1 Bft) S-SW 202 0 min 0,000 mm 0,0 UV-I 0 W/m -10,7 C -9,2 C 8,0 km/h (2 Bft) 97,87 %
07.01.2017 21:16 -9,2 C 90 % 1032,4 hPa 0,0 l/m 6,0 km/h (2 Bft) S-SW 202 0 min 0,000 mm 0,0 UV-I 0 W/m -10,5 C -9,2 C 8,0 km/h (2 Bft) 98,00 %
07.01.2017 21:18 -9,2 C 90 % 1032,3 hPa 0,0 l/m 5,0 km/h (1 Bft) S-SW 192 0 min 0,000 mm 0,0 UV-I 0 W/m -10,5 C -9,2 C 8,0 km/h (2 Bft) 97,87 %
07.01.2017 21:20 -9,2 C 90 % 1032,3 hPa 0,0 l/m 4,2 km/h (1 Bft) S-SW 211 0 min 0,000 mm 0,0 UV-I 0 W/m -10,5 C -9,2 C 8,0 km/h (2 Bft) 100,00 %
07.01.2017 21:22 -9,2 C 90 % 1032,3 hPa 0,0 l/m 5,0 km/h (1 Bft) S-SW 200 0 min 0,000 mm 0,0 UV-I 0 W/m -10,5 C -9,2 C 9,7 km/h (2 Bft) 98,21 %
07.01.2017 21:24 -9,2 C 90 % 1032,3 hPa 0,0 l/m 6,0 km/h (2 Bft) SW 217 0 min 0,000 mm 0,0 UV-I 0 W/m -10,5 C -9,2 C 9,7 km/h (2 Bft) 100,00 %
07.01.2017 21:26 -9,2 C 90 % 1032,3 hPa 0,0 l/m 5,2 km/h (1 Bft) S-SW 202 0 min 0,000 mm 0,0 UV-I 0 W/m -10,5 C -9,2 C 8,0 km/h (2 Bft) 100,00 %
07.01.2017 21:28 -9,2 C 90 % 1032,3 hPa 0,0 l/m 5,4 km/h (1 Bft) S-SW 213 0 min 0,000 mm 0,0 UV-I 0 W/m -10,5 C -9,2 C 6,4 km/h (2 Bft) 100,00 %
07.01.2017 21:30 -9,1 C 90 % 1032,2 hPa 0,0 l/m 5,6 km/h (1 Bft) S-SW 212 0 min 0,000 mm 0,0 UV-I 0 W/m -10,4 C -9,1 C 6,4 km/h (2 Bft) 100,00 %
07.01.2017 21:32 -9,1 C 90 % 1032,1 hPa 0,0 l/m 5,5 km/h (1 Bft) S-SW 207 0 min 0,000 mm 0,0 UV-I 0 W/m -10,4 C -9,1 C 6,4 km/h (2 Bft) 97,87 %
07.01.2017 21:34 -9,1 C 91 % 1032,1 hPa 0,0 l/m 5,8 km/h (2 Bft) S-SW 213 0 min 0,000 mm 0,0 UV-I 0 W/m -10,3 C -9,1 C 9,7 km/h (2 Bft) 97,87 %
07.01.2017 21:36 -9,2 C 91 % 1032,0 hPa 0,0 l/m 4,8 km/h (1 Bft) SW 231 0 min 0,000 mm 0,0 UV-I 0 W/m -10,4 C -9,2 C 6,4 km/h (2 Bft) 100,00 %
07.01.2017 21:38 -9,1 C 91 % 1032,1 hPa 0,0 l/m 5,0 km/h (1 Bft) W-SW 238 0 min 0,000 mm 0,0 UV-I 0 W/m -10,3 C -9,1 C 6,4 km/h (2 Bft) 100,00 %
07.01.2017 21:40 -9,1 C 91 % 1032,0 hPa 0,0 l/m 4,2 km/h (1 Bft) W-SW 248 0 min 0,000 mm 0,0 UV-I 0 W/m -10,3 C -9,1 C 6,4 km/h (2 Bft) 100,00 %
07.01.2017 21:42 -9,1 C 91 % 1032,0 hPa 0,0 l/m 2,9 km/h (1 Bft) W-SW 248 0 min 0,000 mm 0,0 UV-I 0 W/m -10,3 C -9,1 C 4,8 km/h (1 Bft) 100,00 %
07.01.2017 21:44 -9,1 C 91 % 1032,1 hPa 0,0 l/m 3,6 km/h (1 Bft) W-SW 258 0 min 0,000 mm 0,0 UV-I 0 W/m -10,3 C -9,1 C 4,8 km/h (1 Bft) 98,11 %
07.01.2017 21:46 -9,1 C 91 % 1032,0 hPa 0,0 l/m 4,2 km/h (1 Bft) W-SW 253 0 min 0,000 mm 0,0 UV-I 0 W/m -10,3 C -9,1 C 6,4 km/h (2 Bft) 100,00 %
07.01.2017 21:48 -9,1 C 91 % 1032,0 hPa 0,0 l/m 5,3 km/h (1 Bft) W-SW 242 0 min 0,000 mm 0,0 UV-I 0 W/m -10,3 C -9,1 C 8,0 km/h (2 Bft) 100,00 %
07.01.2017 21:50 -9,1 C 91 % 1031,9 hPa 0,0 l/m 5,2 km/h (1 Bft) SW 234 0 min 0,000 mm 0,0 UV-I 0 W/m -10,3 C -9,1 C 8,0 km/h (2 Bft) 100,00 %
07.01.2017 21:52 -9,1 C 91 % 1031,8 hPa 0,0 l/m 3,4 km/h (1 Bft) SW 234 0 min 0,000 mm 0,0 UV-I 0 W/m -10,3 C -9,1 C 4,8 km/h (1 Bft) 100,00 %
07.01.2017 21:54 -9,0 C 91 % 1031,8 hPa 0,0 l/m 4,7 km/h (1 Bft) SW 226 0 min 0,000 mm 0,0 UV-I 0 W/m -10,2 C -9,0 C 6,4 km/h (2 Bft) 100,00 %
07.01.2017 21:56 -9,0 C 91 % 1031,9 hPa 0,0 l/m 5,1 km/h (1 Bft) W-SW 252 0 min 0,000 mm 0,0 UV-I 0 W/m -10,2 C -9,0 C 6,4 km/h (2 Bft) 100,00 %
07.01.2017 21:58 -9,0 C 91 % 1031,8 hPa 0,0 l/m 4,6 km/h (1 Bft) W-SW 253 0 min 0,000 mm 0,0 UV-I 0 W/m -10,2 C -9,0 C 6,4 km/h (2 Bft) 100,00 %
07.01.2017 22:00 -9,0 C 91 % 1031,7 hPa 0,0 l/m 5,2 km/h (1 Bft) W 269 0 min 0,000 mm 0,0 UV-I 0 W/m -10,2 C -9,0 C 8,0 km/h (2 Bft) 100,00 %
07.01.2017 22:02 -8,9 C 91 % 1031,6 hPa 0,0 l/m 3,5 km/h (1 Bft) W 279 0 min 0,000 mm 0,0 UV-I 0 W/m -10,1 C -8,9 C 4,8 km/h (1 Bft) 97,18 %
07.01.2017 22:04 -8,9 C 92 % 1031,6 hPa 0,0 l/m 5,5 km/h (1 Bft) W-SW 249 0 min 0,000 mm 0,0 UV-I 0 W/m -10,0 C -8,9 C 8,0 km/h (2 Bft) 97,87 %
07.01.2017 22:06 -8,9 C 91 % 1031,6 hPa 0,0 l/m 4,9 km/h (1 Bft) W-SW 252 0 min 0,000 mm 0,0 UV-I 0 W/m -10,1 C -8,9 C 6,4 km/h (2 Bft) 100,00 %
07.01.2017 22:08 -8,9 C 91 % 1031,6 hPa 0,0 l/m 4,4 km/h (1 Bft) W 266 0 min 0,000 mm 0,0 UV-I 0 W/m -10,1 C -8,9 C 6,4 km/h (2 Bft) 97,87 %
07.01.2017 22:10 -8,9 C 91 % 1031,5 hPa 0,0 l/m 5,9 km/h (2 Bft) W-SW 244 0 min 0,000 mm 0,0 UV-I 0 W/m -10,1 C -8,9 C 9,7 km/h (2 Bft) 100,00 %
07.01.2017 22:12 -8,9 C 91 % 1031,5 hPa 0,0 l/m 5,4 km/h (1 Bft) SW 233 0 min 0,000 mm 0,0 UV-I 0 W/m -10,1 C -8,9 C 6,4 km/h (2 Bft) 100,00 %
07.01.2017 22:14 -8,9 C 91 % 1031,5 hPa 0,0 l/m 4,2 km/h (1 Bft) SW 223 0 min 0,000 mm 0,0 UV-I 0 W/m -10,1 C -8,9 C 4,8 km/h (1 Bft) 100,00 %
07.01.2017 22:16 -8,9 C 92 % 1031,5 hPa 0,0 l/m 3,7 km/h (1 Bft) SW 230 0 min 0,000 mm 0,0 UV-I 0 W/m -10,0 C -8,9 C 6,4 km/h (2 Bft) 100,00 %
07.01.2017 22:18 -8,9 C 92 % 1031,5 hPa 0,0 l/m 3,7 km/h (1 Bft) SW 232 0 min 0,000 mm 0,0 UV-I 0 W/m -10,0 C -8,9 C 4,8 km/h (1 Bft) 100,00 %
07.01.2017 22:20 -8,8 C 92 % 1031,4 hPa 0,0 l/m 4,4 km/h (1 Bft) SW 215 0 min 0,000 mm 0,0 UV-I 0 W/m -9,9 C -8,8 C 8,0 km/h (2 Bft) 98,00 %
07.01.2017 22:22 -8,8 C 92 % 1031,4 hPa 0,0 l/m 5,1 km/h (1 Bft) SW 227 0 min 0,000 mm 0,0 UV-I 0 W/m -9,9 C -8,8 C 8,0 km/h (2 Bft) 100,00 %
07.01.2017 22:24 -8,8 C 92 % 1031,3 hPa 0,0 l/m 5,3 km/h (1 Bft) SW 227 0 min 0,000 mm 0,0 UV-I 0 W/m -9,9 C -8,8 C 8,0 km/h (2 Bft) 100,00 %
07.01.2017 22:26 -8,8 C 92 % 1031,3 hPa 0,0 l/m 4,4 km/h (1 Bft) W-SW 238 0 min 0,000 mm 0,0 UV-I 0 W/m -9,9 C -8,8 C 6,4 km/h (2 Bft) 100,00 %
07.01.2017 22:28 -8,8 C 92 % 1031,4 hPa 0,0 l/m 3,7 km/h (1 Bft) W-SW 246 0 min 0,000 mm 0,0 UV-I 0 W/m -9,9 C -8,8 C 4,8 km/h (1 Bft) 100,00 %
07.01.2017 22:30 -8,8 C 91 % 1031,4 hPa 0,0 l/m 4,5 km/h (1 Bft) W 259 0 min 0,000 mm 0,0 UV-I 0 W/m -10,0 C -8,8 C 6,4 km/h (2 Bft) 100,00 %
07.01.2017 22:32 -8,8 C 91 % 1031,3 hPa 0,0 l/m 3,8 km/h (1 Bft) W-SW 258 0 min 0,000 mm 0,0 UV-I 0 W/m -10,0 C -8,8 C 6,4 km/h (2 Bft) 100,00 %
07.01.2017 22:34 -8,8 C 91 % 1031,3 hPa 0,0 l/m 5,0 km/h (1 Bft) W-SW 255 0 min 0,000 mm 0,0 UV-I 0 W/m -10,0 C -8,8 C 6,4 km/h (2 Bft) 97,87 %
07.01.2017 22:36 -8,8 C 92 % 1031,3 hPa 0,0 l/m 4,8 km/h (1 Bft) W-SW 252 0 min 0,000 mm 0,0 UV-I 0 W/m -9,9 C -8,8 C 8,0 km/h (2 Bft) 100,00 %
07.01.2017 22:38 -8,8 C 92 % 1031,2 hPa 0,0 l/m 5,1 km/h (1 Bft) W 259 0 min 0,000 mm 0,0 UV-I 0 W/m -9,9 C -8,8 C 8,0 km/h (2 Bft) 100,00 %
07.01.2017 22:40 -8,8 C 92 % 1031,1 hPa 0,0 l/m 4,4 km/h (1 Bft) W 280 0 min 0,000 mm 0,0 UV-I 0 W/m -9,9 C -8,8 C 6,4 km/h (2 Bft) 100,00 %
07.01.2017 22:42 -8,8 C 92 % 1031,1 hPa 0,0 l/m 3,0 km/h (1 Bft) W-NW 288 0 min 0,000 mm 0,0 UV-I 0 W/m -9,9 C -8,8 C 6,4 km/h (2 Bft) 100,00 %
07.01.2017 22:44 -8,8 C 92 % 1031,2 hPa 0,0 l/m 2,7 km/h (1 Bft) W 277 0 min 0,000 mm 0,0 UV-I 0 W/m -9,9 C -8,8 C 6,4 km/h (2 Bft) 100,00 %
07.01.2017 22:46 -8,8 C 92 % 1031,2 hPa 0,0 l/m 2,1 km/h (1 Bft) W 280 0 min 0,000 mm 0,0 UV-I 0 W/m -9,9 C -8,8 C 4,8 km/h (1 Bft) 100,00 %
07.01.2017 22:48 -8,8 C 92 % 1031,2 hPa 0,0 l/m 2,5 km/h (1 Bft) W 269 0 min 0,000 mm 0,0 UV-I 0 W/m -9,9 C -8,8 C 6,4 km/h (2 Bft) 94,00 %
07.01.2017 22:50 -8,8 C 92 % 1031,1 hPa 0,0 l/m 2,3 km/h (1 Bft) W 269 0 min 0,000 mm 0,0 UV-I 0 W/m -9,9 C -8,8 C 3,2 km/h (1 Bft) 95,74 %
07.01.2017 22:52 -8,8 C 92 % 1031,1 hPa 0,0 l/m 2,6 km/h (1 Bft) W 271 0 min 0,000 mm 0,0 UV-I 0 W/m -9,9 C -8,8 C 4,8 km/h (1 Bft) 97,37 %
07.01.2017 22:54 -8,8 C 92 % 1031,1 hPa 0,0 l/m 2,0 km/h (1 Bft) W 271 0 min 0,000 mm 0,0 UV-I 0 W/m -9,9 C -8,8 C 4,8 km/h (1 Bft) 98,00 %
07.01.2017 22:56 -8,8 C 92 % 1031,1 hPa 0,0 l/m 2,6 km/h (1 Bft) W 277 0 min 0,000 mm 0,0 UV-I 0 W/m -9,9 C -8,8 C 4,8 km/h (1 Bft) 94,74 %
07.01.2017 22:58 -8,8 C 92 % 1031,1 hPa 0,0 l/m 1,5 km/h (1 Bft) W 277 0 min 0,000 mm 0,0 UV-I 0 W/m -9,9 C -8,8 C 3,2 km/h (1 Bft) 96,43 %
07.01.2017 23:00 -8,8 C 92 % 1031,1 hPa 0,0 l/m 0,6 km/h (0 Bft) W 277 0 min 0,000 mm 0,0 UV-I 0 W/m -9,9 C -8,8 C 1,6 km/h (1 Bft) 97,73 %
07.01.2017 23:02 -8,8 C 92 % 1031,1 hPa 0,0 l/m 0,9 km/h (0 Bft) W 277 0 min 0,000 mm 0,0 UV-I 0 W/m -9,9 C -8,8 C 3,2 km/h (1 Bft) 93,62 %
07.01.2017 23:04 -8,8 C 92 % 1031,1 hPa 0,0 l/m 1,9 km/h (1 Bft) W 278 0 min 0,000 mm 0,0 UV-I 0 W/m -9,9 C -8,8 C 4,8 km/h (1 Bft) 97,87 %
07.01.2017 23:06 -8,7 C 92 % 1031,0 hPa 0,0 l/m 1,5 km/h (1 Bft) W 277 0 min 0,000 mm 0,0 UV-I 0 W/m -9,8 C -8,7 C 4,8 km/h (1 Bft) 97,87 %
07.01.2017 23:08 -8,7 C 92 % 1031,0 hPa 0,0 l/m 1,9 km/h (1 Bft) W 278 0 min 0,000 mm 0,0 UV-I 0 W/m -9,8 C -8,7 C 3,2 km/h (1 Bft) 97,62 %
07.01.2017 23:10 -8,7 C 92 % 1031,0 hPa 0,0 l/m 2,2 km/h (1 Bft) W-NW 286 0 min 0,000 mm 0,0 UV-I 0 W/m -9,8 C -8,7 C 3,2 km/h (1 Bft) 98,18 %
07.01.2017 23:12 -8,7 C 92 % 1031,0 hPa 0,0 l/m 0,6 km/h (0 Bft) W-NW 286 0 min 0,000 mm 0,0 UV-I 0 W/m -9,8 C -8,7 C 1,6 km/h (1 Bft) 97,62 %
07.01.2017 23:14 -8,7 C 92 % 1031,0 hPa 0,0 l/m 2,1 km/h (1 Bft) W-NW 286 0 min 0,000 mm 0,0 UV-I 0 W/m -9,8 C -8,7 C 3,2 km/h (1 Bft) 98,11 %
07.01.2017 23:16 -8,7 C 92 % 1030,9 hPa 0,0 l/m 2,2 km/h (1 Bft) W-NW 286 0 min 0,000 mm 0,0 UV-I 0 W/m -9,8 C -8,7 C 4,8 km/h (1 Bft) 96,00 %
07.01.2017 23:18 -8,7 C 92 % 1030,9 hPa 0,0 l/m 1,8 km/h (1 Bft) W-NW 286 0 min 0,000 mm 0,0 UV-I 0 W/m -9,8 C -8,7 C 3,2 km/h (1 Bft) 95,74 %
07.01.2017 23:20 -8,7 C 92 % 1030,8 hPa 0,0 l/m 1,6 km/h (1 Bft) W-NW 286 0 min 0,000 mm 0,0 UV-I 0 W/m -9,8 C -8,7 C 4,8 km/h (1 Bft) 94,74 %
07.01.2017 23:22 -8,7 C 92 % 1030,8 hPa 0,0 l/m 3,6 km/h (1 Bft) W-NW 286 0 min 0,000 mm 0,0 UV-I 0 W/m -9,8 C -8,7 C 4,8 km/h (1 Bft) 98,00 %
07.01.2017 23:24 -8,7 C 92 % 1030,8 hPa 0,0 l/m 1,7 km/h (1 Bft) W-NW 286 0 min 0,000 mm 0,0 UV-I 0 W/m -9,8 C -8,7 C 3,2 km/h (1 Bft) 100,00 %
07.01.2017 23:26 -8,7 C 92 % 1030,8 hPa 0,0 l/m 1,9 km/h (1 Bft) W-NW 286 0 min 0,000 mm 0,0 UV-I 0 W/m -9,8 C -8,7 C 3,2 km/h (1 Bft) 100,00 %
07.01.2017 23:28 -8,7 C 92 % 1030,8 hPa 0,0 l/m 2,4 km/h (1 Bft) W-NW 286 0 min 0,000 mm 0,0 UV-I 0 W/m -9,8 C -8,7 C 4,8 km/h (1 Bft) 97,87 %
07.01.2017 23:30 -8,7 C 92 % 1030,8 hPa 0,0 l/m 2,2 km/h (1 Bft) W-NW 284 0 min 0,000 mm 0,0 UV-I 0 W/m -9,8 C -8,7 C 4,8 km/h (1 Bft) 100,00 %
07.01.2017 23:32 -8,6 C 92 % 1030,7 hPa 0,0 l/m 4,2 km/h (1 Bft) W 273 0 min 0,000 mm 0,0 UV-I 0 W/m -9,7 C -8,6 C 6,4 km/h (2 Bft) 100,00 %
07.01.2017 23:34 -8,6 C 92 % 1030,7 hPa 0,0 l/m 3,8 km/h (1 Bft) W 273 0 min 0,000 mm 0,0 UV-I 0 W/m -9,7 C -8,6 C 6,4 km/h (2 Bft) 100,00 %
07.01.2017 23:36 -8,6 C 92 % 1030,6 hPa 0,0 l/m 3,3 km/h (1 Bft) W 273 0 min 0,000 mm 0,0 UV-I 0 W/m -9,7 C -8,6 C 4,8 km/h (1 Bft) 97,87 %
07.01.2017 23:38 -8,6 C 92 % 1030,7 hPa 0,0 l/m 3,3 km/h (1 Bft) W 273 0 min 0,000 mm 0,0 UV-I 0 W/m -9,7 C -8,6 C 4,8 km/h (1 Bft) 98,11 %
07.01.2017 23:40 -8,6 C 92 % 1030,6 hPa 0,0 l/m 2,9 km/h (1 Bft) W 273 0 min 0,000 mm 0,0 UV-I 0 W/m -9,7 C -8,6 C 4,8 km/h (1 Bft) 100,00 %
07.01.2017 23:42 -8,6 C 92 % 1030,6 hPa 0,0 l/m 3,5 km/h (1 Bft) W 279 0 min 0,000 mm 0,0 UV-I 0 W/m -9,7 C -8,6 C 4,8 km/h (1 Bft) 100,00 %
07.01.2017 23:44 -8,6 C 92 % 1030,6 hPa 0,0 l/m 2,9 km/h (1 Bft) W 279 0 min 0,000 mm 0,0 UV-I 0 W/m -9,7 C -8,6 C 4,8 km/h (1 Bft) 97,56 %
07.01.2017 23:46 -8,6 C 92 % 1030,6 hPa 0,0 l/m 2,2 km/h (1 Bft) W 279 0 min 0,000 mm 0,0 UV-I 0 W/m -9,7 C -8,6 C 4,8 km/h (1 Bft) 100,00 %
07.01.2017 23:48 -8,6 C 92 % 1030,6 hPa 0,0 l/m 1,5 km/h (1 Bft) W 277 0 min 0,000 mm 0,0 UV-I 0 W/m -9,7 C -8,6 C 4,8 km/h (1 Bft) 100,00 %
07.01.2017 23:50 -8,6 C 92 % 1030,7 hPa 0,0 l/m 1,9 km/h (1 Bft) W 278 0 min 0,000 mm 0,0 UV-I 0 W/m -9,7 C -8,6 C 4,8 km/h (1 Bft) 100,00 %
07.01.2017 23:52 -8,6 C 92 % 1030,6 hPa 0,0 l/m 2,8 km/h (1 Bft) W 281 0 min 0,000 mm 0,0 UV-I 0 W/m -9,7 C -8,6 C 6,4 km/h (2 Bft) 100,00 %
07.01.2017 23:54 -8,6 C 92 % 1030,5 hPa 0,0 l/m 0,0 km/h (0 Bft) W 281 0 min 0,000 mm 0,0 UV-I 0 W/m -9,7 C -8,6 C 1,6 km/h (1 Bft) 100,00 %
07.01.2017 23:56 -8,6 C 92 % 1030,4 hPa 0,0 l/m 0,1 km/h (0 Bft) W 281 0 min 0,000 mm 0,0 UV-I 0 W/m -9,7 C -8,6 C 1,6 km/h (1 Bft) 98,11 %
07.01.2017 23:58 -8,6 C 92 % 1030,4 hPa 0,0 l/m 0,0 km/h (0 Bft) W 281 0 min 0,000 mm 0,0 UV-I 0 W/m -9,7 C -8,6 C 1,6 km/h (1 Bft) 100,00 %
_ Min-Zeit 08:06 14:00 23:56 - 03:58 - - - - - - 08:00 01:48 03:58 04:44
Minimum _ -14,9 C 74 % 1030,4 hPa - 0,0 km/h (0 Bft) - - - - - - -16,1 C -17,9 C 0,0 km/h (0 Bft) 58,00 %
_ Max-Zeit 14:02 22:04 00:00 00:00 01:48 - - 08:06 12:00 11:30 11:12 23:32 14:02 00:40 00:00
Maximum _ -7,6 C 92 % 1039,5 hPa 0,0 l/m 11,7 km/h
W-SW (2 Bft)
- - 2 min 0,076 mm 0,6 UV-I 496 W/m -9,7 C -7,6 C 16,1 km/h
W-SW (3 Bft)
100,00 %
Durchschnitt _ -10,5 C 85 % 1036,0 hPa #0,0 l/m 3,3 km/h (1 Bft) S-SW - #5:10 h #0,330 mm 0,5 UV-I 164 W/m -12,6 C -10,8 C 5,8 km/h (2 Bft) 98,59 %